GFSSE_850_thetae_000.txt.gz
Theta_e
336 330 327 329 339 338 336 334 332 329 321 321 326 329 326 326 324 324 325 327 326 325 323 320 326 329 330 329 327 322 321 317 317 312 316 314 309 312 321 324 324 327 323
335 332 330 336 336 336 334 332 331 327 318 327 328 328 326 327 325 325 324 325 325 326 325 322 327 327 327 325 327 324 315 315 313 315 324 325 314 312 317 320 324 327 328
335 330 331 336 336 334 332 332 330 322 324 326 324 328 328 326 324 325 326 323 325 326 325 317 324 328 326 326 328 328 313 312 310 322 325 326 320 323 318 318 321 319 325
337 336 327 335 333 333 332 326 325 319 324 323 328 328 329 329 326 321 326 323 319 324 322 312 322 326 324 325 327 321 312 311 315 321 325 327 325 311 321 316 309 316 321
337 337 335 329 334 333 330 329 320 320 326 328 330 328 329 328 327 324 323 320 317 318 315 311 321 325 321 325 326 316 310 310 321 323 326 326 324 309 308 308 308 307 307
335 336 335 335 332 331 330 330 321 320 326 327 328 329 326 327 326 324 319 319 315 313 311 309 311 312 323 315 314 310 309 315 322 323 325 325 319 310 309 308 308 308 307
334 334 335 333 333 333 330 329 320 323 326 327 328 326 326 326 325 326 321 320 318 316 313 308 307 308 310 310 311 310 309 318 321 323 324 323 308 308 308 308 308 308 307
333 334 334 332 334 332 330 325 320 321 326 327 325 321 324 325 326 324 324 325 324 320 317 311 307 307 308 310 310 310 308 317 320 322 322 321 308 308 308 308 309 308 308
333 333 332 329 328 326 325 316 318 324 326 325 321 319 318 319 323 324 324 325 325 324 319 312 309 307 308 309 309 309 308 313 316 318 317 313 308 309 308 308 309 309 309
332 331 332 330 323 313 310 312 318 327 329 325 324 317 314 318 322 323 321 325 325 324 320 314 308 308 308 309 309 309 309 309 313 312 318 317 312 309 309 308 309 309 309
330 329 329 331 330 326 322 316 310 315 319 316 313 311 313 314 319 324 319 317 319 319 316 313 308 307 308 309 309 309 309 309 312 312 316 314 310 309 309 309 309 309 309
328 328 328 329 329 329 327 325 319 312 312 312 311 312 314 315 326 326 321 319 315 313 312 311 307 306 308 310 309 309 308 309 311 314 316 315 310 309 310 310 310 310 309
327 327 325 327 329 326 321 321 320 314 317 314 317 320 320 320 325 323 319 315 316 311 311 310 307 306 309 310 311 312 309 307 311 311 313 313 312 309 309 309 309 309 309
322 318 325 327 327 326 322 317 319 319 321 319 322 323 322 322 321 317 315 315 316 313 315 311 311 307 309 310 311 311 312 311 312 311 310 310 311 310 309 309 309 309 309
327 325 321 319 328 324 326 319 318 319 321 320 322 322 321 322 321 320 318 319 318 315 314 317 315 312 314 312 311 311 310 310 310 310 310 309 310 310 309 309 309 309 309
327 327 324 321 318 328 327 323 320 320 321 322 321 321 321 320 320 321 320 319 318 317 315 315 315 313 311 313 313 312 311 310 309 309 309 309 309 309 309 309 309 309 309
328 327 326 325 322 319 326 325 325 323 323 323 324 324 324 324 324 323 322 321 320 319 317 316 315 317 317 316 315 316 315 313 311 310 309 309 309 309 310 310 310 309 309
329 328 328 327 325 322 318 322 326 328 327 323 322 323 325 326 326 326 326 326 325 322 321 319 318 317 317 316 316 318 318 316 313 312 312 310 310 310 309 310 310 310 310
326 328 329 329 327 325 322 320 322 325 325 323 322 321 321 322 323 324 325 326 327 326 324 323 322 321 320 319 320 319 317 317 317 317 315 314 312 311 311 310 310 310 310
323 324 326 328 330 329 327 325 326 326 321 322 321 320 321 321 322 323 324 325 328 328 328 326 324 323 322 321 321 321 320 320 318 318 317 318 317 316 315 313 312 311 310
322 323 325 326 327 328 329 329 328 325 324 323 321 320 321 321 322 323 324 325 327 328 329 328 327 325 325 324 323 322 322 321 321 320 319 319 316 316 316 315 314 313 311
318 319 322 323 325 326 327 327 328 328 326 326 324 323 323 324 324 326 326 326 327 328 329 329 329 327 326 325 324 324 323 322 322 321 320 319 317 318 319 319 318 316 314
318 318 318 320 322 325 327 327 327 328 330 330 329 331 331 331 330 330 330 330 330 329 329 329 330 329 327 326 326 325 324 322 321 320 319 318 318 320 320 319 317 316 314
317 318 318 318 319 323 325 327 328 329 329 329 330 330 330 330 328 328 329 329 330 330 330 330 330 330 329 328 326 325 324 323 322 322 321 321 319 319 318 316 315 314 315
317 317 317 318 318 319 322 323 325 327 328 328 329 330 330 329 329 329 328 329 329 329 330 331 331 332 330 329 327 326 325 325 325 323 322 322 321 321 320 319 318 318 317
319 319 318 318 317 317 317 319 320 321 323 324 324 327 327 327 328 329 329 329 329 329 330 331 331 332 331 330 328 327 326 326 325 324 323 322 322 322 321 321 321 320 319

GFSSE_850_thetae_003.txt.gz
Theta_e
334 333 327 328 336 339 337 336 334 332 327 319 328 328 327 327 324 327 327 326 328 326 324 327 328 330 330 328 329 325 320 317 314 315 317 312 310 318 325 324 325 327 326
333 331 324 326 338 338 335 335 332 331 321 323 329 329 329 327 326 325 327 327 327 326 326 324 328 329 328 326 328 322 315 315 312 320 321 325 313 325 317 317 324 328 327
333 330 325 332 336 337 335 333 331 329 319 326 328 329 330 327 325 326 326 325 326 328 328 315 327 328 328 328 328 323 313 312 320 323 324 325 319 317 318 315 317 325 325
327 330 324 334 335 335 334 333 324 323 320 322 329 331 331 329 328 325 328 323 322 327 320 313 324 326 323 326 327 321 312 310 317 325 326 325 323 312 312 306 311 314 317
332 333 332 330 335 333 333 328 324 318 324 328 330 327 330 329 328 325 322 319 316 316 313 312 317 325 322 323 326 314 310 310 315 324 326 325 322 308 308 308 308 308 307
335 333 332 332 330 333 331 326 326 321 324 328 329 330 327 328 328 325 319 317 314 312 309 308 312 310 316 319 319 310 309 314 319 322 325 322 308 309 309 308 308 308 307
331 334 333 334 334 332 331 328 327 320 325 324 329 327 328 328 327 326 321 318 316 313 310 308 308 309 309 310 311 309 309 315 318 322 322 319 307 308 309 309 309 308 308
329 332 333 334 333 332 332 326 325 319 328 328 327 322 324 325 319 323 321 319 318 316 314 311 308 307 308 309 309 310 309 316 318 321 321 318 308 308 309 309 309 309 309
330 332 332 328 329 332 332 327 321 319 327 325 327 317 315 317 317 316 321 320 324 322 321 315 311 308 307 308 309 309 308 315 316 320 320 316 309 308 309 309 309 309 309
329 329 328 325 320 325 317 314 311 314 322 318 318 312 312 312 313 317 319 324 325 324 323 319 313 309 308 308 309 309 309 311 313 314 313 314 312 309 309 309 309 309 309
326 324 324 325 324 322 312 310 309 310 313 313 313 312 312 312 312 314 319 317 316 319 319 317 313 308 308 308 309 309 309 308 310 312 312 314 314 310 310 310 310 309 309
323 322 323 324 325 323 318 318 317 312 312 312 312 313 312 311 312 318 317 316 314 313 313 315 313 309 306 308 309 309 309 309 309 310 310 312 313 310 310 310 310 310 309
320 321 322 323 325 325 322 318 317 317 312 313 312 313 315 316 316 316 316 314 314 315 313 312 312 309 306 307 309 309 309 308 308 310 311 312 312 312 310 310 310 310 310
322 320 321 322 324 326 325 318 316 317 315 317 317 317 318 319 318 317 317 315 314 315 313 312 311 310 307 307 309 310 310 309 308 309 310 310 311 311 311 310 310 310 310
324 325 320 320 321 324 322 320 318 316 318 318 319 319 320 320 320 320 320 319 318 317 315 313 312 311 309 308 309 310 311 311 310 309 310 311 310 310 311 310 310 310 309
326 326 326 323 320 323 324 320 319 320 318 320 321 321 321 321 321 321 321 322 322 321 319 317 315 313 312 310 309 312 311 310 310 310 310 310 310 310 310 309 310 310 310
326 327 327 325 324 321 318 320 320 321 321 320 321 322 323 323 323 324 324 324 323 323 322 320 319 317 315 314 312 311 311 313 313 312 311 310 309 309 310 310 310 310 310
326 327 328 327 325 324 321 318 320 324 323 320 320 320 321 323 324 324 324 323 324 325 324 324 322 321 319 317 315 314 314 314 314 315 314 312 312 310 310 309 309 309 309
325 324 326 328 327 327 325 323 321 319 320 320 321 320 319 320 321 322 323 323 325 326 326 326 325 324 323 321 320 319 317 316 315 315 314 314 313 313 312 311 311 311 310
323 325 327 328 328 329 329 327 325 325 322 320 320 319 320 321 322 324 324 324 326 326 327 326 326 326 325 324 323 322 321 321 320 319 318 317 316 316 315 315 315 314 313
319 322 324 327 330 330 329 329 328 327 326 326 325 324 325 327 328 328 328 327 326 327 327 327 327 328 327 325 324 324 323 323 323 322 321 320 320 319 319 318 317 315 315
319 319 319 321 324 327 331 330 329 328 328 329 329 329 330 330 330 330 330 329 329 329 329 329 328 328 328 327 325 324 323 324 323 322 321 321 320 320 320 319 319 317 317
318 318 320 319 320 323 326 329 330 330 330 328 327 328 329 330 331 331 331 331 331 331 331 330 330 329 329 329 328 325 325 324 322 320 320 320 319 319 318 318 318 317 318
317 317 318 318 319 321 324 326 328 329 329 329 329 329 329 330 331 331 330 330 330 330 331 331 331 330 329 328 327 327 327 326 324 323 321 322 321 321 320 320 319 319 319
318 318 318 318 318 318 319 321 323 324 325 325 326 327 327 328 328 328 328 329 330 330 330 330 330 328 329 330 329 327 327 327 327 324 323 322 322 321 321 321 321 320 319
318 317 317 317 317 317 317 317 316 316 317 317 318 321 324 326 327 328 329 329 330 330 330 330 330 330 329 329 330 329 327 327 328 326 324 323 323 321 321 321 321 321 322

GFSSE_850_thetae_006.txt.gz
Theta_e
331 335 330 330 333 334 335 335 335 332 328 321 328 328 330 326 323 328 328 325 327 326 324 327 329 330 329 329 329 326 323 315 312 314 312 310 312 326 325 319 328 327 326
330 331 328 327 334 338 338 333 334 331 326 318 328 329 329 327 327 323 328 328 327 326 327 329 328 328 328 326 327 319 315 315 311 315 319 315 316 325 316 318 327 326 326
330 330 327 326 334 338 336 335 332 330 325 317 330 329 330 327 325 324 325 327 327 326 326 321 328 327 328 329 327 324 313 313 319 321 322 321 318 315 316 316 322 325 326
327 327 327 327 334 336 335 333 332 326 321 318 324 330 330 329 328 325 326 321 325 327 318 313 324 325 323 328 327 324 312 315 322 324 324 321 318 310 309 308 312 318 322
324 329 326 330 335 333 333 331 327 320 317 325 329 329 330 329 328 325 320 319 317 314 312 312 316 319 318 324 326 318 311 313 321 324 323 323 320 311 308 308 309 309 309
325 329 329 327 330 330 332 331 324 320 318 327 330 329 330 328 327 324 319 316 313 311 311 309 313 312 311 312 319 313 310 314 317 323 323 323 319 308 309 309 308 308 307
324 328 329 331 332 331 331 330 325 323 320 323 329 329 327 329 327 322 320 319 315 314 311 308 308 309 309 309 310 309 309 315 317 319 322 321 313 309 309 309 309 309 308
325 326 330 331 332 331 330 329 324 321 317 319 326 327 326 327 325 320 319 318 318 318 315 311 309 307 308 308 309 309 309 314 317 317 319 318 311 308 309 309 309 309 309
327 328 329 331 330 329 329 329 325 319 315 324 327 318 318 322 319 316 318 322 325 322 320 317 313 309 307 307 308 309 309 312 316 316 315 314 313 308 309 309 309 309 309
327 328 329 329 325 322 325 324 316 310 311 321 318 313 312 312 312 314 319 319 317 324 321 321 317 312 309 307 308 309 309 309 313 315 315 313 311 308 309 309 309 309 309
326 327 327 324 324 321 319 313 310 308 310 313 313 314 312 312 312 312 314 317 315 313 314 315 315 313 310 308 307 308 309 309 311 313 312 311 312 312 310 309 309 309 309
325 324 323 323 323 324 320 315 313 311 311 312 313 313 313 313 312 311 315 315 312 311 311 312 311 311 310 307 307 308 309 309 308 309 311 311 312 313 313 310 310 310 310
325 324 322 322 323 324 322 318 316 316 315 312 312 312 313 314 315 315 316 315 314 313 313 312 311 311 311 308 306 308 309 309 308 308 309 310 310 312 313 311 310 310 310
324 324 324 323 323 323 323 321 317 316 317 314 316 315 316 317 317 318 318 319 318 317 315 315 312 312 311 309 306 307 309 309 309 308 308 310 311 312 312 312 311 310 310
324 325 324 324 322 322 322 321 319 317 317 317 317 318 319 319 320 320 320 321 321 320 320 318 316 314 312 311 309 307 308 310 310 310 308 308 310 311 311 312 312 311 310
325 324 325 326 325 322 321 321 321 320 318 317 319 320 321 321 321 321 322 322 323 322 322 321 320 319 317 314 313 311 309 310 311 311 311 310 309 310 311 310 310 311 312
327 327 327 327 327 326 323 320 319 321 320 320 319 319 321 322 322 322 323 323 323 323 323 322 322 321 320 318 317 316 313 311 310 312 311 310 310 310 310 310 310 310 310
325 326 327 327 328 327 325 323 321 319 321 319 320 321 321 321 323 323 323 323 323 324 324 324 324 323 323 322 322 320 318 317 315 314 313 314 314 313 312 311 310 309 309
323 324 324 326 327 327 327 327 325 323 322 320 320 321 324 326 326 326 325 324 324 324 325 325 325 324 324 324 324 323 322 321 320 319 318 317 316 316 315 314 313 313 312
320 321 323 325 329 329 328 328 328 327 326 325 324 323 322 324 327 329 329 329 329 328 327 326 326 326 326 325 324 324 324 324 324 323 323 321 321 320 319 318 317 316 315
318 319 321 323 326 329 329 329 329 328 328 327 327 327 328 330 331 331 331 331 331 331 330 330 329 328 328 327 326 326 326 326 326 326 325 324 324 323 322 322 320 319 319
319 319 319 319 321 322 326 329 329 328 328 328 329 330 331 330 330 331 331 331 331 331 330 330 330 330 330 329 328 325 324 325 325 326 326 322 319 320 320 320 320 320 320
317 317 318 319 319 320 323 326 328 329 329 329 331 331 330 330 330 330 331 331 331 330 330 330 330 330 329 328 327 326 325 325 325 326 326 324 324 323 321 320 320 319 319
317 317 317 317 319 320 322 323 325 328 328 327 326 325 326 326 326 327 327 327 328 328 329 330 330 330 330 328 328 327 327 326 325 325 325 326 325 325 324 323 321 320 321
317 317 317 317 317 317 317 317 318 318 317 317 317 318 321 323 325 325 325 326 328 328 327 328 329 330 330 329 329 329 329 328 327 325 325 325 325 325 325 325 325 324 322
317 316 316 315 315 315 315 315 315 315 315 315 315 315 315 315 314 314 314 317 318 319 320 322 324 325 326 328 328 329 329 328 327 327 326 325 325 325 325 325 325 324 325

GFSSE_850_thetae_009.txt.gz
Theta_e
327 330 328 334 335 337 336 335 334 333 331 325 324 325 328 325 321 327 328 326 325 326 325 324 328 330 330 330 329 328 325 318 314 312 311 310 318 327 327 324 326 327 326
326 328 329 329 333 333 334 335 332 332 329 321 324 328 328 327 327 322 326 328 326 326 326 327 328 329 328 328 327 323 320 317 313 312 316 312 320 325 320 323 327 326 328
324 326 326 326 331 336 336 335 334 331 328 322 326 328 329 327 328 325 328 327 328 326 326 328 327 328 326 328 329 326 315 315 313 315 318 320 322 318 319 317 326 326 325
323 324 325 324 333 336 335 335 333 330 324 321 323 329 329 329 327 328 326 323 327 327 326 316 326 327 324 329 328 326 314 313 314 316 320 321 319 317 312 311 314 318 324
321 325 324 325 332 336 333 333 330 326 318 319 326 330 330 329 328 327 323 320 319 319 315 314 321 320 321 322 323 325 315 313 316 317 320 320 318 315 309 308 308 310 311
322 326 327 329 332 333 332 330 329 322 317 319 328 326 331 330 328 328 323 318 316 314 312 310 313 313 312 319 318 322 312 313 316 318 318 320 319 315 308 309 309 308 308
323 327 328 329 328 330 329 330 328 321 318 318 330 329 329 328 328 326 321 320 318 315 313 310 308 309 312 309 309 311 311 311 313 314 318 319 314 309 309 309 309 309 308
325 326 328 329 330 331 330 328 327 321 318 316 322 325 329 329 328 327 323 321 319 317 316 313 311 309 308 308 308 309 309 311 315 316 318 320 317 311 309 309 309 309 309
326 326 328 329 330 331 329 329 328 326 319 315 321 324 323 326 325 322 320 319 320 318 317 316 314 312 310 307 307 308 309 310 314 317 318 318 316 312 309 309 309 309 309
327 326 327 328 328 327 323 324 324 321 315 311 319 315 312 315 318 315 313 315 315 313 314 316 315 314 313 310 308 307 309 309 311 315 316 316 315 313 312 310 309 309 309
327 326 326 325 326 325 321 321 320 314 310 310 312 312 312 313 312 312 311 313 314 312 312 313 314 314 314 313 309 308 308 309 309 310 314 314 315 312 311 314 309 309 309
326 325 326 325 325 325 323 320 316 313 311 311 313 313 313 313 313 312 312 314 314 313 313 312 313 313 313 312 310 307 307 308 309 309 311 313 313 312 312 316 313 310 309
325 325 325 325 324 325 324 323 318 316 315 313 312 313 313 313 314 315 315 316 317 317 316 315 314 314 312 311 311 308 306 308 309 309 309 309 310 311 312 316 320 312 310
323 325 325 324 324 323 324 324 322 318 316 316 315 314 314 315 316 317 318 319 319 319 319 318 317 317 315 313 312 310 307 307 309 309 309 308 308 310 311 312 323 322 314
324 324 325 325 324 323 323 324 323 321 318 316 317 316 318 318 319 320 320 320 320 321 321 321 320 320 319 318 315 313 311 308 307 309 309 309 308 308 310 312 322 324 324
326 326 326 325 325 326 324 323 323 324 321 318 317 318 319 320 320 321 321 322 322 322 322 322 322 322 321 321 320 318 316 315 312 309 309 310 311 310 308 310 312 322 324
326 326 327 327 327 327 327 326 324 322 321 320 319 320 319 319 320 321 322 322 323 323 323 323 323 323 323 323 323 322 321 320 319 316 313 311 311 311 311 311 311 311 313
323 324 325 327 328 328 328 327 327 325 323 321 320 320 321 323 323 324 324 325 325 325 325 325 324 324 324 324 324 324 324 324 324 323 321 319 317 315 314 313 312 311 310
320 321 322 323 326 328 328 328 327 327 326 325 324 324 323 324 326 328 328 329 330 330 330 329 329 328 327 327 326 326 326 326 326 325 325 324 323 322 321 320 318 316 316
318 318 320 322 324 326 328 328 328 328 328 327 327 327 327 328 329 330 331 331 332 331 331 331 331 330 330 329 328 328 328 328 328 327 327 326 326 326 325 325 323 322 321
318 318 319 320 321 322 325 328 328 328 328 328 328 328 329 329 331 332 332 332 331 331 331 331 331 331 330 330 329 327 327 326 326 326 326 326 326 326 325 322 321 322 322
318 318 319 319 319 320 322 326 327 328 328 328 329 330 331 331 332 332 331 330 330 330 330 330 329 330 330 330 328 326 324 325 325 325 325 325 326 326 325 324 325 323 320
317 317 317 318 319 320 322 325 327 328 329 330 329 327 327 326 326 326 326 326 327 327 327 328 328 329 328 328 329 328 326 326 326 325 325 325 326 325 325 326 326 325 326
317 316 316 317 317 317 317 319 320 321 321 319 318 318 319 321 322 321 321 321 322 323 324 325 325 326 327 328 328 328 328 328 326 327 326 326 326 326 326 326 325 325 324
316 316 315 315 315 315 315 315 315 315 315 315 315 315 315 315 314 314 314 313 313 313 314 315 316 318 322 326 326 327 327 327 326 326 324 324 324 326 326 326 325 326 326
316 315 315 315 315 315 314 314 314 314 314 314 313 313 313 313 313 312 312 311 310 309 308 308 309 311 312 313 314 316 317 318 321 323 325 325 325 325 324 325 324 325 326

GFSSE_850_thetae_012.txt.gz
Theta_e
325 327 327 338 339 336 336 333 334 333 331 328 321 318 326 323 323 323 327 327 325 326 325 325 325 331 330 330 330 328 326 324 316 312 311 310 323 328 327 327 325 325 323
325 327 326 335 337 337 339 334 334 330 329 326 318 326 326 328 326 321 324 328 327 327 324 324 327 329 329 327 328 326 320 322 315 312 313 311 316 326 323 325 326 327 328
324 326 326 330 334 333 333 334 333 332 329 325 320 325 329 328 326 325 328 327 327 327 324 325 325 327 327 326 327 327 325 316 314 312 314 316 316 316 316 321 328 327 327
323 324 324 327 329 334 335 334 334 331 328 321 319 327 330 329 327 328 323 324 326 327 325 316 326 326 327 327 328 327 324 315 313 314 317 318 317 317 318 316 323 325 326
320 324 324 324 333 336 334 332 331 329 323 318 319 327 331 328 328 327 324 320 319 320 313 314 323 325 320 322 327 327 324 317 312 314 317 320 319 316 317 308 310 310 311
321 324 325 324 333 337 333 331 329 327 320 316 322 328 329 330 329 327 325 320 317 315 313 312 313 314 314 315 319 321 320 314 311 314 316 320 321 319 316 309 309 309 309
323 324 326 328 332 329 331 329 328 325 320 316 328 329 329 330 328 328 322 321 317 315 314 312 311 310 310 312 312 310 314 314 311 312 314 316 320 317 314 309 309 309 309
324 325 327 328 331 331 330 329 327 324 320 316 323 329 329 326 329 328 323 317 316 317 316 318 315 313 310 308 308 308 309 311 309 312 315 315 319 317 323 315 309 309 309
325 326 327 328 330 335 332 330 328 325 322 318 315 317 320 323 321 319 321 318 316 318 326 327 324 320 317 313 310 307 308 310 309 311 314 314 317 319 319 323 310 309 309
326 326 327 328 329 330 328 327 327 325 323 318 313 320 315 315 315 314 313 313 314 318 326 323 323 320 317 316 314 310 307 308 310 310 312 314 315 317 316 323 317 309 309
325 326 327 327 328 328 326 322 324 324 321 318 312 314 314 314 313 313 312 311 313 315 315 317 325 317 316 314 313 313 309 308 308 309 310 312 314 315 316 321 323 320 310
325 326 326 327 328 327 324 323 321 319 317 314 313 313 314 314 314 313 313 313 314 315 317 316 317 316 316 315 313 312 311 308 307 308 309 309 311 315 316 315 322 323 320
324 325 326 326 327 326 324 324 322 319 318 316 313 313 313 313 314 314 315 316 316 318 319 319 319 318 318 317 315 313 312 311 307 307 308 309 309 310 312 313 316 323 323
324 324 325 326 326 325 325 324 324 323 319 317 317 316 315 315 316 316 317 318 319 319 320 321 321 321 321 320 319 318 316 313 311 307 307 308 309 309 308 308 312 322 324
325 325 325 325 326 326 326 325 324 323 322 319 318 317 317 317 318 319 319 320 321 322 322 322 322 322 322 322 322 322 321 320 318 315 312 308 308 309 309 308 308 313 322
326 326 327 327 326 326 326 326 326 325 324 323 321 319 318 318 319 320 321 321 322 322 323 323 323 323 323 323 323 323 323 323 323 323 321 319 315 310 309 310 311 309 311
325 325 325 326 327 327 327 327 327 327 326 324 322 322 321 321 322 322 323 324 325 327 327 327 327 327 327 327 327 326 325 325 324 324 324 324 324 322 318 313 311 311 311
321 321 322 323 325 327 327 327 327 328 327 326 325 325 325 326 326 327 327 328 329 330 330 330 330 330 330 330 330 329 329 328 327 326 326 326 325 325 325 324 321 317 315
318 318 318 319 321 323 327 328 328 328 327 327 327 327 327 328 329 329 330 330 331 331 331 331 331 330 329 329 329 329 329 328 328 328 327 327 327 327 326 326 326 325 324
318 318 319 320 321 323 325 327 328 328 328 328 328 329 329 330 330 331 331 331 332 332 331 331 330 329 329 329 329 328 328 327 326 326 325 325 325 325 325 326 325 325 326
318 318 318 318 319 319 321 324 326 327 328 328 329 329 329 330 330 331 331 331 330 329 329 328 328 328 328 328 328 327 326 326 326 325 325 325 324 325 324 325 325 326 324
317 317 317 318 318 319 321 324 326 327 328 328 329 328 328 327 326 326 325 325 325 325 325 326 326 326 327 327 326 325 325 326 325 326 326 326 325 325 325 325 325 325 325
317 317 316 316 316 316 317 320 324 327 326 324 320 319 318 319 320 320 319 319 318 317 317 318 317 317 320 323 326 324 325 325 325 324 325 324 325 325 325 325 326 325 325
316 315 315 315 315 315 315 315 315 316 315 315 315 315 315 314 314 314 314 313 312 311 310 309 309 309 310 312 316 320 322 322 323 323 323 324 324 323 323 324 324 324 324
315 315 315 315 315 314 314 314 314 314 314 314 313 313 311 310 310 310 309 309 309 308 308 307 306 306 305 304 305 307 309 311 313 317 318 318 317 318 318 321 322 322 322
315 315 315 315 314 314 313 312 311 310 310 309 309 308 308 308 308 308 307 307 307 306 306 305 305 305 304 304 304 304 305 307 309 310 314 315 315 315 316 316 316 317 319

GFSSE_850_thetae_015.txt.gz
Theta_e
324 325 328 340 340 335 336 332 332 331 331 328 324 315 316 316 321 327 327 326 326 325 323 323 326 331 331 331 330 329 327 325 323 314 311 310 312 327 326 327 323 324 320
323 325 326 340 339 335 338 335 333 333 328 327 321 326 324 326 323 321 323 328 327 327 321 324 325 330 329 329 327 327 326 319 321 314 311 311 313 326 323 323 326 326 327
321 323 325 332 338 335 338 334 333 332 330 326 320 325 328 328 327 326 328 328 327 326 324 322 326 327 328 326 327 327 327 324 315 314 312 314 314 319 318 323 328 329 329
320 321 323 330 334 332 333 333 333 332 329 324 318 327 329 329 328 326 324 323 325 327 319 312 325 324 327 326 328 328 327 324 315 313 314 316 318 318 321 319 328 328 327
320 322 322 325 329 333 335 333 330 330 326 320 316 328 330 329 328 328 325 318 316 318 316 314 315 324 325 323 327 327 326 323 320 313 314 318 320 318 327 313 318 325 322
322 323 323 323 331 335 335 333 330 328 323 315 319 328 331 331 329 326 318 317 317 316 314 312 312 313 316 319 320 325 325 325 319 312 313 316 319 320 318 324 318 313 310
323 324 324 325 334 337 331 329 328 326 321 316 325 327 328 331 330 326 321 319 318 317 315 314 313 311 311 314 315 319 320 321 323 312 312 313 315 320 319 323 314 309 309
325 325 325 326 334 328 329 328 327 325 323 319 317 330 329 331 328 328 324 322 318 317 319 320 321 318 315 312 311 322 323 315 323 311 311 313 315 318 317 324 321 311 309
325 325 325 326 329 333 333 331 329 327 325 322 317 318 326 326 321 324 322 321 320 320 327 327 327 326 324 323 317 314 311 310 312 311 310 313 315 317 320 321 325 324 319
326 326 326 326 327 328 329 328 328 327 326 325 321 316 319 319 316 318 319 319 321 316 319 326 326 326 325 324 323 317 316 312 309 309 310 310 313 315 317 319 323 324 323
325 327 326 326 326 326 327 326 325 325 324 322 319 315 317 317 317 316 315 314 314 314 316 319 323 324 325 324 317 316 314 313 311 308 308 309 310 312 314 315 323 324 325
325 326 327 327 326 325 325 324 323 322 321 319 316 314 314 315 315 314 314 315 315 315 317 318 319 319 319 318 317 317 315 313 311 310 307 307 308 309 310 312 315 323 324
324 324 325 327 326 325 325 325 324 324 320 318 317 315 313 314 314 314 315 316 317 318 319 319 320 321 321 321 321 321 320 319 317 314 311 307 307 308 309 309 310 314 320
327 325 324 325 326 326 326 325 324 324 324 320 318 318 317 317 316 316 317 318 319 320 321 322 322 322 323 323 323 323 323 322 322 322 321 318 313 308 308 309 309 309 309
327 327 326 326 326 326 327 326 325 325 324 324 322 319 318 318 319 319 320 321 321 322 323 323 324 324 324 324 324 324 324 324 324 323 323 323 322 319 315 309 308 309 309
326 326 326 326 326 327 326 326 327 327 326 325 324 324 324 323 322 322 322 323 324 326 326 327 328 328 329 328 328 328 329 328 328 327 325 324 324 324 323 321 318 312 309
324 324 323 323 325 326 327 327 327 327 328 327 326 327 327 327 327 327 326 327 328 329 330 330 330 330 330 330 330 329 329 329 329 329 329 328 326 325 325 325 324 323 320
320 319 319 319 321 324 326 327 327 328 328 328 328 329 329 329 329 329 329 329 330 330 331 331 331 330 329 328 328 328 328 328 328 328 327 327 326 326 326 326 326 326 325
318 318 318 320 320 321 325 327 328 328 328 328 329 329 329 329 329 329 329 330 330 330 331 330 330 329 329 327 327 327 327 327 326 327 326 326 325 325 324 325 324 324 325
318 318 318 319 320 323 325 326 327 327 328 328 328 328 328 329 329 329 330 330 330 329 327 326 326 326 326 326 326 326 326 326 325 324 324 324 324 325 325 324 325 324 324
318 318 318 318 319 321 321 324 325 326 327 328 328 329 328 328 327 326 324 323 323 322 322 321 321 321 322 321 321 322 322 322 323 324 323 324 323 324 323 325 325 326 325
316 316 316 316 316 317 318 322 325 327 327 325 323 322 320 319 318 317 316 315 314 313 313 312 310 310 310 310 316 318 321 320 321 323 321 321 324 321 323 325 324 324 324
315 315 315 315 315 315 315 317 320 320 318 315 314 314 314 314 314 314 313 312 310 309 308 308 307 306 305 306 306 311 316 317 315 314 316 317 319 321 323 320 322 322 323
315 315 315 315 315 314 314 314 314 314 314 314 314 313 311 309 308 308 308 308 307 307 307 307 306 306 305 304 304 305 304 305 310 310 310 311 312 315 317 316 315 314 314
315 315 315 315 314 313 313 312 312 311 310 309 308 308 308 308 308 308 308 307 306 305 304 302 302 301 300 300 300 302 302 303 306 309 310 309 310 310 311 311 310 314 317
315 315 314 314 313 312 311 310 309 308 308 308 308 309 309 309 310 309 308 306 303 301 298 296 295 294 294 294 296 298 303 305 307 306 305 306 306 307 308 310 310 310 311

GFSSE_850_thetae_018.txt.gz
Theta_e
324 324 326 338 340 337 336 336 330 331 331 328 325 321 316 320 325 328 328 326 326 326 323 324 325 331 334 332 331 330 328 327 322 323 314 311 314 328 326 323 322 327 319
323 324 326 338 342 338 336 335 333 332 329 328 324 318 327 320 321 321 320 328 328 327 322 324 326 328 331 330 329 327 327 325 317 320 314 312 312 323 325 319 325 329 326
321 323 326 341 340 337 336 336 334 332 331 328 324 321 328 329 328 327 329 328 327 327 321 323 325 329 328 328 326 327 328 327 323 315 313 319 324 319 322 319 327 329 329
321 322 329 330 339 336 336 335 332 331 331 328 321 322 329 330 329 327 324 323 324 322 317 316 323 326 325 326 327 329 328 326 322 317 318 323 324 322 316 317 326 328 329
321 322 326 328 337 334 334 334 332 329 328 323 318 326 330 331 329 328 327 323 318 316 316 314 316 324 320 325 325 328 327 326 321 320 321 322 325 325 317 327 320 325 327
323 323 321 323 329 333 335 335 333 329 326 319 316 328 330 332 330 329 323 319 319 318 316 313 312 315 325 321 321 324 325 325 325 324 321 321 318 326 319 320 324 318 325
324 324 323 323 332 335 335 333 330 326 323 317 322 327 329 331 332 330 327 325 322 318 318 315 315 314 311 312 313 315 323 322 320 323 323 320 322 323 320 323 325 320 311
326 325 326 325 333 337 331 328 328 325 322 319 318 328 330 330 332 330 328 327 324 321 321 326 324 324 322 321 317 315 322 324 323 321 324 321 315 314 316 324 324 324 319
326 326 327 328 332 331 330 334 329 326 324 323 318 320 328 328 326 324 326 325 323 324 324 324 326 326 326 326 325 324 322 317 317 322 323 323 318 314 316 320 322 326 326
326 327 329 332 335 338 338 333 334 329 326 325 322 317 317 320 323 317 318 318 315 316 315 316 321 326 325 325 325 323 316 314 315 322 322 321 311 310 313 315 318 323 325
324 326 327 329 333 337 338 336 328 325 323 322 321 317 314 324 328 320 317 316 315 315 315 316 317 319 319 320 320 318 317 317 321 320 318 313 308 308 309 311 313 320 324
324 325 326 327 328 334 335 335 333 334 332 332 331 329 327 327 327 317 316 316 316 317 318 319 319 320 321 325 327 325 324 325 324 321 319 314 310 307 307 309 309 311 316
328 325 324 325 327 330 334 334 336 334 332 331 326 324 323 318 320 318 317 317 318 319 320 321 322 323 324 325 326 327 326 326 325 324 323 322 320 316 310 307 308 309 309
326 327 326 325 325 327 331 330 334 330 326 327 323 320 320 320 320 320 320 320 320 322 323 323 324 325 326 326 326 326 327 326 326 325 324 323 323 323 322 318 311 307 309
327 327 327 326 325 326 327 329 329 330 327 327 325 324 324 323 322 322 323 324 323 325 326 327 327 328 328 328 328 328 328 328 328 328 327 327 326 325 324 323 322 320 315
326 326 326 326 326 326 327 327 329 329 329 328 327 327 327 327 327 327 327 327 327 328 328 329 330 330 330 329 329 328 328 328 328 327 327 328 328 328 327 326 324 324 323
324 324 323 322 322 325 327 329 329 329 329 329 328 328 328 328 328 328 329 329 329 329 329 330 330 329 329 329 328 328 328 327 327 327 327 327 327 327 326 326 326 327 327
320 320 319 318 319 320 326 328 329 329 329 329 329 329 329 329 329 329 329 329 329 330 330 330 327 328 328 328 328 327 326 326 326 326 327 326 326 326 325 325 325 325 325
318 318 319 320 320 320 325 328 328 328 329 329 329 329 329 329 329 329 329 330 330 329 328 326 325 324 323 324 324 322 323 322 324 326 326 326 325 324 324 324 325 324 325
319 319 319 320 323 323 325 327 328 328 328 328 328 328 329 329 328 327 326 324 322 321 320 318 318 319 320 320 320 320 320 320 321 323 324 324 325 326 325 325 325 324 323
318 318 319 320 322 323 326 327 327 327 327 327 326 325 323 321 319 317 315 314 313 313 312 311 311 310 312 313 312 313 314 317 320 318 323 324 320 321 322 324 323 324 325
316 315 316 316 316 319 322 325 326 325 324 321 318 315 314 314 313 312 310 309 308 308 308 308 307 307 309 309 310 310 311 312 313 315 312 311 314 314 318 321 321 321 322
315 315 315 315 315 315 317 318 318 317 315 314 314 313 311 309 308 308 309 309 309 308 306 305 304 304 306 306 307 307 309 311 308 308 309 309 311 313 312 312 315 316 316
315 315 315 315 314 314 314 314 314 314 312 310 309 308 308 309 310 310 309 308 306 303 301 299 298 297 301 303 303 303 305 305 306 307 306 307 308 309 308 308 309 310 311
315 315 314 314 314 313 312 311 310 309 308 308 308 309 309 310 310 309 306 304 301 298 296 295 294 294 298 299 300 301 303 303 304 304 305 303 302 303 303 304 306 308 309
314 314 314 314 313 311 311 310 309 308 308 308 309 310 310 308 306 305 303 300 297 295 294 294 294 294 294 293 295 299 301 301 301 300 298 298 299 300 301 302 304 306 309

GFSSE_850_thetae_021.txt.gz
Theta_e
336 330 325 340 339 337 336 335 331 330 330 328 325 323 318 321 326 328 329 328 324 327 324 325 325 330 336 334 331 330 328 327 325 319 321 312 311 322 329 319 323 330 328
332 330 324 337 339 338 336 335 334 332 330 328 325 321 324 321 325 326 325 325 328 326 323 324 325 329 332 331 330 329 328 327 327 319 318 312 315 316 325 322 322 330 327
335 335 325 337 342 340 336 336 335 332 330 329 325 322 327 328 328 326 327 328 327 328 323 323 325 328 329 328 328 327 328 327 326 320 314 313 326 325 320 321 325 328 327
334 336 336 340 340 338 336 336 334 331 329 328 323 319 328 330 330 328 327 324 324 325 320 319 324 327 328 327 325 329 328 327 326 318 316 323 324 325 324 316 319 328 330
334 335 341 331 339 338 336 335 333 330 329 326 318 324 329 331 331 329 328 323 321 319 317 316 316 324 325 322 323 326 326 326 325 318 325 323 324 326 326 319 321 323 327
335 336 326 324 337 337 333 334 334 332 327 322 314 328 329 331 331 330 329 327 323 320 317 315 312 312 314 313 317 321 322 324 324 325 326 323 320 320 327 321 323 322 324
336 337 323 322 331 333 337 335 332 331 324 317 318 328 329 331 334 331 329 327 325 321 317 317 315 317 316 314 312 311 314 319 321 320 320 326 322 323 325 320 326 327 321
336 337 332 323 330 335 336 334 331 329 323 318 316 324 328 330 331 332 330 328 325 320 321 315 323 324 325 323 322 318 316 314 312 317 322 322 325 316 312 313 322 324 327
337 337 336 326 328 334 333 334 332 329 324 322 316 316 328 327 330 330 323 322 317 317 319 315 318 326 324 324 324 318 316 314 313 313 318 323 324 319 311 312 314 325 325
336 337 337 337 335 338 333 332 334 332 327 324 321 318 315 315 318 319 316 315 314 314 314 315 316 317 320 320 321 319 317 317 316 320 322 321 321 313 309 310 312 314 327
336 337 337 337 338 340 340 340 333 327 328 324 319 319 315 317 330 329 327 316 315 316 317 317 318 319 320 320 321 325 324 322 323 325 322 321 318 313 308 307 309 310 312
335 336 337 337 338 339 339 338 336 337 334 332 333 332 331 328 329 326 318 315 316 317 318 320 321 321 322 324 328 328 328 327 327 326 325 324 321 321 317 312 307 308 309
333 334 335 337 338 338 339 338 338 337 336 334 333 332 330 327 326 327 327 325 321 323 322 324 324 326 327 328 328 328 328 328 328 327 327 326 323 322 323 322 320 315 308
331 332 333 334 337 337 338 338 338 337 336 335 333 332 331 330 329 328 328 328 327 327 328 328 328 328 329 329 329 329 329 328 328 328 328 328 327 326 326 326 324 323 322
331 332 332 333 335 336 337 338 338 337 336 335 334 333 332 331 330 329 329 329 329 329 329 329 329 330 330 330 330 330 330 330 330 329 329 328 329 328 328 328 328 327 325
331 332 332 332 332 334 336 337 337 337 336 335 334 334 333 332 332 331 331 331 331 331 330 330 330 331 330 330 330 330 330 330 329 329 328 328 328 328 327 327 327 327 328
325 324 324 324 326 331 334 336 337 337 336 335 335 334 332 331 331 331 331 331 332 331 330 330 330 330 329 329 328 328 328 328 327 326 326 326 327 328 327 327 326 325 325
321 321 320 319 319 324 333 335 336 336 335 335 334 333 332 332 331 330 331 331 331 329 329 328 327 327 326 325 325 324 322 323 323 323 323 326 326 326 326 326 326 325 324
322 324 319 321 323 325 333 334 334 333 332 331 331 331 330 330 329 329 330 328 324 325 323 322 319 319 319 318 319 318 318 319 319 318 321 323 324 325 325 325 324 324 323
324 325 324 324 325 329 331 331 331 331 330 327 325 325 324 323 323 321 317 314 312 313 313 310 311 311 311 312 312 313 312 313 312 317 321 320 323 324 322 319 321 323 324
324 327 329 330 331 331 332 332 328 324 322 324 324 321 317 314 313 311 309 309 309 310 310 309 309 309 309 309 309 309 309 311 313 312 315 319 320 315 313 314 314 317 320
319 320 323 327 330 331 327 325 322 320 319 317 315 314 312 309 309 309 310 310 310 310 308 307 305 305 305 305 306 305 308 307 309 309 306 306 307 309 311 313 314 314 313
317 316 316 316 317 318 319 318 317 316 315 313 311 309 309 309 310 311 310 308 306 305 303 301 300 299 300 300 303 303 304 305 304 304 304 305 307 307 307 309 310 307 309
316 315 315 315 315 316 317 317 317 314 311 309 309 309 310 311 310 308 307 306 304 302 299 297 296 296 298 300 299 300 300 301 303 304 303 302 302 302 298 300 301 301 303
315 315 314 314 313 313 312 311 311 310 309 309 309 310 309 308 308 308 305 303 301 298 296 295 294 294 295 298 296 297 299 300 301 300 300 299 298 297 298 299 301 301 301
314 314 313 313 312 312 311 311 310 309 309 310 310 309 308 307 307 306 303 300 297 295 294 294 294 294 294 294 294 295 297 300 299 297 296 297 297 298 299 299 300 300 302

GFSSE_850_thetae_024.txt.gz
Theta_e
336 329 326 337 340 337 336 335 333 329 329 327 324 322 319 318 324 328 328 326 324 327 326 326 328 330 336 335 332 329 328 327 325 322 316 317 311 313 323 322 319 330 329
335 326 325 340 338 337 336 335 333 333 330 328 325 320 320 320 322 323 324 322 328 327 325 326 327 328 332 331 329 328 328 327 324 323 316 314 313 322 316 321 320 328 330
333 326 324 338 340 339 336 336 334 330 327 328 325 319 326 328 327 326 324 326 327 327 323 321 325 328 330 330 328 326 327 327 326 323 315 315 324 325 324 318 317 324 325
333 330 324 339 342 338 336 337 335 328 328 327 322 319 328 329 329 328 326 323 320 319 318 317 323 325 328 328 326 324 328 327 326 320 315 319 324 325 325 324 317 324 329
331 336 336 336 340 338 336 335 334 330 329 324 317 324 329 330 330 329 328 324 321 319 316 314 315 322 325 326 324 321 326 325 324 317 322 325 320 323 327 326 321 317 326
334 336 334 331 337 338 334 335 333 330 328 321 314 326 329 331 332 329 330 327 323 321 316 314 312 311 314 315 312 314 320 318 315 312 314 324 325 318 324 326 324 318 318
336 336 327 322 334 336 334 335 332 331 326 318 316 327 328 330 333 331 330 327 326 322 316 312 312 314 314 313 313 313 311 311 310 310 310 314 323 325 320 325 317 317 317
336 334 324 321 328 333 335 334 331 329 324 319 316 325 328 329 329 333 330 326 320 315 313 313 313 316 318 317 315 316 313 312 312 311 311 313 318 321 319 312 311 312 326
336 334 328 323 325 331 336 331 330 325 322 320 316 315 323 326 328 330 325 315 313 312 313 314 315 316 318 319 321 319 318 317 316 315 313 312 312 321 321 312 310 311 313
337 336 334 330 327 327 327 323 324 318 322 319 317 315 314 314 317 318 316 314 314 314 315 316 317 318 318 319 319 319 322 322 321 319 318 318 318 315 314 310 308 309 310
336 337 337 337 336 335 337 338 337 330 317 316 315 315 318 315 325 329 326 319 315 316 317 318 319 320 320 321 322 326 327 325 325 324 324 324 323 321 320 317 314 309 308
335 336 337 337 338 340 340 339 336 330 333 329 330 330 330 328 329 329 327 318 317 317 319 320 321 322 323 323 324 326 327 326 327 327 327 327 326 325 324 322 322 321 318
332 335 335 337 338 338 339 338 338 337 336 335 334 333 331 329 325 326 326 325 324 321 321 322 322 323 325 326 327 327 328 328 328 328 328 328 327 327 327 327 326 325 324
331 333 335 335 337 337 339 339 338 337 336 335 334 332 332 330 329 327 328 328 328 328 326 327 328 328 329 329 330 330 330 330 330 329 329 329 329 328 328 328 328 327 327
330 332 332 333 335 337 338 338 337 337 336 335 334 334 332 331 329 329 329 329 328 329 330 330 330 330 330 330 330 330 330 329 329 329 328 328 328 329 328 328 327 327 327
330 332 332 332 333 335 336 337 338 337 337 336 334 334 333 331 331 330 329 331 331 331 331 330 330 329 329 329 329 328 327 326 326 327 327 326 326 326 326 327 328 327 326
329 331 332 332 332 332 334 336 337 337 336 335 335 334 333 332 331 331 331 331 330 330 329 328 328 328 327 325 324 322 324 323 317 317 318 318 320 323 326 326 325 324 324
324 323 324 323 323 329 333 336 337 336 335 334 333 332 332 331 330 330 329 330 328 328 326 325 323 321 317 316 315 316 317 317 316 315 313 315 319 321 323 324 324 325 324
324 325 321 320 320 324 333 335 335 335 334 332 331 330 330 329 328 330 329 324 319 319 316 313 310 310 310 310 310 311 310 311 308 309 312 315 319 321 322 321 319 315 315
326 326 323 324 325 330 334 335 333 332 331 330 330 328 326 322 321 318 313 310 310 310 310 310 310 309 308 306 305 305 305 305 309 311 310 314 314 314 317 316 318 311 312
329 329 327 327 328 330 331 331 331 330 327 325 323 319 315 312 310 309 311 311 311 309 307 307 305 304 304 302 300 301 301 305 304 305 310 306 304 303 305 307 309 311 313
329 330 331 332 332 332 331 329 325 323 321 317 314 312 309 310 310 311 311 309 308 307 307 305 301 300 298 298 300 299 301 301 306 299 300 298 304 306 306 302 303 303 302
323 324 329 330 329 329 326 323 320 316 314 312 309 309 310 311 311 310 309 309 308 306 304 300 298 296 296 296 296 298 300 301 298 300 298 300 303 298 299 299 297 296 297
318 318 318 318 318 318 317 316 315 314 310 309 309 310 311 311 310 310 309 307 305 303 301 298 296 295 295 294 295 295 294 295 299 300 300 297 296 295 295 296 296 298 300
317 316 316 316 317 318 318 315 311 310 309 310 310 310 309 309 310 309 307 305 303 301 298 296 295 294 294 293 293 294 293 294 294 297 297 296 295 294 295 295 298 297 297
316 315 314 313 313 312 312 311 310 310 310 310 309 309 308 308 308 307 306 304 301 298 296 294 294 293 293 293 293 293 293 294 293 294 296 295 294 294 295 295 295 297 293

GFSSE_850_thetae_027.txt.gz
Theta_e
337 332 327 336 339 337 334 334 332 329 327 325 322 320 319 319 325 328 327 323 327 327 324 327 325 331 336 335 332 329 328 326 325 320 315 318 312 311 315 316 315 323 329
338 332 326 339 337 336 337 335 332 332 328 324 322 318 316 318 319 320 321 321 327 327 319 327 326 328 332 330 330 328 327 327 325 321 315 314 313 321 322 318 318 323 330
329 325 326 340 338 336 337 335 333 330 325 325 321 317 326 326 326 326 324 323 326 323 318 319 324 325 330 330 329 326 325 326 326 321 314 319 322 323 325 324 319 318 323
329 325 326 338 339 337 335 335 333 329 325 323 319 318 328 329 328 327 324 318 317 317 315 313 319 322 323 328 327 323 322 324 320 316 313 315 319 322 324 325 324 317 323
329 330 325 339 339 338 335 335 332 330 325 319 315 324 328 330 330 327 328 325 319 317 314 312 312 316 319 321 322 320 316 319 313 312 314 314 317 323 325 327 324 321 318
331 331 329 330 336 336 336 335 334 328 326 316 312 327 329 331 331 329 328 324 319 315 312 311 311 310 310 312 311 310 310 312 310 311 311 313 319 319 319 323 320 321 316
333 334 330 324 333 336 334 334 333 328 324 316 315 322 325 329 332 330 329 323 321 314 312 311 312 312 313 314 313 312 312 312 312 311 311 311 316 321 324 325 326 322 317
334 334 327 321 328 333 332 334 332 329 323 317 314 319 323 327 329 331 330 326 316 313 312 313 314 315 316 316 316 316 316 315 315 315 314 312 312 313 322 326 321 313 314
335 331 328 322 324 329 333 333 329 328 322 319 315 314 316 320 324 327 327 316 314 313 314 315 316 317 317 318 318 318 319 320 321 321 319 317 317 316 316 327 319 311 310
335 333 332 326 325 327 329 325 324 324 320 319 316 314 313 314 316 317 317 316 316 315 316 317 318 318 319 319 320 321 325 324 324 324 324 324 323 322 321 325 323 318 312
335 333 334 334 331 330 329 331 337 333 322 317 316 316 322 317 324 327 323 320 317 316 317 318 319 320 321 323 323 324 326 325 326 326 327 327 327 326 326 325 324 323 322
332 332 333 335 335 334 338 338 338 334 331 328 330 328 327 327 326 328 326 322 321 321 321 321 323 323 324 325 326 328 329 329 329 328 328 328 327 327 328 328 327 327 327
328 333 333 334 336 335 335 339 337 336 334 333 332 332 331 329 328 326 325 325 326 325 324 324 325 326 327 328 329 329 329 329 329 330 329 329 329 329 329 328 328 328 327
328 331 333 334 335 337 338 338 336 337 336 335 334 333 332 331 329 328 328 327 327 327 328 329 329 329 329 329 329 329 328 329 329 328 327 327 327 327 328 328 328 327 327
327 332 333 334 334 337 337 338 338 337 337 336 334 333 332 330 330 328 329 329 329 330 330 329 329 329 328 328 329 329 329 328 327 326 326 326 326 327 325 325 327 325 328
326 332 332 332 332 336 336 338 338 337 336 335 334 333 333 332 330 330 330 329 330 330 329 329 329 328 328 328 326 323 318 315 316 315 315 317 319 318 318 321 322 328 328
330 331 331 332 332 334 336 336 337 336 336 334 334 332 332 332 330 330 330 329 329 328 328 328 328 327 323 315 314 312 311 312 312 312 312 312 312 315 318 320 322 323 325
328 331 332 332 332 332 334 336 337 335 336 334 333 332 331 330 329 329 328 328 327 327 326 323 316 311 311 311 310 310 309 309 308 309 307 308 312 315 318 320 319 318 317
322 324 326 326 327 331 332 337 335 335 334 333 332 330 329 328 328 327 326 325 320 314 311 311 311 310 308 307 306 306 305 305 305 306 309 312 312 313 314 314 312 312 312
323 324 323 321 320 328 332 336 334 334 333 331 330 328 328 326 325 320 312 310 311 311 310 308 308 307 304 303 303 303 303 303 304 307 306 306 307 303 303 303 305 305 306
326 325 325 325 326 329 333 335 334 334 332 330 329 325 317 312 309 310 311 310 309 309 308 307 306 304 303 301 301 301 301 301 302 303 303 302 300 300 302 301 300 298 299
329 329 328 329 331 332 333 334 333 331 328 324 317 311 309 310 311 310 310 309 308 308 306 304 302 300 299 296 296 297 297 299 302 298 299 297 298 300 299 296 295 294 294
330 331 331 331 331 330 330 330 326 323 317 313 309 309 310 311 310 310 310 309 308 306 304 301 298 296 296 296 294 295 296 297 294 297 295 297 300 296 294 293 293 293 294
330 330 331 331 331 330 327 322 318 314 312 309 310 311 310 311 311 310 310 309 307 304 300 298 296 295 294 294 294 293 294 293 295 296 295 293 293 293 292 292 292 293 296
321 325 327 325 324 321 317 315 313 310 310 310 310 310 311 310 310 309 308 306 303 300 298 296 295 294 293 293 293 293 293 293 292 294 293 292 292 292 291 292 291 293 292
318 318 318 317 317 317 317 314 310 310 310 311 310 309 309 309 308 308 306 303 300 297 295 294 293 293 293 293 293 292 291 291 291 291 291 291 292 291 292 292 292 292 292

GFSSE_850_thetae_030.txt.gz
Theta_e
338 334 333 337 338 337 334 331 329 327 326 325 322 320 320 321 329 330 326 322 326 325 328 327 322 333 337 335 332 330 328 326 321 321 317 316 316 311 312 314 316 319 324
337 333 328 336 338 335 335 334 330 328 326 320 318 316 316 318 321 321 319 323 325 317 318 326 325 332 333 331 331 329 325 325 319 316 314 315 312 320 319 320 317 318 326
332 328 327 337 337 336 336 334 330 328 321 320 317 315 320 322 324 323 324 321 323 316 315 320 325 325 330 329 329 327 322 318 316 317 314 314 317 320 322 322 319 317 319
328 323 328 337 337 336 335 335 332 327 321 319 317 317 328 329 327 325 320 317 316 315 313 312 318 321 324 324 326 326 323 319 317 314 314 313 317 319 323 324 324 322 317
328 324 328 337 338 337 336 335 331 329 321 317 314 321 328 330 329 325 325 321 317 316 313 312 312 315 317 320 321 322 320 315 315 314 312 314 316 318 324 327 326 324 319
329 326 326 338 338 340 336 335 332 332 324 315 313 326 328 330 330 329 324 321 320 316 313 312 312 311 311 312 313 310 311 311 311 311 311 311 312 318 320 325 324 324 321
331 333 330 333 336 338 336 335 333 330 324 315 314 323 329 330 331 330 328 323 317 312 312 312 312 313 314 315 316 315 315 315 315 314 314 313 312 315 318 325 326 327 327
333 334 334 329 333 337 335 332 333 329 324 318 315 321 324 328 331 331 330 326 315 313 313 314 315 316 316 318 318 318 319 319 321 322 321 318 316 313 316 322 326 326 323
335 334 332 324 328 335 333 331 333 327 324 319 316 316 318 323 326 327 325 317 314 314 315 316 317 317 318 318 319 320 321 324 324 325 325 324 323 323 322 321 326 327 325
334 335 331 324 324 327 329 331 328 324 323 321 318 315 314 315 317 318 319 318 317 316 316 317 318 319 320 321 322 323 324 324 325 325 325 326 326 326 326 326 325 327 325
333 332 331 330 325 326 328 327 329 332 329 321 318 318 320 317 320 325 323 322 319 319 319 320 321 322 323 324 325 326 328 328 328 328 328 328 328 328 327 327 328 327 327
330 331 331 331 332 332 333 333 336 335 329 326 327 326 327 326 325 324 324 323 323 324 323 323 323 324 325 326 328 329 329 329 328 329 328 328 327 328 328 329 329 328 328
325 330 332 332 332 333 333 336 337 335 333 332 331 331 330 328 327 325 324 324 325 325 326 326 328 328 329 328 328 328 328 328 328 327 327 327 326 326 328 329 327 328 328
324 328 331 333 333 333 335 336 337 336 336 334 333 332 332 330 329 328 327 327 327 328 329 329 329 329 328 328 328 328 329 329 329 328 326 326 326 326 326 325 325 324 325
324 327 330 333 333 333 335 336 338 337 336 336 334 333 332 331 330 329 328 328 329 329 329 328 328 327 327 327 327 328 328 326 324 319 317 317 318 321 324 323 321 322 323
323 324 331 333 334 334 336 337 338 337 336 335 334 332 332 332 331 330 330 330 328 329 328 328 327 327 327 325 325 321 315 312 312 313 313 313 312 311 311 313 318 319 321
324 323 330 334 334 336 337 337 338 336 335 335 333 333 331 331 331 331 330 328 328 327 327 327 326 326 324 314 311 311 311 310 310 309 309 309 310 308 311 315 317 319 319
324 324 330 334 334 334 336 337 337 335 334 334 334 332 331 330 328 328 328 326 326 325 325 324 313 311 311 310 309 308 307 305 305 304 304 305 309 311 313 312 313 315 314
324 329 331 332 332 332 334 336 337 335 334 334 332 332 330 328 328 326 325 325 321 313 311 310 309 309 308 307 306 305 304 303 304 306 309 309 307 306 304 303 303 305 306
321 323 326 328 330 331 332 335 337 334 333 333 332 330 329 328 326 324 314 310 310 310 309 308 308 306 304 303 303 303 303 302 303 301 301 303 302 301 300 300 303 301 300
321 322 323 323 323 324 331 334 336 333 332 331 330 329 328 321 311 310 310 310 309 309 308 307 305 303 301 300 300 301 301 300 300 302 301 299 298 297 298 301 298 295 295
322 324 324 323 321 326 330 335 335 333 332 330 329 323 311 310 310 310 310 310 309 309 307 304 302 300 298 296 295 296 296 298 301 299 298 295 295 295 295 295 294 293 293
325 325 327 328 331 332 333 334 333 332 331 327 316 310 310 310 311 310 310 310 309 306 303 301 298 297 296 294 293 294 294 295 293 295 294 294 293 293 293 293 293 292 292
327 328 328 330 331 332 332 332 332 330 324 313 309 310 311 310 310 310 310 309 306 302 300 297 295 294 294 293 293 292 292 292 291 292 292 292 291 291 291 291 291 291 290
328 329 330 330 330 330 328 324 323 317 311 310 310 310 310 310 310 310 308 305 301 299 297 295 294 293 293 293 292 292 292 291 290 291 291 290 290 290 290 290 290 289 290
329 330 329 330 329 327 321 316 314 311 310 311 310 310 310 310 309 308 305 301 298 296 295 293 293 292 293 293 292 291 290 290 290 289 288 288 289 289 289 289 289 289 289

GFSSE_850_thetae_033.txt.gz
Theta_e
335 336 337 338 339 339 337 331 332 332 331 331 330 328 327 327 331 330 326 321 316 314 328 325 320 334 335 336 332 330 329 323 321 322 320 318 318 316 312 313 314 318 319
334 332 334 339 340 337 333 331 328 326 324 320 318 317 317 319 325 327 322 316 317 314 321 329 327 334 333 333 331 330 329 321 318 320 318 314 315 314 315 316 316 320 325
332 330 329 338 338 337 336 334 328 324 320 318 316 314 317 316 316 316 322 322 319 314 314 323 325 331 332 331 330 328 326 323 320 319 315 312 314 317 320 321 320 318 321
329 325 326 336 337 337 336 334 332 325 320 318 316 321 327 328 327 318 317 316 316 316 314 313 321 323 327 328 324 326 325 323 319 317 315 314 316 318 319 323 323 323 321
327 323 327 335 337 338 335 334 333 329 322 317 315 323 329 329 328 324 322 319 319 316 313 312 312 316 319 320 321 321 320 317 312 314 312 312 313 316 318 326 329 326 324
327 322 328 335 337 337 336 335 332 331 326 317 314 324 329 330 330 329 323 320 318 314 312 311 311 311 310 311 312 311 312 312 312 313 313 312 311 311 319 320 325 324 325
329 325 326 335 337 339 337 335 332 332 326 317 314 325 328 330 331 330 327 324 318 312 312 313 313 313 314 314 315 315 317 318 318 320 321 320 317 312 314 319 325 326 326
332 331 329 332 336 339 339 334 332 331 327 318 315 323 326 329 332 331 329 327 316 314 314 315 316 316 317 318 319 319 319 321 324 324 324 323 322 321 320 318 319 326 326
334 334 333 330 334 338 336 333 331 331 327 320 316 318 320 325 330 329 327 318 315 315 316 317 317 318 318 319 320 320 322 325 325 325 325 325 326 326 326 326 325 325 327
334 334 333 329 325 331 334 332 332 331 325 321 318 315 315 318 321 321 317 317 317 317 317 317 319 319 321 323 324 324 325 327 328 328 328 328 328 328 327 327 327 327 328
334 334 334 331 324 325 330 331 331 328 328 323 319 317 319 315 315 324 323 322 321 322 322 322 323 323 324 325 326 328 328 328 328 328 328 328 328 327 328 328 328 329 329
330 331 332 331 330 325 328 330 329 335 333 326 322 325 324 324 325 325 324 324 324 325 325 325 326 326 327 328 328 328 328 328 328 327 327 327 326 326 326 327 329 329 329
325 329 330 332 332 331 330 331 333 336 331 330 329 329 328 327 327 325 325 325 326 326 326 327 329 328 328 328 327 327 327 327 328 328 328 327 327 326 324 324 325 326 326
326 326 328 331 333 333 334 335 337 335 334 333 332 331 331 330 329 327 327 326 327 328 329 328 328 327 327 327 326 326 326 328 327 326 325 322 320 320 322 324 325 325 324
325 323 325 331 333 334 335 336 337 336 336 335 333 333 331 331 330 329 328 328 328 328 328 327 327 327 326 326 325 325 325 325 320 315 313 314 314 314 313 313 313 315 317
326 324 323 327 332 334 335 335 337 337 336 334 333 332 331 330 329 330 330 330 330 327 327 326 326 326 325 325 324 322 314 312 311 310 310 310 311 310 310 309 310 313 316
324 325 324 324 332 334 334 336 337 337 335 334 333 331 330 330 330 330 328 327 326 326 325 325 325 324 323 316 311 310 310 308 307 306 305 305 305 305 307 309 311 313 314
323 324 325 324 332 334 335 336 337 336 335 333 333 332 331 330 329 328 327 326 325 325 324 322 313 310 310 310 309 308 307 306 305 304 303 304 306 308 308 306 305 304 306
323 324 324 326 333 335 336 337 338 335 334 334 334 333 332 330 328 326 325 325 321 312 310 310 309 309 308 307 306 305 304 303 303 303 305 307 306 303 302 302 301 301 302
323 324 328 330 333 335 335 336 337 336 334 334 334 332 331 329 328 326 322 311 310 310 309 308 308 306 304 303 303 303 302 302 301 303 300 300 301 300 297 298 299 300 300
321 321 325 330 333 334 333 336 337 335 333 333 332 330 328 328 325 311 310 310 310 310 310 308 304 302 301 301 301 302 301 301 299 299 301 300 299 297 296 295 295 295 295
320 321 322 323 326 329 331 333 335 334 332 331 329 329 328 318 310 310 310 310 311 309 307 303 302 300 298 297 296 297 296 297 299 300 297 297 295 295 294 294 294 294 293
320 321 322 323 323 323 328 332 334 333 331 330 328 328 316 310 310 310 311 311 309 305 302 301 299 297 296 295 293 294 293 293 292 294 294 294 293 293 292 292 292 292 292
322 323 324 324 322 326 331 332 334 334 332 330 327 315 310 310 310 311 311 309 305 302 300 298 297 295 294 293 293 292 292 291 290 291 291 292 292 291 291 291 291 290 290
324 325 327 329 331 332 333 333 333 332 331 326 313 310 310 310 310 310 309 306 303 300 298 296 295 294 293 293 292 292 291 290 290 290 289 289 290 290 290 289 289 289 289
326 327 329 331 331 332 331 331 330 329 324 313 310 310 310 310 310 309 307 304 301 298 296 295 293 293 292 292 292 290 289 289 289 288 287 287 287 287 287 288 289 288 288

GFSSE_850_thetae_036.txt.gz
Theta_e
333 335 342 341 339 336 335 335 335 335 334 334 333 333 332 330 330 330 328 327 323 315 322 321 315 325 330 332 332 331 330 326 318 319 321 317 317 318 316 313 314 315 317
332 330 337 340 339 339 337 329 328 326 324 323 324 324 323 328 330 329 323 317 311 312 325 327 330 333 335 334 332 331 330 325 319 318 317 315 314 315 314 313 314 315 323
332 328 333 339 340 337 335 332 327 322 319 318 316 316 317 321 324 319 317 323 316 314 315 326 329 333 332 332 331 329 326 324 320 317 316 313 314 316 318 319 320 318 318
330 326 328 339 339 338 336 334 329 325 320 318 316 316 325 324 318 316 316 316 316 315 313 318 324 330 331 331 328 322 323 321 317 314 316 313 313 315 317 320 322 325 323
328 324 326 334 336 337 336 334 332 328 324 318 316 326 329 328 326 320 319 318 317 314 312 312 314 319 321 321 320 318 318 313 311 312 312 311 310 311 314 317 326 328 326
327 323 326 333 336 339 338 334 332 330 326 318 315 326 329 329 329 328 321 320 315 312 311 311 311 311 311 311 311 311 312 313 314 316 317 317 315 312 311 315 317 323 323
327 324 327 333 336 336 338 335 333 331 326 319 313 324 329 330 331 328 326 324 316 313 313 314 314 315 315 314 315 317 317 318 321 323 322 321 319 318 315 314 315 325 326
330 325 327 332 335 337 339 335 333 331 327 321 314 323 328 330 331 331 329 326 316 315 315 316 316 317 317 318 319 320 320 322 324 324 325 325 325 325 325 325 324 321 326
333 332 330 329 332 336 339 337 333 331 329 321 315 320 324 328 331 329 328 322 316 316 316 317 318 318 319 321 323 323 324 325 325 326 327 327 327 327 327 326 326 325 325
334 334 334 332 329 331 336 336 332 332 329 322 318 316 319 324 327 329 321 318 320 319 318 319 321 321 323 324 325 325 327 328 328 328 327 328 328 328 327 328 328 328 327
334 334 334 333 330 327 331 334 333 332 329 325 321 317 317 316 317 321 323 324 323 323 323 323 324 324 325 325 326 327 328 328 327 327 327 327 327 327 327 327 329 330 329
330 331 332 333 332 327 327 330 331 330 332 329 322 321 321 319 321 325 325 324 324 325 325 326 327 327 327 328 327 327 327 327 327 327 327 327 326 326 326 325 325 325 328
327 329 329 332 332 330 326 328 330 330 334 329 326 326 326 326 325 325 324 324 325 326 326 327 328 328 328 327 326 326 325 326 326 327 327 326 326 324 322 322 324 324 324
327 328 329 329 332 333 331 330 331 334 334 332 330 329 329 328 328 327 326 326 326 327 328 327 327 326 326 325 325 325 324 325 324 324 320 316 314 314 314 314 314 315 316
325 325 326 327 330 333 334 334 335 336 335 334 332 332 331 330 329 328 328 327 328 328 326 326 326 325 325 325 324 324 324 322 317 312 312 311 310 311 311 311 311 310 310
325 325 325 324 326 332 334 335 335 337 336 334 333 332 331 329 328 328 328 329 328 327 325 324 324 324 324 323 323 319 312 310 310 308 307 306 306 305 305 306 306 307 309
323 325 324 324 323 329 334 335 336 337 336 334 333 332 330 329 329 329 327 326 325 324 323 324 323 323 316 311 310 309 309 308 307 306 305 304 303 304 305 305 306 307 308
324 324 325 324 324 326 334 335 336 337 336 335 333 332 331 331 330 328 327 325 325 324 323 319 311 310 310 309 308 307 306 305 304 303 303 303 305 306 307 305 303 302 303
324 324 323 323 324 326 334 335 336 337 335 335 334 332 332 331 329 328 326 325 324 314 310 310 309 309 308 307 306 304 304 303 303 302 303 302 301 301 302 299 298 298 298
323 323 322 323 325 328 335 335 336 337 335 335 334 333 333 331 329 328 326 320 310 310 309 309 308 306 303 303 303 302 302 302 301 301 302 301 299 299 298 296 296 296 295
322 322 322 322 325 330 335 335 336 337 335 334 334 333 332 328 327 326 312 310 310 310 310 307 303 302 302 301 301 302 300 300 299 298 299 300 300 297 296 295 295 294 294
321 321 321 321 327 331 334 335 336 336 334 334 333 331 328 327 326 311 310 310 311 311 307 304 302 300 299 298 297 297 296 297 298 300 296 296 295 295 294 293 293 293 293
321 321 320 320 324 330 333 334 335 335 333 332 330 326 325 320 311 310 310 311 311 308 305 302 300 299 298 296 294 293 293 293 292 294 294 295 293 293 292 292 292 292 291
321 321 320 321 322 324 330 333 334 335 332 329 326 324 325 311 310 310 311 311 309 306 302 300 298 297 295 294 293 293 292 290 290 290 291 292 291 291 291 291 291 291 290
321 321 322 323 324 323 327 331 333 333 329 328 324 322 314 309 310 310 310 310 307 304 300 298 296 295 293 293 292 292 291 290 289 289 288 290 291 291 290 290 289 289 289
321 323 324 324 323 323 327 331 330 332 329 327 321 313 309 310 310 310 309 308 305 301 298 297 295 293 293 293 292 291 289 288 288 287 287 287 287 287 288 289 289 289 288

GFSSE_850_thetae_039.txt.gz
Theta_e
331 334 342 342 341 337 335 334 336 336 335 334 333 333 333 333 331 330 330 328 326 321 325 319 313 315 325 328 332 331 330 327 318 316 318 317 315 317 318 315 313 313 316
330 331 343 341 339 336 335 329 333 332 331 330 330 329 331 331 332 332 328 321 313 318 330 326 333 333 336 334 332 330 330 326 321 316 315 313 312 314 314 314 313 314 319
329 329 340 342 338 338 336 327 324 320 319 318 317 318 319 328 330 325 319 322 316 314 325 327 332 334 335 332 331 330 328 325 322 316 314 312 312 313 315 317 318 318 316
331 327 333 338 339 336 334 330 324 320 317 315 314 314 315 316 316 314 315 315 315 313 313 324 331 332 332 330 330 326 321 320 315 311 312 312 311 312 313 314 318 325 327
330 328 331 339 338 335 332 329 328 325 321 315 315 325 328 323 318 318 317 317 314 312 312 313 322 328 330 329 326 322 317 313 311 312 312 312 311 310 310 313 317 327 330
326 327 329 337 337 335 333 332 329 328 323 316 315 328 328 328 328 327 319 317 313 312 311 311 312 314 315 314 313 312 313 315 318 320 321 320 317 315 312 312 315 318 320
326 325 329 336 337 339 336 333 332 329 324 318 314 324 329 330 330 327 326 323 315 314 314 314 315 315 316 315 318 322 319 319 323 324 324 324 322 322 321 317 316 319 327
327 323 330 336 337 335 337 334 332 330 325 319 314 324 328 330 331 329 329 325 316 315 316 316 317 317 318 318 319 320 320 323 324 324 325 325 325 325 325 325 325 324 322
330 325 327 332 335 337 338 337 332 330 328 321 314 320 327 330 330 330 327 323 317 317 317 317 318 319 320 322 323 324 324 324 326 326 326 327 327 327 326 326 328 327 326
333 332 330 330 333 335 340 338 334 331 329 323 317 317 321 327 330 330 327 318 319 320 319 320 321 323 323 324 324 325 326 327 327 327 327 327 327 327 327 328 328 329 330
333 334 334 334 333 333 334 336 335 332 330 325 320 316 317 320 324 326 321 322 321 323 323 323 324 324 325 326 326 327 327 327 327 327 327 327 326 326 324 326 326 326 326
331 333 334 334 334 333 332 334 335 332 330 329 322 318 319 316 316 323 324 324 323 324 325 325 327 327 327 327 327 326 326 325 325 326 327 327 327 327 326 325 325 325 324
327 330 332 333 334 333 330 329 333 332 331 331 324 321 322 323 324 325 324 324 324 325 326 327 328 328 326 326 325 325 324 324 324 324 323 323 320 317 315 315 315 315 318
327 328 329 330 332 333 332 328 329 331 333 331 328 324 327 326 327 326 325 325 325 326 328 327 326 326 325 324 324 324 323 323 323 321 317 312 312 311 311 312 312 312 312
325 325 325 328 329 331 333 331 330 331 334 333 331 329 330 329 329 328 328 328 327 328 326 325 325 325 324 324 323 323 322 319 312 310 309 309 308 307 306 307 307 308 308
324 324 324 324 324 328 331 333 333 334 335 334 332 331 330 329 328 328 327 327 327 327 325 324 324 323 323 322 319 312 310 309 309 308 307 306 305 304 304 304 304 305 306
324 323 323 324 324 324 326 333 334 336 336 334 332 331 330 329 328 328 327 326 325 324 323 322 323 322 313 310 309 308 307 306 305 305 304 303 303 303 304 305 305 304 304
324 324 323 323 324 324 323 331 335 336 336 334 333 331 331 330 330 329 327 326 325 324 324 319 311 310 309 308 307 306 304 304 303 303 302 302 304 305 304 302 300 299 298
324 324 324 323 323 324 323 329 335 336 337 336 334 333 332 330 331 329 327 326 325 322 310 310 309 309 307 304 303 303 303 303 302 301 301 301 300 299 299 298 298 297 296
323 324 324 323 323 323 324 330 335 336 337 337 335 335 332 332 330 328 327 326 318 310 310 310 309 305 303 303 302 302 302 301 301 300 300 300 299 299 298 297 296 296 295
323 324 323 322 322 323 324 330 335 335 336 336 335 333 332 332 329 327 326 316 310 310 311 309 306 303 302 302 301 301 299 299 298 298 298 297 296 296 296 296 295 294 294
324 323 322 322 323 323 325 329 335 335 335 335 333 332 330 329 327 325 316 310 310 311 309 307 304 302 301 300 298 297 296 297 299 298 297 296 296 295 294 293 294 294 294
324 323 322 322 322 322 325 331 334 335 334 332 331 330 327 326 324 316 310 311 311 311 309 306 303 301 299 297 296 295 294 294 294 296 295 295 294 293 293 293 293 293 293
323 322 321 321 321 323 328 332 334 335 333 331 331 329 324 319 317 310 310 311 311 310 307 304 302 299 297 295 295 294 293 292 291 291 292 292 292 292 292 292 292 292 291
322 322 321 321 321 322 328 332 334 334 332 331 327 325 320 316 311 310 310 311 310 308 305 302 299 296 295 294 294 293 292 291 290 289 290 291 291 291 291 290 291 290 290
321 321 321 321 322 323 325 330 332 333 332 328 324 320 318 311 309 310 310 310 308 306 303 299 296 295 294 294 293 292 290 289 289 288 288 288 288 288 289 289 290 289 289

GFSSE_850_thetae_042.txt.gz
Theta_e
331 343 342 342 341 339 338 336 338 338 337 336 335 334 334 333 333 331 331 330 327 325 327 321 315 317 326 328 332 330 330 328 321 315 315 316 316 315 318 317 314 322 315
331 340 342 342 340 338 332 334 335 335 334 334 333 333 332 332 332 331 328 325 316 318 330 330 334 320 334 336 333 330 329 327 322 318 314 312 312 313 314 313 312 324 314
331 341 342 342 340 335 333 327 327 325 322 321 321 326 329 332 331 329 322 319 314 314 327 333 337 338 338 336 331 330 330 325 322 316 313 322 316 313 315 316 317 318 316
338 342 343 341 339 337 332 325 321 318 317 316 316 317 320 326 322 316 316 316 316 314 318 331 333 334 334 332 329 330 325 320 316 311 323 322 320 313 313 314 319 324 327
332 342 343 341 340 337 332 327 324 321 317 314 314 319 317 316 318 316 317 316 314 312 312 325 331 331 331 331 330 327 320 315 312 316 319 316 315 317 311 311 318 326 329
342 341 329 339 339 336 333 329 326 323 318 314 321 326 325 322 326 320 320 315 312 312 312 312 317 323 324 321 318 314 313 315 320 328 327 326 318 317 313 311 314 316 319
342 341 329 339 338 335 333 332 329 326 321 314 320 326 329 330 328 327 327 319 314 314 314 313 312 313 313 313 316 323 326 319 325 329 329 326 324 323 323 322 321 321 320
331 336 336 339 337 339 335 333 331 328 323 315 318 325 329 330 330 329 328 323 315 316 316 317 317 317 318 319 319 320 320 322 327 328 327 326 325 325 325 324 325 325 325
332 330 337 338 337 336 337 336 332 330 326 318 317 326 329 330 331 331 328 324 316 316 317 317 318 319 320 322 323 323 324 324 326 329 327 328 327 327 327 327 328 330 329
331 330 337 340 339 339 339 338 335 331 329 322 315 320 328 329 331 329 328 320 318 319 318 320 320 322 323 323 324 324 326 326 330 328 329 327 326 327 327 327 327 326 328
334 333 336 340 340 342 342 339 338 333 331 325 319 317 320 329 330 330 326 319 320 322 322 323 323 324 325 326 326 327 327 329 329 328 328 326 326 326 326 325 325 325 325
335 335 335 339 341 340 338 338 337 336 332 331 324 318 328 327 326 324 321 323 322 324 324 325 325 326 327 329 329 326 326 325 324 324 324 323 324 324 322 322 320 318 318
338 339 334 338 334 338 338 338 336 336 336 334 330 325 328 320 316 323 325 324 324 325 327 326 327 328 326 325 325 325 324 324 323 323 322 320 316 314 312 312 312 313 313
335 336 331 334 331 334 334 335 337 336 334 334 329 323 325 326 325 328 327 325 325 326 328 328 327 325 325 324 324 324 323 323 322 319 313 310 310 309 309 310 310 310 310
332 334 332 330 330 330 333 333 333 335 334 334 330 324 329 329 330 329 327 328 327 327 327 325 325 325 324 324 323 323 321 315 310 309 308 308 307 306 305 306 306 305 305
329 329 329 325 327 327 329 332 332 335 336 335 332 329 330 329 329 328 327 327 326 327 326 325 324 323 323 322 316 310 310 309 308 307 305 305 304 303 303 304 304 304 305
324 324 323 323 324 324 325 330 333 337 337 335 333 331 331 329 328 328 328 327 326 325 324 323 323 323 314 309 309 308 307 305 304 304 303 302 302 302 303 304 304 303 301
324 324 323 323 323 323 324 328 335 337 337 336 333 331 330 329 329 329 328 327 326 325 324 323 314 310 309 308 304 303 303 303 302 302 302 302 302 303 302 301 300 299 298
324 324 324 324 323 323 324 335 338 338 337 336 334 332 331 330 330 329 329 327 326 325 321 310 310 310 308 305 303 302 302 302 301 301 301 301 300 300 299 299 299 298 297
322 322 324 324 324 324 323 334 336 338 337 335 334 333 332 332 331 331 328 326 326 319 310 310 311 310 306 303 302 301 301 300 300 300 300 300 299 297 297 297 296 296 295
320 320 324 324 324 323 323 333 335 333 335 336 336 334 334 333 331 330 326 326 320 310 310 312 311 308 304 302 301 300 299 299 298 297 298 298 298 296 296 295 295 294 295
322 323 323 324 324 323 324 327 331 333 334 336 336 333 334 332 331 329 324 320 310 310 312 311 310 307 303 301 298 298 300 299 299 298 297 296 295 295 295 294 294 294 294
322 323 324 324 324 323 325 329 328 332 334 335 334 333 331 331 329 326 319 310 310 311 312 311 308 304 301 299 297 296 299 299 296 296 296 295 294 294 293 294 294 294 293
321 323 324 323 323 322 323 325 327 331 335 334 332 331 329 328 326 319 311 310 311 311 311 309 306 302 299 296 295 295 294 293 295 295 295 294 293 293 292 292 293 293 292
319 321 322 322 321 322 322 324 329 332 333 332 330 328 327 325 316 313 310 310 310 311 310 307 304 299 296 295 295 294 293 292 292 293 293 294 293 292 291 290 290 290 290
318 318 320 321 321 321 322 326 330 331 333 332 329 326 325 317 313 309 309 310 310 309 308 305 301 297 295 295 294 293 292 291 292 291 291 292 291 292 291 290 290 289 289

GFSSE_850_thetae_045.txt.gz
Theta_e
342 338 343 341 341 340 338 334 337 338 338 337 337 336 335 334 333 332 332 332 330 325 327 323 318 319 329 333 332 330 329 328 322 318 314 313 314 313 316 317 315 326 324
344 334 341 342 340 339 337 334 337 337 336 335 335 334 334 332 332 331 328 326 321 319 328 333 329 316 334 334 332 330 327 327 322 318 314 317 316 313 314 314 314 324 320
346 343 343 340 340 338 331 333 334 333 332 330 330 331 332 333 332 330 321 316 312 315 326 335 333 330 337 337 333 330 328 324 318 314 316 326 325 318 314 315 316 317 317
344 345 344 340 339 335 331 326 323 321 319 318 318 323 330 332 329 317 314 314 314 313 324 334 336 337 336 334 332 329 328 321 313 312 325 323 321 320 311 312 314 321 326
344 346 343 340 339 336 330 323 322 320 317 316 316 317 319 319 314 316 316 314 312 312 315 331 332 332 333 331 328 328 320 313 314 324 327 327 319 325 313 310 312 324 326
344 345 342 340 339 338 331 327 326 322 316 316 322 320 320 326 322 320 318 314 313 312 312 326 329 330 327 330 324 314 312 315 325 330 330 329 328 322 321 315 313 313 316
343 346 340 339 339 336 332 329 327 324 317 316 325 327 326 327 324 327 324 317 314 314 312 311 312 313 312 312 312 314 316 319 323 331 330 330 330 324 324 323 324 324 324
342 344 339 338 339 335 333 332 330 326 320 314 324 328 330 330 331 327 327 320 315 315 316 316 317 317 317 318 319 320 320 322 328 330 331 330 327 326 326 325 327 329 330
342 342 343 339 338 338 335 334 332 329 324 315 322 327 330 330 331 330 329 323 316 316 317 317 318 319 320 322 323 323 323 324 325 331 330 331 328 326 327 328 329 328 327
342 341 342 342 340 338 337 336 334 331 328 320 319 325 328 330 330 332 329 322 317 318 317 320 320 322 322 323 324 324 324 327 329 329 329 329 326 326 326 326 324 324 324
342 341 341 342 342 342 340 338 337 333 330 324 317 319 325 331 332 329 327 321 319 320 321 322 323 324 324 326 326 326 326 329 328 328 328 327 324 326 326 325 325 325 322
341 341 340 341 342 341 340 340 338 337 331 328 322 317 324 330 332 334 326 320 321 322 323 324 325 326 327 329 328 326 325 324 324 323 322 321 321 320 318 315 314 313 313
340 341 341 342 342 341 342 340 339 342 336 336 331 330 330 328 326 321 324 323 324 324 328 327 328 329 326 325 324 323 322 321 320 320 319 317 313 311 311 311 311 311 312
337 339 341 341 342 341 341 341 339 339 338 336 334 330 330 327 325 328 329 329 329 329 330 330 328 326 325 325 324 323 322 322 320 316 311 310 309 308 308 309 309 309 309
333 336 339 340 341 342 341 341 340 339 338 336 336 331 329 330 330 330 329 329 329 329 328 326 325 325 324 322 321 319 315 311 310 309 308 307 307 306 306 306 306 305 305
332 333 336 339 340 341 340 334 338 339 337 336 336 332 331 331 332 330 330 328 327 326 327 326 324 324 322 320 314 309 309 307 307 306 305 305 304 304 303 303 303 304 304
327 331 331 335 337 339 340 334 333 339 338 336 336 333 332 332 329 328 327 327 326 326 325 325 324 323 318 310 310 307 305 304 303 303 303 304 303 302 302 303 304 304 303
327 326 326 325 332 337 339 339 331 339 338 336 335 335 332 330 329 328 328 327 326 326 325 324 321 311 311 309 306 304 303 303 302 302 302 302 302 301 302 301 300 300 300
326 326 326 324 324 328 336 339 338 339 338 336 336 336 331 330 329 328 328 328 326 326 325 320 311 311 309 307 304 303 302 302 302 301 302 301 301 300 300 298 298 298 298
324 326 326 325 324 324 330 337 338 338 337 336 337 334 334 330 330 329 329 329 326 326 322 311 311 311 309 307 304 302 302 300 300 300 300 300 299 299 298 297 296 295 295
322 324 325 325 325 326 329 334 337 337 336 337 336 336 332 331 331 330 330 328 326 324 311 311 312 310 309 306 303 301 301 301 299 300 299 299 299 297 296 295 295 295 295
322 324 323 324 325 326 329 331 336 336 335 336 336 334 331 332 332 331 330 328 325 311 310 312 311 310 309 305 301 301 302 301 301 300 300 298 296 296 295 295 295 295 294
321 322 323 323 325 326 329 333 335 335 335 335 334 332 333 332 331 330 327 325 317 310 311 311 311 309 306 303 299 298 300 302 300 298 298 297 296 296 295 294 295 294 294
318 322 323 324 326 329 331 331 331 329 330 329 331 332 332 331 330 328 326 320 310 310 311 311 310 309 304 300 298 297 296 295 296 296 297 296 296 295 294 294 294 294 293
315 319 323 324 326 330 329 331 328 328 325 328 331 331 331 330 329 326 321 313 309 310 311 310 309 307 302 298 297 296 295 294 294 294 295 295 294 294 293 293 292 292 292
314 317 323 324 327 329 329 326 325 326 325 327 331 330 329 328 326 318 313 310 309 310 310 309 307 304 299 297 296 295 294 293 293 293 293 293 292 293 293 292 292 292 291

GFSSE_850_thetae_048.txt.gz
Theta_e
342 333 341 340 339 338 336 337 338 338 338 338 337 336 335 334 334 333 333 332 331 327 325 328 322 321 332 335 330 329 328 325 321 317 313 313 312 312 313 314 315 327 327
338 336 343 340 339 339 337 333 335 336 337 336 336 335 334 333 332 331 326 327 322 318 325 334 316 319 336 335 332 330 326 324 318 314 313 322 323 316 313 313 314 316 321
339 333 340 337 340 338 332 332 334 335 334 333 333 333 333 332 331 328 318 314 311 313 325 333 327 324 337 335 333 330 328 323 314 314 324 324 323 320 313 312 313 316 316
339 337 339 338 337 333 326 328 329 329 326 324 324 326 332 332 330 318 312 312 312 313 329 332 332 335 336 335 333 331 323 317 312 320 319 319 322 323 314 310 312 316 321
344 340 336 333 333 331 324 320 318 317 317 316 317 327 329 328 313 314 313 312 311 311 326 332 334 333 334 333 331 325 317 312 326 327 329 328 322 322 319 312 311 313 316
346 346 337 338 335 331 324 322 321 318 315 315 317 316 318 315 317 317 313 312 311 311 314 329 328 329 327 326 326 314 311 316 329 330 330 330 327 324 323 322 323 321 322
346 346 343 338 334 332 327 325 323 319 314 320 316 318 323 322 324 323 318 314 313 311 311 320 320 321 319 313 312 314 317 322 329 329 330 328 328 325 325 325 326 328 330
345 346 345 338 335 332 329 328 325 321 315 321 322 324 329 328 326 326 323 316 315 315 315 315 315 315 316 317 319 320 321 322 329 330 329 329 329 326 327 327 329 329 328
344 344 338 336 337 332 329 328 327 324 318 316 324 328 330 330 331 328 327 318 315 316 317 317 317 318 319 321 322 322 323 324 329 330 326 329 329 326 326 326 327 324 324
342 343 340 336 337 336 331 331 329 327 323 315 321 325 329 330 331 331 330 319 316 317 317 318 319 320 322 323 323 323 326 328 328 328 328 327 328 325 325 325 325 324 325
342 341 343 340 337 337 336 333 332 329 327 320 317 321 327 329 330 331 328 319 317 318 319 321 322 322 326 328 328 325 327 327 327 326 326 326 323 320 320 320 319 317 316
342 341 341 343 340 339 339 338 336 334 329 326 319 318 325 332 332 330 330 323 320 320 322 323 324 326 328 328 326 324 324 323 323 322 321 319 319 316 314 312 312 312 312
341 341 340 342 342 340 340 339 338 337 334 328 328 319 326 330 332 331 327 320 322 323 327 327 329 328 326 326 324 324 320 320 320 320 319 316 312 310 310 310 310 310 310
339 341 340 341 341 342 340 339 339 338 338 334 333 331 330 329 326 324 326 328 326 328 329 328 328 327 325 324 323 323 322 320 316 314 310 310 309 308 307 308 308 307 307
337 338 341 341 342 341 341 338 338 337 337 336 335 331 330 328 325 328 329 328 329 329 328 328 326 325 324 322 321 317 311 310 309 308 307 307 306 306 305 305 305 304 304
332 337 338 339 341 341 342 342 339 339 337 337 335 334 329 329 329 330 329 329 329 327 326 326 326 325 322 318 313 310 309 307 306 304 304 304 304 304 303 303 303 303 304
330 332 335 338 339 341 339 339 340 340 338 337 335 334 330 331 331 331 330 328 327 326 326 325 325 324 317 311 311 308 306 304 303 303 303 303 303 303 302 303 303 302 301
327 328 332 334 337 339 341 337 333 340 339 336 335 334 331 332 332 330 328 327 326 326 326 324 323 316 311 312 310 307 305 304 303 302 302 302 302 302 302 301 301 299 298
326 327 327 331 332 336 339 339 335 331 340 336 335 334 333 332 330 329 327 327 327 326 325 324 317 311 312 312 310 307 305 303 302 302 301 302 301 300 300 299 298 298 297
323 326 327 326 326 328 337 338 337 333 337 336 336 334 333 332 330 329 328 328 327 326 325 322 311 312 312 311 309 305 304 302 300 300 300 300 299 299 299 298 297 297 296
321 323 327 326 326 326 329 336 338 335 340 336 335 335 335 332 331 329 328 328 328 326 325 312 311 313 312 311 308 304 302 302 301 301 300 300 299 298 298 297 296 296 296
321 321 322 325 326 325 324 328 336 337 337 336 335 335 335 333 332 330 329 329 329 326 321 311 312 312 311 309 306 304 302 301 301 302 300 299 299 297 296 296 296 295 295
320 321 322 322 325 325 325 327 335 337 336 336 336 335 334 333 332 330 330 330 329 326 314 311 312 312 311 309 305 302 300 301 301 299 298 298 297 297 297 296 295 295 294
316 319 321 322 323 324 325 328 333 335 335 336 334 334 334 331 330 329 329 329 328 322 311 311 311 311 310 307 304 301 298 297 297 297 297 297 297 296 296 295 294 294 293
315 316 318 320 323 323 326 329 332 334 334 332 333 334 332 328 329 326 327 327 324 314 310 310 311 311 309 305 302 299 298 297 295 295 295 296 295 295 294 293 293 292 292
314 314 315 319 322 323 327 331 333 330 331 332 333 332 331 328 326 325 325 325 317 311 310 310 310 309 307 303 300 298 297 296 294 294 293 293 293 294 292 292 292 292 292

GFSSE_850_thetae_051.txt.gz
Theta_e
345 340 338 335 336 337 337 338 337 338 339 339 338 337 336 335 335 334 333 333 331 329 326 325 325 325 334 332 330 326 325 320 317 314 312 314 313 312 312 313 315 318 322
342 339 339 336 334 334 336 338 337 337 336 336 336 335 335 334 332 330 327 326 327 321 329 325 319 322 335 335 331 327 321 317 314 312 318 320 319 317 313 313 313 314 317
335 340 340 340 334 332 333 331 334 335 335 337 336 335 332 331 329 326 315 314 313 314 327 328 315 333 336 335 331 330 326 317 311 318 320 318 317 319 312 311 312 315 315
338 339 338 337 333 327 327 329 332 331 330 330 334 332 332 330 327 314 311 311 311 318 329 330 321 335 334 332 331 331 319 312 316 319 323 322 319 319 314 310 311 313 317
336 337 336 335 330 323 321 322 322 320 318 317 319 329 330 328 313 313 312 311 311 321 330 331 333 332 332 331 332 327 313 318 326 328 328 328 323 323 321 315 314 315 317
338 337 336 333 326 320 317 316 315 314 313 314 315 325 323 314 314 313 311 311 311 312 327 329 333 332 333 330 328 314 312 324 329 328 329 328 327 324 324 328 323 326 326
342 339 335 332 328 322 319 319 317 314 314 316 313 315 315 316 317 315 312 312 311 311 317 322 321 321 320 315 312 316 318 327 328 329 329 327 327 326 326 329 328 329 329
343 345 340 335 328 325 322 321 319 314 316 315 315 319 318 320 320 318 314 313 314 313 312 312 313 313 314 317 319 320 321 326 329 329 328 328 328 327 327 328 329 328 327
345 345 345 337 328 328 325 324 321 317 314 319 317 324 330 330 327 324 317 314 315 316 316 316 317 317 319 321 321 322 323 328 329 328 327 327 327 327 325 324 324 324 323
344 344 343 341 333 329 327 326 324 320 315 318 323 327 328 330 332 329 324 316 316 316 317 318 319 320 321 321 322 323 327 328 327 326 327 326 326 326 321 322 323 323 323
343 343 341 334 334 332 328 329 327 325 321 316 319 325 328 329 330 331 327 317 317 317 318 320 321 322 325 326 325 327 327 326 326 325 325 325 324 320 318 317 315 314 313
342 342 341 340 334 334 335 332 330 328 325 320 317 321 326 328 330 329 326 319 318 319 320 322 323 325 326 327 325 324 324 323 323 323 321 319 318 315 313 312 312 312 312
341 341 340 341 341 337 332 335 334 333 329 326 319 318 325 330 331 329 327 320 320 321 323 325 325 326 325 326 325 324 322 321 320 320 319 317 313 310 312 310 310 310 310
341 341 339 341 342 341 339 335 337 335 335 331 326 317 327 328 331 330 326 322 323 325 328 327 326 327 326 325 324 323 321 320 316 312 310 309 308 307 308 307 307 306 306
340 340 340 339 341 341 341 338 338 337 336 335 329 328 327 328 329 325 324 327 325 328 328 327 328 326 324 323 320 317 312 310 309 307 306 305 305 305 305 305 304 304 303
336 339 340 340 340 341 341 340 339 336 335 335 334 332 330 329 328 323 327 328 327 328 328 328 327 325 324 320 317 311 310 308 305 304 304 303 303 303 303 303 302 303 303
330 333 338 340 340 341 340 341 339 336 337 337 335 333 333 329 327 328 329 328 328 328 327 326 326 325 321 314 311 310 308 306 304 303 303 303 303 303 302 302 302 301 301
327 327 336 339 338 340 341 340 339 338 338 338 335 334 333 329 330 330 330 329 329 327 326 325 324 324 316 312 311 310 308 305 303 303 303 302 302 302 301 301 300 300 299
326 326 327 337 337 337 340 340 340 339 338 337 336 334 333 330 330 331 331 329 327 326 326 325 323 315 311 312 312 310 308 304 302 302 301 301 301 300 300 299 299 298 298
323 325 325 327 335 335 336 338 339 336 338 337 336 334 333 332 331 332 331 328 327 327 326 325 322 311 312 313 312 311 307 303 302 301 301 300 300 300 299 298 298 297 297
320 320 322 326 327 335 336 338 338 337 336 335 336 334 333 332 332 331 330 328 327 327 326 325 318 311 313 313 312 309 306 304 302 302 301 301 300 299 298 298 297 297 296
320 320 320 322 326 329 335 334 336 335 335 333 334 334 333 333 332 332 330 328 327 328 327 326 315 311 313 313 312 309 304 304 303 302 301 299 299 299 297 297 297 296 296
318 320 320 321 324 326 326 327 329 333 335 332 333 334 333 333 333 332 331 329 328 328 327 325 313 311 312 313 311 309 303 302 301 299 299 299 299 298 297 297 296 295 294
316 317 319 320 321 322 326 326 326 330 331 334 333 335 334 333 333 332 331 329 328 328 326 320 312 312 312 312 311 307 302 300 299 298 298 297 298 297 296 296 295 294 293
315 315 315 317 319 320 323 325 325 327 329 330 332 333 333 333 332 333 331 328 327 326 320 313 311 311 311 311 308 304 301 299 298 297 297 297 296 296 295 295 294 293 292
314 314 314 314 317 318 321 324 325 325 328 330 332 330 332 332 331 330 329 326 325 324 315 311 311 311 310 309 305 302 299 298 296 295 295 295 295 296 295 294 293 292 291

GFSSE_850_thetae_054.txt.gz
Theta_e
343 339 344 342 340 339 338 339 339 340 341 339 339 339 339 337 336 335 334 332 332 331 329 328 328 331 332 330 330 321 323 319 316 314 312 313 312 311 312 312 314 316 320
341 339 341 342 340 340 339 336 338 337 337 337 336 336 335 334 333 331 328 327 327 325 320 322 323 330 334 332 328 325 319 314 312 313 315 317 315 313 311 312 313 313 315
340 337 338 341 340 339 337 335 335 335 333 332 333 332 331 330 326 323 316 316 319 332 325 317 319 335 336 332 330 330 318 312 314 317 315 314 317 314 311 310 313 314 314
337 336 336 338 332 329 326 329 331 330 329 333 333 332 326 326 324 315 310 310 311 326 330 316 332 335 333 332 330 330 315 313 318 320 321 318 319 320 312 310 312 313 317
337 334 336 336 332 329 325 327 327 326 324 329 332 327 325 324 313 311 311 311 313 330 331 323 334 333 333 330 331 329 312 322 324 325 323 324 323 322 323 317 318 319 320
340 334 335 336 334 324 323 323 324 320 318 319 322 322 324 314 312 311 311 311 314 326 329 332 332 332 331 331 328 314 316 325 327 327 328 326 325 324 324 325 326 329 329
336 335 335 336 330 321 319 316 315 314 314 314 315 324 320 313 313 312 311 311 311 323 326 330 331 331 330 318 312 313 320 328 327 327 327 327 327 328 330 329 329 330 329
336 335 335 333 328 321 318 317 315 315 316 315 314 315 313 316 315 313 313 312 311 313 321 320 316 314 313 315 318 319 326 328 328 328 327 327 327 327 325 325 327 328 326
340 336 334 332 329 323 321 319 316 315 316 316 315 314 316 319 319 316 314 314 315 315 314 315 315 317 319 320 321 322 325 329 328 327 327 326 326 327 325 323 324 323 324
344 343 343 340 330 327 323 323 319 315 316 317 317 319 321 324 326 322 315 315 316 316 317 317 318 320 320 321 322 326 328 328 326 326 326 326 326 325 322 319 321 324 325
345 345 344 343 338 328 326 325 323 318 315 317 319 323 327 329 331 328 321 316 316 316 318 319 320 321 322 323 324 327 326 326 326 326 325 325 324 321 318 316 317 315 314
344 344 343 341 337 332 328 327 326 323 318 317 319 323 326 328 329 330 325 316 317 318 320 321 322 324 325 324 325 325 325 324 323 323 323 320 319 317 313 313 312 313 312
342 343 342 341 337 332 331 328 328 326 324 319 317 320 324 325 328 328 326 320 318 320 321 322 323 324 325 326 325 324 323 320 320 320 319 318 316 310 315 311 310 310 309
341 340 341 340 339 338 335 333 330 329 328 326 319 318 321 324 327 326 326 320 320 321 324 325 326 326 325 324 324 323 322 320 318 316 313 309 308 308 309 307 307 306 305
338 339 339 339 339 339 339 336 333 335 334 332 327 319 320 323 326 327 327 322 322 324 326 326 326 326 326 324 323 320 317 313 310 308 307 305 304 305 305 305 304 303 303
339 339 339 339 339 339 339 339 337 335 333 333 329 325 319 323 327 327 326 324 326 326 327 327 327 327 325 324 320 316 312 310 307 305 304 303 303 303 303 303 302 302 303
334 339 340 340 339 339 339 340 339 338 336 334 333 329 328 327 327 327 322 325 327 326 327 327 327 327 325 322 317 311 309 308 306 304 303 303 303 303 302 302 302 301 300
324 327 336 337 339 339 339 339 337 338 337 336 335 335 331 330 328 328 325 327 328 328 328 327 326 325 324 320 311 311 309 306 305 303 303 302 302 302 301 301 300 299 299
324 323 324 335 336 337 338 339 336 337 337 335 337 336 333 332 331 328 328 329 328 328 328 326 325 323 321 312 311 311 309 306 304 303 302 301 301 301 300 300 299 298 297
324 324 323 323 333 336 336 336 337 335 337 336 337 336 334 332 332 329 329 329 329 328 328 325 325 323 315 311 312 311 309 306 304 302 302 301 300 300 299 299 298 297 297
320 322 321 322 322 331 334 335 335 336 337 337 335 336 335 333 332 330 330 330 330 329 326 326 325 324 311 312 312 311 309 306 304 303 302 301 300 300 299 298 298 297 297
319 319 319 320 320 321 331 333 334 332 335 332 332 334 335 333 332 331 330 331 331 329 326 326 325 324 311 312 312 310 308 306 305 303 302 301 300 299 299 298 297 297 296
318 319 319 319 319 320 322 330 333 333 332 332 331 332 333 334 333 331 331 331 331 329 327 327 326 322 311 312 312 311 308 306 304 302 300 299 300 300 298 297 296 296 295
315 317 318 318 320 320 321 326 330 333 331 330 330 330 332 332 333 331 331 331 331 329 327 327 325 317 311 312 312 311 308 306 302 300 299 299 299 298 297 296 295 294 293
315 315 315 315 316 318 320 322 329 331 331 328 328 329 329 332 332 330 329 331 331 329 327 326 323 317 311 311 311 309 306 305 302 299 298 298 297 296 296 295 295 294 293
314 314 315 315 315 315 316 319 320 325 329 329 328 327 329 329 331 330 328 330 330 329 327 325 322 314 310 310 309 308 305 302 300 298 297 296 296 296 296 295 294 293 292

GFSSE_850_thetae_057.txt.gz
Theta_e
338 342 343 343 342 339 339 340 339 340 340 339 339 340 340 339 338 338 336 334 332 332 331 330 331 328 328 330 326 321 322 320 317 315 313 312 312 311 311 312 314 317 318
336 344 343 341 341 338 339 338 339 340 341 339 339 339 338 337 335 333 331 329 328 328 327 327 330 331 331 329 321 326 316 313 312 313 314 315 314 311 311 312 313 314 313
338 343 343 341 341 341 339 339 340 340 341 334 333 333 333 332 330 326 322 316 322 325 334 323 329 331 334 330 329 328 315 312 314 315 314 316 315 312 310 311 312 313 314
338 338 342 342 339 341 339 338 338 334 331 331 330 329 326 325 323 319 312 311 317 327 326 321 327 334 335 331 330 328 312 314 315 320 317 320 320 317 311 312 313 316 318
338 333 335 338 341 338 333 333 332 332 329 329 327 325 324 322 317 310 310 310 330 331 329 329 336 333 331 330 330 325 316 322 321 322 323 323 323 324 325 321 323 323 323
336 333 331 332 331 330 327 328 329 332 338 338 330 320 323 319 311 311 311 311 323 331 328 336 333 332 332 330 327 313 321 325 326 324 325 324 326 327 328 328 330 332 331
338 334 332 328 328 327 326 327 325 326 325 330 319 319 319 312 312 311 311 311 318 324 329 330 331 331 331 323 312 314 324 326 326 326 326 325 329 330 331 330 328 327 328
338 334 333 331 328 323 323 322 319 316 315 315 315 318 315 312 312 312 311 311 313 321 325 328 327 324 316 314 316 317 326 325 326 326 325 325 327 327 324 323 323 325 324
338 333 333 329 326 321 318 317 315 315 316 316 314 314 313 314 313 313 313 312 312 315 319 315 314 314 317 319 319 322 324 326 326 326 326 326 326 324 323 319 321 325 326
340 336 332 327 326 322 319 319 316 315 316 316 315 314 314 316 316 314 314 315 315 315 315 316 317 319 320 321 321 322 324 327 326 325 326 325 325 325 321 317 321 324 322
342 340 338 338 335 324 322 321 319 315 316 316 317 317 317 319 321 318 315 315 316 316 317 318 319 320 321 322 322 325 326 326 326 325 325 324 323 320 318 315 315 314 313
342 342 342 342 341 336 326 324 322 318 316 317 318 321 323 327 328 324 319 316 316 317 318 319 320 322 324 324 324 325 325 324 323 323 323 321 319 318 316 312 312 312 311
339 342 342 342 341 338 332 326 324 322 318 318 319 323 324 326 327 329 325 316 317 318 319 320 322 324 325 325 324 324 323 322 320 320 319 318 317 317 315 309 309 308 308
339 340 341 341 341 338 334 329 326 325 323 320 318 319 323 324 326 328 326 321 318 319 321 322 323 324 325 325 325 324 323 321 319 317 314 310 308 310 310 307 306 306 305
339 340 340 340 340 338 336 333 331 328 327 325 322 318 320 322 324 327 325 323 320 321 322 324 325 325 325 325 324 322 319 316 312 309 307 305 304 304 305 305 304 304 303
340 341 339 339 339 339 338 338 336 333 331 331 329 324 319 320 323 327 327 326 322 322 324 326 326 326 326 325 323 320 317 312 309 307 305 304 303 303 303 303 303 302 302
339 339 339 338 339 339 338 339 338 336 334 333 332 331 326 320 322 326 327 326 325 325 327 327 327 327 326 325 323 318 312 310 308 306 304 303 303 303 302 302 302 301 300
328 333 337 339 339 340 339 338 338 336 337 336 334 332 329 325 322 326 327 324 324 327 327 327 327 326 326 324 323 314 310 309 307 305 303 303 302 302 301 301 300 299 299
322 322 323 327 338 339 338 338 337 337 337 337 336 333 332 330 328 328 327 326 326 328 327 327 327 326 325 323 321 311 310 310 307 304 303 302 302 301 300 300 299 298 298
321 322 322 321 322 325 336 337 336 337 337 337 337 334 333 333 331 331 329 327 327 328 328 327 327 325 324 320 312 311 310 309 307 304 302 302 301 301 300 300 299 298 298
318 321 322 321 320 320 326 337 336 335 336 337 336 335 334 335 333 331 331 328 328 329 328 328 327 325 324 320 310 311 310 308 306 304 303 302 301 301 300 299 299 298 297
318 318 320 320 320 319 320 326 333 334 334 333 334 335 335 334 333 332 331 329 329 329 329 329 328 325 324 319 310 311 308 307 306 304 303 302 301 300 300 299 298 297 297
318 318 318 319 319 319 319 319 326 333 334 333 332 332 332 332 333 333 331 329 330 330 330 330 328 326 325 320 311 311 309 309 305 304 303 302 301 300 300 299 297 296 296
314 317 317 318 317 317 318 319 320 322 328 331 332 330 331 330 331 331 330 329 329 330 330 329 327 326 325 319 311 311 311 310 306 303 302 301 300 300 300 298 297 295 295
314 313 314 315 315 316 316 319 319 320 326 331 330 331 329 329 329 329 329 329 329 330 330 328 326 325 325 317 311 311 310 309 307 303 300 300 299 298 297 296 295 295 294
314 314 314 314 315 315 315 315 316 320 322 329 331 332 331 329 328 328 328 327 327 328 329 329 325 323 322 317 313 309 309 307 307 303 300 299 297 297 296 295 295 294 293

GFSSE_850_thetae_060.txt.gz
Theta_e
335 342 344 342 341 338 338 338 339 339 339 340 341 341 340 340 339 337 337 335 333 332 331 331 329 324 327 328 321 318 321 320 318 315 314 313 312 311 311 312 314 316 314
329 342 345 342 341 339 339 339 340 341 342 340 339 339 339 339 338 337 334 332 330 329 329 329 331 329 330 318 325 319 315 313 313 313 314 314 312 310 311 311 312 312 312
331 340 342 344 340 337 339 339 340 339 339 340 337 337 337 336 333 331 327 322 322 324 329 329 333 330 330 329 327 324 312 313 315 314 315 315 312 310 310 311 312 313 314
333 340 341 341 339 339 341 340 340 340 340 340 334 333 332 331 327 322 315 313 319 330 326 325 330 334 332 330 329 325 311 314 316 316 317 318 318 315 314 315 318 319 319
335 334 339 340 341 341 340 340 339 339 339 339 335 330 325 322 320 311 310 311 330 326 318 323 335 336 331 330 329 323 314 317 319 320 321 321 322 327 322 326 328 326 327
337 335 339 341 338 341 339 338 339 340 339 335 334 326 322 318 311 311 311 314 332 328 330 336 336 331 331 329 327 315 318 323 323 323 323 326 329 331 331 330 331 332 333
337 334 337 339 339 336 337 333 338 337 337 337 333 322 319 312 311 311 311 312 324 327 334 334 332 331 330 328 314 313 323 325 325 325 324 329 330 331 329 327 325 326 326
336 335 335 337 332 329 329 334 337 332 331 334 323 318 317 312 311 311 311 311 317 326 328 331 330 330 328 313 314 320 326 326 326 326 324 325 328 326 324 321 322 323 322
339 335 335 332 326 325 322 324 323 319 318 318 316 317 316 313 312 312 311 311 314 319 323 324 322 316 313 317 318 321 326 326 326 325 325 325 326 324 322 320 324 327 325
340 337 334 332 327 321 318 318 316 315 315 316 315 316 314 314 313 313 313 313 313 315 315 314 314 317 319 319 320 323 324 326 325 325 325 325 324 322 319 319 318 320 317
340 336 335 332 326 323 318 318 317 316 315 316 315 314 314 317 316 314 314 315 315 315 316 316 318 320 320 321 322 323 325 326 325 325 325 324 322 319 319 315 314 313 312
339 338 335 332 334 332 322 320 319 317 315 316 316 316 316 319 321 318 315 315 316 316 317 318 320 321 321 322 322 324 325 325 324 323 322 320 318 321 317 311 311 311 309
340 340 339 339 340 339 334 326 322 321 317 316 317 318 319 324 327 326 321 316 316 317 318 319 321 322 324 323 324 324 323 322 321 320 318 317 316 318 311 308 307 306 306
336 338 340 340 341 340 338 334 326 324 321 318 318 319 322 324 326 328 326 317 317 318 319 321 322 325 325 325 325 324 323 322 319 317 314 310 309 313 309 306 305 305 304
337 338 339 339 339 339 338 336 331 327 325 323 320 319 320 322 324 325 327 322 319 319 320 321 323 324 325 324 324 323 322 318 315 310 308 306 305 305 305 304 304 303 303
337 338 338 339 339 338 338 337 335 332 330 327 325 322 319 320 322 324 327 325 323 320 321 323 325 325 325 325 324 323 320 317 311 309 306 304 303 303 303 303 303 302 302
338 338 338 338 339 338 338 337 336 336 336 332 330 328 326 321 320 322 326 326 325 321 322 324 326 326 326 326 324 323 319 313 310 307 305 304 303 303 303 302 302 301 300
330 338 339 340 339 338 338 337 337 336 336 336 333 333 332 331 325 320 325 327 327 325 325 326 327 327 326 326 324 323 318 310 309 307 304 303 303 302 302 301 300 300 299
319 322 331 336 337 338 339 339 338 336 336 336 335 334 334 332 329 321 323 327 327 324 326 326 327 327 326 325 323 322 314 310 309 306 304 303 302 302 301 300 300 299 299
318 318 320 321 323 324 329 336 336 335 336 336 334 335 334 333 332 328 324 327 327 323 326 327 327 327 326 324 322 321 310 310 309 307 304 303 302 302 301 301 300 299 299
317 317 318 319 321 321 322 325 330 334 335 334 334 335 333 334 333 332 329 329 328 326 326 327 327 327 326 324 321 316 310 310 309 307 304 303 302 302 301 301 300 299 299
317 317 318 318 318 320 320 321 321 323 331 332 333 332 332 333 332 331 331 330 329 327 327 328 328 327 326 323 322 315 309 309 309 308 305 303 303 302 301 301 300 300 298
314 316 317 318 317 318 318 319 319 321 326 333 332 332 332 331 332 331 331 330 329 329 328 328 328 328 327 325 323 315 310 311 308 307 305 304 303 303 301 300 300 299 298
313 313 314 316 317 316 317 317 318 319 320 321 324 328 331 331 330 330 331 329 328 330 329 329 329 328 327 324 323 319 311 310 308 307 306 305 303 302 301 300 300 298 297
313 313 313 314 316 317 316 316 317 318 320 322 322 328 330 330 330 329 328 328 327 329 329 329 329 328 327 325 324 321 311 310 309 307 304 305 302 301 300 299 298 297 296
313 313 313 313 313 314 315 315 315 315 317 319 320 323 329 329 330 330 329 327 327 327 327 328 328 327 327 325 324 317 310 311 309 306 304 303 301 300 298 297 296 295 295

GFSSE_850_thetae_063.txt.gz
Theta_e
331 335 340 341 337 336 338 338 338 340 341 340 340 340 340 339 339 337 336 336 335 332 330 330 327 322 325 326 321 320 321 320 318 317 316 313 311 311 311 312 314 314 316
329 339 340 340 336 336 338 336 338 340 340 341 340 341 340 339 339 338 337 335 331 329 328 332 328 328 327 321 321 314 313 314 314 313 312 313 311 310 311 312 312 312 311
331 336 344 342 340 339 340 340 340 341 340 343 339 339 339 338 337 336 332 327 324 325 325 333 332 330 329 327 326 316 312 313 313 314 315 313 311 310 311 312 314 314 316
332 339 343 342 339 338 339 340 340 338 339 339 339 336 336 335 332 327 321 316 317 326 325 332 336 333 329 329 328 316 312 314 315 317 319 318 316 318 319 320 320 319 320
333 334 344 342 338 339 340 339 339 340 339 338 335 328 326 327 322 317 311 314 319 326 324 332 334 336 330 330 327 314 316 318 319 320 321 322 323 325 329 332 330 328 332
333 335 341 339 337 340 341 339 339 338 338 337 336 329 322 320 313 310 311 331 326 319 324 331 336 335 330 330 327 313 320 322 322 323 325 329 331 332 331 330 329 333 332
336 337 339 340 340 340 339 339 340 339 338 337 334 324 320 314 311 311 312 331 329 327 333 335 333 329 331 329 317 315 323 323 324 323 328 330 331 329 328 325 323 327 329
337 336 338 341 338 339 337 337 338 339 338 338 331 326 320 312 311 311 311 315 324 327 334 333 331 331 330 323 312 319 324 324 324 323 324 327 328 324 322 318 324 324 322
337 334 336 336 336 331 331 341 339 339 337 338 332 325 320 312 312 311 311 315 321 326 329 330 329 328 321 314 315 320 324 325 324 324 323 324 325 322 320 324 326 325 322
338 335 334 334 328 327 322 323 328 327 329 334 333 321 320 313 312 312 311 313 318 321 323 322 317 314 315 318 320 323 325 326 325 324 324 324 323 320 320 318 318 314 314
338 337 335 334 330 326 321 320 320 318 317 318 325 316 317 315 314 313 313 313 315 318 316 314 315 318 319 320 321 322 324 326 325 325 324 324 321 323 320 315 313 311 311
338 337 335 334 331 326 322 318 318 317 316 316 316 316 315 317 317 314 315 315 315 315 315 316 318 319 320 321 322 324 325 325 324 324 323 320 319 322 318 312 310 309 308
339 338 337 335 332 331 329 321 320 320 318 316 316 316 315 318 320 319 315 315 316 316 317 318 319 320 322 322 323 324 324 323 322 320 319 317 319 321 312 309 306 306 305
338 338 338 336 335 337 338 333 326 322 321 318 316 317 317 318 322 326 321 317 316 316 318 319 320 321 323 324 323 324 323 322 321 318 315 311 314 317 309 306 305 304 304
338 338 338 339 339 339 339 338 335 329 325 322 318 317 319 321 323 325 328 324 317 318 319 320 321 322 323 323 324 324 323 321 317 313 309 307 306 306 306 304 304 303 303
338 338 337 338 339 340 339 338 337 334 330 327 324 321 319 320 321 324 326 328 321 318 319 321 322 323 324 324 325 324 322 319 316 311 308 306 304 304 304 303 303 302 302
338 338 338 338 338 339 339 335 337 336 334 333 330 327 324 321 320 321 324 327 326 323 320 321 323 325 325 325 325 324 322 319 313 309 307 305 303 303 303 303 302 302 301
324 333 337 338 338 338 335 334 334 334 335 335 335 332 330 328 325 321 322 326 326 325 321 321 323 325 326 326 325 324 323 319 311 309 307 305 304 303 302 302 301 301 300
319 320 325 335 337 338 336 335 333 333 334 335 335 335 334 332 332 329 323 322 327 328 326 324 324 326 326 326 325 324 322 321 310 309 307 305 303 303 302 302 301 300 300
317 317 319 321 328 336 336 335 334 335 333 335 334 335 334 334 334 333 330 322 325 329 328 325 326 326 326 326 325 323 322 318 309 308 307 305 304 303 302 302 301 300 300
316 317 317 318 320 324 326 328 328 331 332 332 332 332 332 333 333 332 331 326 322 327 327 324 326 327 327 326 324 322 321 314 309 309 308 305 304 303 302 302 302 301 300
315 316 317 317 317 318 321 322 322 325 330 330 331 331 330 331 332 332 331 331 327 326 327 326 325 327 327 326 324 322 315 312 309 309 309 307 304 303 303 302 302 301 300
314 315 315 316 317 317 317 319 320 322 324 323 323 327 329 329 330 331 331 331 331 329 329 328 326 327 327 326 325 321 315 313 311 310 309 308 306 305 303 303 302 301 301
312 312 313 315 315 317 317 317 317 319 320 320 321 321 325 326 330 331 331 330 329 329 330 329 327 327 328 327 325 324 322 317 310 309 309 308 306 305 304 303 302 301 301
312 312 312 312 313 315 316 316 316 317 317 318 319 320 320 322 326 331 331 329 328 329 328 329 329 327 327 327 327 326 321 318 312 310 308 309 308 305 304 302 301 300 299
312 312 312 312 312 312 313 314 314 315 316 317 318 319 319 321 322 328 331 331 330 327 327 327 328 328 327 327 326 326 324 322 321 316 308 307 306 304 303 301 300 299 297

GFSSE_850_thetae_069.txt.gz
Theta_e
345 334 334 336 340 341 339 340 341 342 341 341 341 340 340 339 339 338 337 336 335 332 327 327 325 322 322 322 321 321 321 322 321 318 315 312 311 311 312 314 326 328 334
346 331 332 336 339 340 341 340 340 342 342 341 341 341 340 340 339 337 336 336 334 330 329 328 325 325 321 319 314 313 313 317 316 313 312 311 310 311 311 312 314 315 329
348 342 330 337 338 342 340 340 339 340 341 341 341 340 340 339 338 337 336 334 331 329 335 334 328 326 324 326 315 312 312 313 314 316 323 322 312 314 315 314 314 313 313
347 345 336 335 336 343 339 339 338 340 340 340 340 341 340 339 338 336 328 323 321 325 336 335 330 327 327 326 314 312 313 314 320 329 329 328 327 325 323 322 324 325 325
348 346 343 334 333 341 338 339 341 340 340 339 338 339 340 337 336 327 319 314 317 322 336 337 334 331 329 327 315 315 316 318 327 330 332 332 334 333 332 331 333 333 331
346 347 341 334 342 341 340 339 341 340 339 338 338 337 330 330 324 315 313 315 326 321 333 337 336 334 331 328 315 317 318 323 330 332 333 334 333 333 332 330 333 333 332
346 349 342 339 342 342 340 341 340 339 339 338 337 328 318 320 313 311 321 321 324 327 336 337 335 334 329 328 314 322 321 327 331 331 332 332 332 329 329 326 324 325 327
346 347 343 339 337 341 341 340 339 339 339 338 337 327 316 312 311 312 327 326 332 329 334 335 335 332 329 327 313 322 322 326 330 330 331 331 326 323 326 321 321 323 322
346 346 345 341 337 342 342 340 340 339 337 337 337 332 318 312 312 312 320 331 333 330 330 333 334 329 328 318 314 322 322 327 330 329 330 328 323 325 326 324 317 315 316
345 345 345 344 341 341 340 339 338 337 336 337 337 336 322 313 312 312 313 320 331 332 333 333 332 328 325 314 316 322 323 325 330 329 329 328 321 325 322 317 314 312 311
344 344 344 345 343 342 341 339 337 337 339 337 337 334 323 315 313 312 313 318 327 326 329 331 327 322 314 318 319 322 323 330 329 329 329 323 322 323 321 315 310 308 308
342 345 344 342 341 340 339 339 337 338 337 335 335 330 329 329 323 319 314 315 318 323 326 323 317 315 318 321 320 321 326 329 328 328 327 321 320 321 319 312 308 306 306
347 343 343 342 341 339 338 338 337 337 336 335 335 330 333 329 327 320 315 314 315 318 319 316 315 318 323 328 326 326 328 328 326 325 322 318 318 318 316 310 306 305 305
345 345 339 342 341 340 338 336 336 336 335 334 334 335 333 330 329 325 327 320 322 319 326 322 326 327 329 328 326 326 326 325 324 322 321 317 317 313 312 308 305 304 304
342 345 342 339 341 340 339 339 336 334 333 333 333 333 333 331 331 330 327 327 328 328 328 329 330 329 329 327 324 325 324 323 321 319 317 315 311 310 309 307 305 304 304
341 342 344 342 339 339 341 341 339 336 334 333 332 332 332 331 331 331 332 330 328 327 328 329 329 329 328 327 324 323 322 322 322 319 316 316 310 308 307 307 304 304 303
341 341 342 340 339 337 339 341 340 338 336 334 332 331 331 330 330 331 333 332 331 329 327 328 328 328 326 325 322 320 321 320 322 320 316 319 316 309 307 306 304 303 303
339 342 342 341 337 336 338 341 341 340 338 336 334 333 332 330 330 331 332 332 332 332 328 327 328 328 325 323 322 320 322 323 322 319 316 315 317 312 308 305 304 303 302
325 331 338 342 341 336 336 339 341 341 340 338 337 335 333 332 331 330 332 331 331 331 331 328 327 327 324 322 322 321 324 324 324 320 316 311 311 311 308 307 305 303 302
322 323 323 328 337 342 341 336 337 339 341 340 338 337 335 334 333 332 332 331 331 331 330 330 328 326 325 323 321 320 324 324 324 322 321 312 310 309 306 307 305 304 302
319 319 321 321 322 331 336 337 331 335 334 335 337 338 337 335 334 334 333 332 332 331 330 331 329 327 324 324 322 319 321 324 324 323 321 315 310 310 307 305 305 303 303
317 317 318 319 320 321 328 333 330 325 328 332 333 332 332 335 333 331 333 333 332 332 331 330 331 329 325 324 323 321 320 320 323 323 321 317 310 309 308 305 304 303 302
314 315 316 317 318 319 319 325 332 331 335 331 327 331 332 332 335 334 331 332 333 332 332 331 329 330 326 326 325 324 321 320 320 317 319 318 310 308 308 306 304 303 302
312 313 315 315 316 317 317 319 324 331 333 332 331 329 330 331 329 330 333 333 332 332 332 331 330 328 326 326 326 325 324 322 320 314 314 313 310 307 307 305 305 303 303
311 312 312 312 313 314 315 316 319 325 329 331 331 332 331 330 325 325 327 328 330 331 331 332 331 329 328 325 326 326 325 324 322 316 314 314 309 308 306 305 306 304 303
312 312 311 311 311 311 312 313 314 318 326 329 329 330 331 332 331 329 323 321 323 327 330 329 327 329 329 326 325 326 327 325 325 324 319 315 315 312 308 305 305 304 303

GFSSE_850_thetae_072.txt.gz
Theta_e
347 333 333 335 336 338 338 340 341 341 341 341 340 340 339 339 339 337 336 335 333 326 327 327 323 322 321 320 319 320 320 320 318 315 312 311 311 312 314 321 323 334 334
343 331 332 335 340 338 339 339 340 341 340 341 341 340 339 339 338 337 336 333 331 325 329 325 324 321 320 317 313 312 313 315 313 314 313 310 311 311 312 316 314 326 329
342 330 330 335 341 339 339 338 340 341 341 340 340 340 339 339 338 336 335 333 328 333 335 328 325 323 323 317 311 311 312 315 323 325 322 319 317 316 316 316 315 314 314
344 333 331 335 340 341 341 339 339 340 340 340 339 340 339 337 337 335 327 321 322 335 337 332 328 328 324 316 311 312 314 322 329 329 329 330 331 326 324 328 330 330 330
348 334 332 334 344 339 340 339 338 340 340 340 338 339 339 337 332 326 317 314 317 328 338 336 332 330 326 317 314 314 319 328 331 331 331 332 333 332 332 334 334 332 333
348 346 335 333 340 341 338 339 340 340 339 337 337 336 332 331 326 315 312 315 317 327 337 337 334 332 328 319 316 317 324 331 331 330 330 333 333 333 331 333 333 331 330
346 348 337 331 339 339 338 340 341 339 338 337 335 320 319 322 313 312 321 322 327 328 337 337 334 333 328 321 318 319 325 331 330 330 330 331 331 329 329 326 323 321 323
348 349 339 338 343 341 340 341 340 338 338 337 333 318 315 312 312 320 325 328 329 336 336 335 333 333 327 321 318 321 327 330 330 329 329 328 325 328 325 321 320 320 321
349 348 341 339 341 342 339 341 338 338 336 336 333 325 315 312 312 315 325 331 329 331 334 333 333 330 327 316 317 321 325 329 329 329 329 328 322 327 325 320 315 313 313
347 344 339 338 337 342 341 339 338 338 336 336 334 330 319 312 312 313 314 324 329 329 330 331 332 327 324 314 316 321 322 329 327 328 328 327 321 325 320 316 312 309 308
344 344 343 342 339 341 340 339 338 338 337 336 335 331 320 313 313 312 313 317 327 325 323 328 328 324 316 316 317 321 323 329 329 328 328 327 319 320 319 313 308 307 306
345 344 342 342 340 340 342 339 337 337 336 337 337 332 321 319 315 313 313 315 317 319 322 324 322 316 315 318 319 320 327 329 329 328 327 324 318 317 316 312 307 306 305
344 345 344 343 342 341 340 340 337 330 334 334 333 331 325 329 327 320 317 314 315 316 320 319 316 315 319 324 325 321 328 328 328 326 324 320 316 315 314 311 307 305 305
340 344 343 342 341 340 339 338 337 338 338 335 336 333 328 330 328 324 317 315 315 315 316 316 315 316 321 328 327 326 326 328 326 324 323 320 315 314 312 310 307 305 305
339 339 343 342 341 340 339 337 336 337 336 334 334 335 334 333 329 325 322 323 319 319 320 323 324 327 327 326 326 325 326 325 324 323 321 318 315 312 310 309 306 305 304
342 341 337 341 341 341 339 339 336 335 334 334 333 333 334 333 330 328 329 327 326 327 326 328 327 330 329 327 326 324 324 323 322 321 320 317 315 312 310 308 307 305 304
341 342 341 335 338 338 339 340 340 337 335 334 332 332 331 331 330 329 331 332 329 327 327 327 328 329 329 327 327 324 322 322 322 322 320 317 315 314 311 309 307 305 304
339 339 340 338 337 336 338 342 340 340 338 336 335 332 331 329 328 328 329 332 333 329 328 327 327 328 328 326 325 323 321 320 321 322 320 319 315 313 312 310 308 305 304
334 340 341 341 339 336 336 338 341 341 340 338 336 335 333 332 330 328 327 329 331 333 330 328 327 327 328 326 325 322 321 320 322 323 322 318 315 312 312 311 309 306 304
324 325 333 340 342 341 338 336 340 340 340 340 337 337 336 334 333 332 331 330 330 331 331 331 328 327 327 326 323 321 320 321 323 323 323 321 317 312 311 311 309 308 305
318 321 323 324 330 338 340 340 337 336 338 339 339 337 337 336 335 334 333 332 332 331 330 331 330 329 327 326 324 321 319 319 322 324 324 322 320 317 310 310 309 308 306
318 318 319 321 321 322 331 336 336 334 332 331 335 337 336 336 334 333 333 333 333 332 331 331 331 330 329 327 324 322 319 318 321 324 324 323 321 319 312 309 309 308 307
315 316 317 317 319 320 320 325 329 332 331 328 323 325 332 336 334 333 331 331 331 332 332 332 331 331 329 328 326 323 319 321 322 322 322 322 320 318 316 309 308 307 307
313 313 315 316 317 317 318 319 321 326 330 326 324 325 324 323 326 331 330 330 332 332 333 331 331 330 329 328 326 325 322 322 322 320 319 318 317 315 314 312 309 306 304
311 311 312 313 315 316 317 318 318 320 324 333 332 332 331 327 324 325 326 329 331 331 332 332 332 332 329 328 329 328 324 323 321 320 319 318 314 314 310 310 309 306 304
313 312 312 312 311 311 312 314 315 317 318 322 328 331 330 328 330 331 331 331 329 332 334 333 332 332 330 329 328 329 328 325 323 320 316 317 315 312 308 306 305 305 303

GFSSE_850_thetae_075.txt.gz
Theta_e
347 335 331 333 335 334 338 340 341 340 341 341 340 339 339 338 337 335 333 332 324 327 325 322 321 321 320 319 319 319 319 318 315 312 310 310 311 313 315 324 332 334 333
345 336 331 333 336 336 339 340 340 340 340 340 340 339 338 338 336 335 333 332 326 330 323 322 320 319 317 313 312 313 314 314 314 311 312 311 311 312 313 312 326 326 325
340 333 334 335 336 337 338 339 338 338 339 340 340 340 338 337 336 334 332 330 335 335 328 321 321 321 314 311 311 313 319 324 324 322 325 320 317 316 317 317 316 316 317
340 334 334 338 337 337 337 337 339 339 339 340 338 336 336 336 335 332 327 324 333 337 332 330 329 323 313 311 312 318 328 330 328 327 328 331 326 326 330 331 331 332 330
341 333 335 338 338 338 338 338 339 339 339 339 338 337 337 336 329 322 316 316 331 337 336 333 331 329 315 313 315 323 328 328 329 329 332 333 331 334 334 333 332 332 333
338 333 335 339 338 340 338 337 339 339 339 337 337 337 337 331 324 314 312 313 324 338 336 334 332 330 318 315 317 328 331 330 329 327 332 333 333 332 333 332 331 329 330
343 334 334 343 340 339 339 339 340 340 338 336 327 319 320 320 313 312 314 315 326 337 336 335 333 328 321 317 319 329 330 330 330 329 329 330 331 330 328 325 321 319 321
344 342 333 338 342 337 338 341 340 337 336 332 316 316 316 313 312 314 316 318 327 336 336 333 331 326 322 317 319 329 330 329 328 328 328 327 325 326 321 317 315 314 317
346 347 333 335 341 339 338 341 339 337 336 331 318 315 313 312 313 319 324 328 333 335 334 331 331 326 322 314 320 325 327 328 328 328 327 326 322 323 319 315 312 311 311
348 348 340 342 341 340 340 340 338 337 332 335 327 324 314 312 313 317 328 326 326 331 332 330 328 323 320 314 319 321 324 328 326 327 326 326 320 320 317 313 309 308 307
346 344 339 338 341 341 340 339 338 337 336 336 333 322 317 313 313 314 315 318 321 322 327 324 324 321 317 316 318 320 325 328 328 328 327 326 321 316 316 312 308 306 306
343 343 337 337 338 341 339 339 337 335 335 334 332 323 319 314 313 313 313 316 318 317 319 321 321 318 315 317 318 320 325 328 328 328 327 325 321 316 314 311 307 306 305
344 343 342 338 337 337 339 339 338 337 333 331 330 327 326 319 318 314 314 314 316 316 318 319 318 315 316 318 318 319 326 327 328 328 325 323 319 315 313 311 308 306 305
345 343 343 343 340 340 340 340 339 333 331 331 329 331 325 322 324 323 320 318 315 315 317 318 317 315 318 321 323 322 327 328 328 327 324 322 319 315 312 311 308 306 305
345 344 344 342 340 340 339 338 337 333 335 335 331 331 332 326 327 327 323 319 316 315 316 316 316 316 319 324 325 324 324 326 327 326 323 322 319 315 312 311 309 307 305
340 344 343 342 340 339 339 338 336 335 337 336 333 333 333 331 330 329 326 323 324 322 322 321 323 325 327 326 326 325 325 325 324 324 322 321 319 315 313 311 310 308 305
339 339 341 342 341 340 338 338 337 335 335 334 333 333 333 333 332 330 327 326 328 326 325 325 326 327 329 329 327 326 324 324 324 322 322 322 320 317 314 312 310 309 306
340 338 337 340 341 340 339 338 339 339 336 335 334 332 332 331 332 330 327 327 329 329 329 326 326 327 328 329 328 327 326 323 322 321 322 322 321 319 315 313 311 310 307
336 338 337 338 334 336 340 339 339 339 339 338 336 334 333 331 330 330 328 328 330 331 331 329 327 326 327 328 327 326 325 323 321 320 321 323 322 320 317 313 312 311 307
325 333 338 340 341 340 337 338 341 340 339 338 338 336 334 333 333 331 330 328 328 328 330 331 330 327 326 327 328 326 325 323 321 320 319 322 322 321 319 316 312 311 309
321 323 326 332 339 340 339 337 337 339 338 337 338 336 335 335 334 333 333 332 331 331 330 330 331 331 329 327 327 327 324 322 321 320 320 320 321 322 321 319 314 311 309
317 318 320 323 323 330 331 337 336 337 337 337 337 336 336 335 334 334 333 332 331 332 332 331 331 331 331 329 327 326 323 322 321 321 320 321 321 320 321 320 318 312 309
317 318 318 319 322 321 323 325 330 333 333 334 332 332 334 334 332 333 334 334 333 333 332 332 331 331 329 330 329 327 322 322 322 322 322 321 321 320 318 318 315 313 310
315 316 316 317 317 319 320 320 321 323 326 327 327 328 326 327 330 330 331 332 333 333 333 332 331 329 328 328 329 328 326 324 322 322 322 322 320 318 316 313 313 311 310
313 313 313 313 315 316 317 318 319 319 322 329 331 332 330 329 329 327 325 325 329 332 331 331 331 331 329 329 329 329 327 326 324 322 321 322 320 319 316 311 310 310 309
312 312 312 312 312 314 316 317 317 318 318 319 320 329 332 332 331 329 326 331 332 330 330 330 329 330 329 329 329 329 328 326 325 322 320 320 318 315 315 310 308 307 306

GFSSE_850_thetae_078.txt.gz
Theta_e
343 331 333 338 335 336 338 339 340 341 341 340 338 337 336 335 334 332 330 324 326 320 322 321 321 320 320 320 320 320 318 316 312 310 310 311 313 316 327 332 333 331 330
341 331 331 336 334 337 338 340 340 339 339 338 338 337 336 335 334 333 331 327 330 322 321 320 318 316 314 313 313 314 314 312 311 312 311 311 312 312 313 325 324 322 316
339 331 331 334 333 338 339 339 338 339 339 339 339 338 337 335 334 332 331 335 332 324 320 321 317 312 311 311 314 317 319 318 319 319 318 317 317 318 317 317 320 320 319
340 332 331 334 335 338 340 337 336 338 340 340 339 337 336 334 333 330 327 336 336 331 330 328 320 311 311 314 320 325 324 322 325 330 330 325 328 332 332 332 333 332 330
339 332 332 335 336 338 337 336 338 338 340 337 336 333 334 332 324 318 318 333 337 335 333 330 326 312 312 315 323 326 326 326 330 332 333 331 336 334 334 331 332 332 333
337 332 337 336 337 336 338 338 338 339 339 337 336 337 331 327 318 313 313 329 337 336 334 332 327 314 314 319 325 327 327 327 327 331 333 333 336 332 331 330 328 327 331
339 332 341 338 338 338 337 338 339 339 337 333 329 325 317 315 312 312 312 321 337 336 334 332 328 317 317 321 326 326 328 330 329 329 330 331 331 330 328 323 317 318 320
335 333 341 339 339 339 337 339 339 339 335 325 318 317 315 313 313 313 313 321 335 336 335 329 325 320 317 319 324 327 328 327 326 327 325 327 325 323 317 315 313 313 315
335 334 342 341 339 339 338 339 338 337 331 321 317 316 313 313 314 314 314 320 333 334 333 326 326 321 315 318 323 325 325 326 325 327 325 324 320 318 316 313 311 309 310
342 334 335 344 340 337 340 340 338 336 331 322 315 313 312 313 314 316 316 322 330 332 331 327 325 321 315 317 320 323 323 324 325 325 324 322 319 316 316 312 308 307 307
347 344 333 333 339 339 339 339 338 336 333 323 319 316 313 313 315 316 319 326 330 331 331 326 324 321 316 316 319 320 322 323 323 326 326 324 321 316 315 311 308 306 306
345 344 339 341 340 339 339 338 337 335 333 327 324 318 316 314 314 316 315 320 325 325 327 325 324 321 315 316 318 319 322 325 326 326 326 325 322 317 314 311 309 307 306
343 341 339 339 341 340 339 338 336 332 329 328 327 325 319 316 314 314 314 314 317 317 319 323 324 320 314 317 318 320 323 326 326 326 326 324 322 318 314 312 310 307 306
342 342 340 337 337 339 337 336 335 336 336 331 328 326 327 322 319 317 316 315 315 316 317 319 320 318 315 318 319 319 323 326 326 327 326 324 322 319 315 312 310 308 306
343 342 341 340 338 337 338 339 338 336 331 329 330 329 331 325 322 325 324 322 318 315 315 317 318 316 315 320 323 322 323 326 326 326 326 324 322 320 316 313 311 309 306
344 342 341 341 341 340 340 339 338 337 332 334 333 330 330 330 327 326 326 324 320 320 317 317 317 318 317 319 322 323 323 324 325 325 325 324 322 321 318 315 312 310 308
342 344 343 341 342 340 340 338 338 337 333 334 334 332 331 331 329 328 328 326 324 324 324 324 323 324 325 326 326 326 325 324 324 324 324 323 322 321 319 316 313 311 310
337 341 344 343 341 339 339 338 338 337 334 335 334 333 332 332 331 330 329 328 326 326 327 327 326 325 325 326 327 327 327 326 324 323 323 322 321 322 320 318 315 313 311
333 336 339 342 341 340 339 338 338 338 337 335 335 334 333 332 331 330 329 328 327 327 328 329 330 328 326 326 327 328 327 326 326 324 322 321 320 321 321 320 317 314 312
329 336 338 338 339 340 340 339 338 338 338 337 337 337 335 333 332 331 330 329 328 327 328 329 331 331 329 327 327 328 328 327 326 325 323 321 320 321 321 321 319 316 312
323 327 331 335 338 338 337 338 340 339 339 338 337 335 335 336 334 333 332 331 330 329 329 329 330 331 331 330 327 327 327 327 327 325 323 321 320 320 321 320 319 318 315
318 321 323 327 332 333 337 336 338 338 338 339 338 337 335 335 334 335 334 333 333 332 331 331 331 331 331 331 330 328 327 327 327 326 324 322 321 319 319 320 319 318 316
318 319 319 321 323 324 327 333 332 334 337 337 337 337 336 334 333 334 333 332 333 333 333 333 332 332 331 331 331 328 326 326 326 325 325 323 321 319 318 318 318 317 315
316 317 317 318 319 320 321 321 323 328 328 327 331 332 332 331 330 330 331 332 333 333 333 333 332 332 332 331 330 329 328 328 325 324 325 323 322 319 318 317 315 313 312
315 315 316 317 317 318 318 318 319 319 321 322 325 326 328 330 329 328 330 330 329 330 330 331 332 330 329 329 329 328 328 328 327 324 323 324 323 321 321 321 319 317 313
314 314 314 314 314 314 315 316 316 317 318 320 321 321 322 322 327 331 330 328 326 322 327 328 331 330 327 328 329 330 328 327 326 326 325 324 323 322 321 320 317 317 315

GFSSE_850_thetae_081.txt.gz
Theta_e
338 340 338 339 336 338 339 339 339 339 338 337 335 334 333 331 329 327 325 322 320 322 322 322 322 322 323 324 323 321 318 315 311 310 311 312 314 327 332 333 330 328 321
332 334 337 337 334 337 338 338 340 340 339 337 336 335 334 332 331 330 329 322 320 320 319 318 317 317 317 317 316 316 313 310 310 311 311 312 312 318 325 323 320 315 315
331 333 336 334 333 336 337 340 339 337 337 337 336 336 335 333 333 332 333 329 320 318 318 315 312 311 312 312 313 313 313 314 316 316 316 317 318 317 320 327 327 324 326
331 331 334 332 332 336 338 338 337 337 338 338 337 336 333 331 329 329 337 335 331 328 325 315 310 310 311 314 315 317 317 322 328 326 325 330 332 332 334 333 333 331 333
331 330 334 332 333 338 338 337 337 339 341 340 338 334 332 326 321 321 335 337 334 333 329 320 311 311 314 316 318 319 326 330 332 331 331 336 335 335 331 331 332 334 334
335 330 339 333 335 339 337 336 338 341 340 339 336 332 325 322 316 315 329 337 336 333 331 325 313 313 315 316 318 320 324 329 331 332 333 334 332 330 329 326 324 328 333
336 332 337 336 336 338 335 337 340 339 339 338 338 327 318 317 313 312 321 335 335 334 331 328 316 314 316 319 321 323 327 328 329 330 331 331 331 330 325 320 315 316 321
334 332 338 337 336 336 337 337 340 339 338 335 330 318 315 313 313 312 315 334 334 334 332 326 319 315 317 320 322 325 327 326 326 326 326 327 324 319 316 314 313 312 314
336 335 339 337 337 337 336 338 338 337 334 331 325 319 314 314 314 313 314 330 333 333 330 326 320 315 318 322 324 326 326 325 324 324 323 321 318 316 315 313 310 308 309
337 338 340 339 339 338 337 339 338 338 335 320 316 316 313 314 315 314 314 327 332 331 330 325 322 318 317 321 326 325 324 324 324 324 322 321 319 316 315 312 309 307 306
336 337 341 339 339 339 338 339 338 336 331 320 315 315 314 314 316 316 317 327 331 331 329 325 323 321 314 320 325 323 322 323 323 324 324 324 322 318 315 313 310 307 306
339 335 340 343 340 337 339 340 338 336 333 324 319 317 314 315 315 317 318 322 329 329 330 327 325 323 317 316 320 321 323 323 325 325 325 325 324 320 315 313 311 309 306
342 342 336 335 339 338 338 338 337 334 331 328 326 321 318 315 314 315 316 316 320 320 320 322 322 321 317 315 318 320 322 324 325 325 326 326 324 322 318 314 312 310 307
342 343 341 336 340 339 338 338 336 334 331 329 327 328 323 320 315 315 315 314 316 317 318 319 321 320 316 315 317 319 321 324 325 325 325 325 324 323 321 316 313 311 309
342 341 338 339 341 340 338 337 335 334 335 334 330 329 327 326 321 320 319 319 318 317 316 317 319 319 317 315 318 319 319 321 324 325 326 325 325 323 322 320 315 312 310
341 340 340 337 337 339 338 335 337 337 336 332 330 330 328 328 324 323 325 324 322 319 316 315 316 317 316 315 318 321 323 323 323 324 324 324 324 323 322 321 318 315 311
341 342 340 340 338 337 338 338 338 337 336 333 333 331 330 330 329 328 327 326 325 323 323 322 321 320 321 321 321 323 324 324 323 323 324 324 324 323 322 321 319 317 314
340 342 342 341 341 340 339 339 338 337 337 333 334 334 332 331 331 330 329 328 327 325 326 325 325 325 324 324 324 325 326 327 326 325 324 324 323 322 321 321 320 319 316
334 339 341 343 342 341 340 339 338 337 337 335 334 334 333 333 332 331 330 329 329 328 326 327 328 329 329 327 326 326 326 327 327 326 325 325 324 322 320 320 321 320 318
330 336 339 341 342 341 340 339 338 337 337 337 335 335 335 335 333 332 331 330 330 329 328 328 328 329 330 330 330 328 327 327 327 327 326 326 325 323 321 319 319 320 319
326 329 335 338 339 341 340 339 338 338 337 337 336 335 335 336 335 334 332 331 331 330 330 329 329 329 329 330 331 330 329 328 327 327 327 327 326 325 322 320 319 318 319
322 324 327 334 337 338 339 339 339 339 338 338 338 337 336 335 334 334 333 333 333 333 332 331 330 329 329 330 331 330 329 328 327 327 326 326 326 325 323 321 319 318 318
318 321 322 325 328 332 332 334 335 336 338 338 339 338 335 333 334 334 334 334 334 334 334 333 332 331 331 331 331 330 326 326 326 326 326 325 325 324 322 320 318 316 315
317 319 319 322 324 325 324 325 330 335 335 334 335 335 334 334 332 333 332 332 333 334 334 334 332 332 331 330 329 329 328 326 326 326 326 325 325 324 323 323 322 320 316
316 317 317 317 318 320 320 321 321 322 322 324 326 328 330 333 333 334 333 331 328 329 330 329 330 332 329 328 328 327 328 328 328 327 323 325 325 324 323 322 322 321 318
315 315 315 315 316 316 316 316 317 318 318 319 320 322 324 325 325 326 328 328 329 329 327 325 327 327 327 328 329 327 327 326 327 326 326 324 323 322 321 321 321 320 320

GFSSE_850_thetae_084.txt.gz
Theta_e
338 338 339 339 338 337 338 338 338 338 337 336 334 332 331 327 325 324 318 317 318 319 321 324 326 326 325 325 323 320 317 313 310 311 312 316 328 332 332 329 324 315 314
333 337 338 338 336 338 338 338 338 338 337 336 334 332 330 328 326 328 319 318 319 319 319 318 318 318 318 318 317 315 312 310 310 311 312 312 319 322 318 316 318 321 320
332 337 338 339 335 337 338 338 339 339 337 335 334 333 331 332 329 331 327 317 317 316 315 314 314 314 314 313 313 312 312 314 315 316 317 318 321 327 332 331 329 329 328
332 337 338 339 334 336 337 338 339 337 337 336 335 335 331 332 331 335 333 329 324 320 313 310 310 311 312 313 313 316 321 324 323 325 329 332 334 335 332 332 334 334 333
331 337 340 335 335 337 338 338 336 336 337 338 335 331 328 327 325 336 335 333 332 325 316 311 311 311 314 316 317 322 328 331 328 334 336 335 336 333 331 330 332 333 331
332 336 340 335 339 337 337 336 337 339 340 338 335 328 322 318 319 329 336 335 333 330 320 312 312 313 315 318 320 327 329 331 331 333 333 331 329 327 325 322 321 329 332
332 341 341 340 341 338 337 335 339 340 339 335 334 327 320 318 314 318 336 335 333 330 324 315 314 315 318 321 322 325 326 327 330 330 331 330 329 322 316 314 313 314 324
331 340 341 340 341 339 336 335 340 339 340 339 339 321 318 315 313 313 332 333 332 330 326 318 315 317 319 321 323 325 325 325 325 325 324 325 321 317 315 312 310 309 312
335 335 342 339 339 337 335 337 339 338 336 335 332 325 317 314 313 312 326 332 331 330 324 320 316 316 319 321 323 324 324 324 325 323 322 320 318 315 315 312 309 307 307
336 335 341 339 338 336 338 338 340 337 334 331 324 319 316 314 314 313 319 330 331 330 325 323 320 315 318 321 322 324 323 324 324 323 323 323 322 318 314 313 310 308 307
337 336 340 338 338 337 337 337 338 337 336 330 316 316 314 315 315 314 318 332 331 330 328 325 322 318 316 319 322 322 322 323 323 324 325 324 323 321 316 314 312 309 307
339 339 340 337 338 338 337 338 338 337 334 327 317 314 314 315 316 316 317 326 330 329 327 324 323 320 316 316 320 321 321 322 324 325 325 325 324 322 320 316 313 311 308
339 338 340 338 338 338 338 338 338 337 334 328 322 320 314 315 316 318 318 320 323 326 325 325 323 322 319 315 316 318 320 321 322 324 325 325 325 323 322 320 316 312 310
337 336 337 340 339 338 337 338 339 337 332 329 327 326 320 317 315 316 317 316 318 320 319 319 321 322 320 315 315 317 319 321 322 323 324 325 325 324 323 321 320 316 312
341 342 340 338 340 339 337 337 335 334 332 330 331 329 328 325 323 315 315 315 315 316 316 316 318 320 320 316 315 317 318 319 320 323 324 324 324 324 323 322 321 319 315
339 341 341 339 334 338 338 338 335 333 333 335 332 330 328 327 328 322 322 323 323 320 319 316 316 317 318 317 315 318 321 322 322 323 323 323 323 323 323 322 321 321 319
335 338 338 337 339 340 339 338 336 335 336 336 332 331 331 329 329 326 325 326 326 323 322 321 319 320 319 320 319 318 320 323 324 324 324 323 323 323 323 322 321 320 320
334 338 340 339 336 336 337 338 337 338 337 336 333 333 332 330 330 330 329 327 328 327 324 325 324 324 324 324 324 324 324 324 325 325 325 325 325 324 324 322 320 319 319
333 333 336 340 339 338 337 338 338 338 338 337 334 333 334 333 332 331 331 330 329 329 328 326 327 327 328 328 328 328 327 326 326 326 326 326 326 325 325 323 321 319 318
333 335 336 336 339 339 340 339 339 339 338 337 336 334 334 333 333 333 331 330 330 330 330 329 328 328 328 329 329 329 330 329 329 328 327 327 327 326 326 325 322 320 318
329 329 334 338 339 340 340 340 340 339 338 337 337 336 335 334 335 335 333 332 331 330 330 330 330 329 329 329 329 329 329 329 329 328 327 327 326 326 326 325 323 320 318
324 326 331 337 338 339 340 340 339 338 338 337 337 336 336 335 334 333 333 333 333 333 332 332 331 331 331 330 329 329 329 327 326 326 326 326 326 325 325 324 323 321 320
320 322 326 332 336 337 339 338 339 338 338 337 337 337 335 333 333 333 333 334 334 334 334 333 333 332 332 331 330 329 329 327 326 325 325 324 325 325 324 323 322 322 321
318 318 320 324 331 335 335 336 335 335 334 334 335 335 336 336 334 334 335 335 335 334 332 332 332 332 332 330 329 328 328 328 329 327 327 326 326 325 325 324 323 322 322
316 316 318 320 323 326 329 332 333 330 330 333 335 334 331 331 333 333 332 331 330 329 330 328 329 331 331 331 330 329 327 326 328 327 324 323 324 324 323 322 321 320 320
315 316 317 317 318 320 323 325 322 321 321 321 322 323 325 326 327 329 330 329 329 329 328 327 328 327 326 327 326 325 329 327 325 323 324 321 322 321 321 319 318 319 318

GFSSE_850_thetae_087.txt.gz
Theta_e
340 340 340 337 336 337 338 338 337 336 335 335 332 330 326 324 323 317 316 316 322 333 329 328 328 327 325 322 320 317 313 311 310 312 320 330 333 328 322 317 317 316 312
336 339 341 339 336 337 338 338 337 336 336 334 331 329 326 325 325 317 318 318 318 318 318 318 318 318 318 317 315 311 310 310 311 312 314 319 319 320 325 325 327 325 314
335 339 341 339 338 337 338 338 338 337 337 334 332 330 329 326 329 318 317 317 316 316 315 315 315 315 314 313 311 312 314 315 316 317 320 327 333 331 331 333 333 331 326
332 337 341 338 337 337 338 338 338 339 336 334 332 330 331 329 332 330 323 321 317 312 310 310 311 311 312 312 315 320 321 323 326 330 334 335 333 331 332 334 332 331 330
333 337 339 336 336 338 338 338 338 336 338 339 337 331 332 328 335 333 331 328 322 312 310 311 311 313 314 316 320 328 329 329 335 335 333 332 331 330 328 324 330 331 333
333 337 343 336 339 337 340 342 338 337 339 339 334 330 325 322 335 335 333 331 327 316 312 312 313 315 317 321 326 329 331 331 333 332 330 330 329 323 319 317 320 331 333
334 338 342 336 339 337 340 339 339 341 340 336 329 325 318 316 324 336 334 332 328 321 314 314 316 318 320 322 324 326 328 330 331 330 329 327 320 316 314 312 311 315 323
335 339 340 339 340 338 337 336 339 340 339 339 336 326 321 315 315 334 334 332 329 324 317 315 317 318 320 321 323 323 323 324 323 322 322 318 316 315 314 310 308 307 308
337 341 338 340 341 339 337 335 339 339 340 339 335 323 320 315 313 326 333 331 330 326 321 316 316 318 320 322 323 323 322 323 322 321 320 320 319 316 314 312 309 307 307
338 341 340 341 341 339 336 336 339 338 334 334 328 321 318 315 313 318 331 330 331 327 324 320 316 317 319 321 322 322 322 323 323 323 323 323 322 319 315 313 311 309 307
340 341 340 340 341 338 337 337 339 337 333 331 322 318 315 314 314 314 329 331 333 329 325 323 320 316 316 318 321 321 321 322 323 324 324 324 323 322 320 316 313 311 309
341 340 341 340 339 337 337 337 338 337 333 327 317 315 314 316 316 315 320 330 330 329 327 325 323 321 317 316 318 320 320 321 322 324 324 325 324 323 322 321 318 314 311
344 343 342 340 338 338 337 335 336 336 333 326 318 316 314 316 317 317 317 324 325 328 328 326 324 323 320 317 315 318 319 320 322 323 324 325 325 324 323 322 321 318 314
342 344 344 340 338 338 337 336 336 335 333 329 322 321 317 315 316 318 319 318 322 323 323 322 324 323 322 320 315 315 317 319 321 322 324 324 325 325 323 322 321 321 319
341 339 342 341 339 339 338 337 337 337 334 329 327 327 324 319 318 315 317 317 316 317 318 318 318 320 321 320 316 315 317 318 320 320 323 324 324 324 323 323 322 321 321
339 338 337 337 339 338 338 337 338 336 334 332 332 333 329 328 327 325 317 317 318 319 318 318 316 316 318 319 317 315 318 320 322 323 323 323 323 323 323 323 322 321 320
336 337 338 340 339 341 339 337 337 335 334 334 334 332 329 328 328 328 322 323 325 325 320 321 318 318 319 319 320 318 319 321 323 325 325 325 325 324 324 323 322 321 319
335 335 336 335 337 337 337 338 338 336 335 336 336 332 332 330 329 329 327 326 326 327 324 323 324 323 324 324 324 324 325 325 325 325 325 326 326 326 325 325 324 322 319
331 333 334 336 337 336 339 339 338 337 337 337 336 333 333 332 331 331 331 330 329 328 328 326 326 326 327 327 328 328 328 328 328 328 327 327 327 327 326 326 325 323 321
330 330 332 332 337 337 336 336 337 338 338 338 337 335 333 333 333 332 332 331 331 330 329 329 328 328 328 328 328 328 328 329 329 329 329 328 327 327 327 326 326 324 322
330 330 330 331 331 332 336 338 337 338 338 338 337 336 335 334 334 333 334 332 331 331 330 330 330 330 330 329 329 329 329 329 329 327 326 325 326 326 325 325 325 324 323
329 326 324 324 326 322 332 334 337 338 338 337 337 337 336 335 334 334 334 334 333 333 332 331 331 331 331 331 330 330 329 328 327 327 325 325 325 325 324 325 324 323 322
320 324 322 324 325 328 330 335 336 338 338 336 338 337 336 333 333 334 333 333 333 333 333 333 333 333 332 332 331 330 329 328 327 327 326 325 326 326 325 324 325 323 322
318 318 320 321 326 329 330 334 336 336 336 337 336 335 336 336 335 335 335 334 333 334 333 333 332 331 332 332 331 329 328 329 328 326 325 325 325 324 323 324 323 322 321
318 317 317 319 322 326 331 332 333 336 335 333 333 333 335 334 334 333 332 332 331 331 330 329 329 329 329 331 331 329 328 327 328 326 324 324 322 322 322 321 320 320 318
316 316 316 317 319 322 327 331 331 331 332 330 326 325 327 332 331 329 328 328 329 329 329 331 330 327 327 329 328 326 326 324 325 324 323 322 320 320 319 319 317 317 315

GFSSE_850_thetae_093.txt.gz
Theta_e
349 340 337 335 337 339 339 339 336 335 333 332 328 324 322 320 321 342 343 343 343 342 338 333 328 321 318 314 311 311 314 320 330 328 321 327 330 332 328 322 325 319 326
347 338 334 335 337 338 339 337 336 335 334 331 326 324 318 316 317 325 341 341 339 329 321 319 318 316 312 310 310 311 312 315 319 329 332 333 334 332 331 327 322 320 318
346 341 334 335 337 338 337 337 336 336 334 330 326 325 317 317 318 317 317 318 318 317 316 316 314 311 311 313 314 315 316 322 334 337 335 335 333 331 330 330 333 333 331
346 343 341 336 337 337 337 337 336 336 334 330 328 328 318 316 316 315 314 314 314 313 313 312 312 314 315 317 320 322 330 334 333 336 334 333 331 325 330 332 334 333 332
346 344 343 338 337 338 338 337 337 337 335 333 331 333 329 325 322 318 311 310 310 311 312 313 314 317 324 326 328 331 334 332 333 333 330 331 327 320 325 332 334 333 332
346 343 341 342 340 338 338 338 338 337 336 334 335 332 335 331 328 323 313 311 311 312 314 315 317 322 327 328 330 331 330 333 333 332 331 318 313 312 312 316 328 331 331
347 345 341 341 341 340 338 338 339 338 337 337 334 330 339 335 330 326 318 312 313 315 316 317 320 323 325 326 329 330 329 332 332 331 328 316 314 311 309 308 309 310 314
347 346 342 341 339 340 341 340 338 339 338 336 332 325 337 338 333 329 323 315 314 316 318 319 320 322 323 323 323 323 322 329 330 330 326 317 314 313 312 310 308 307 307
346 344 344 341 340 340 342 340 338 340 337 335 321 319 325 337 334 332 327 320 315 316 318 319 320 321 322 321 321 321 321 327 331 331 331 321 318 316 315 313 311 309 308
343 347 345 344 340 341 342 339 341 339 335 333 326 320 317 326 337 334 330 326 321 317 316 318 319 320 320 320 320 321 322 330 332 331 328 322 321 321 320 318 314 312 310
344 346 344 345 345 344 341 338 339 339 338 332 329 323 317 316 331 335 333 330 327 323 320 317 316 318 319 320 320 320 326 331 331 331 330 323 322 322 321 321 320 316 313
342 344 343 346 346 343 340 339 339 339 335 334 329 320 326 329 326 337 332 332 332 326 323 322 320 318 317 324 320 320 330 329 330 330 329 323 323 323 322 321 321 321 319
341 341 343 345 346 343 342 340 338 338 338 337 334 330 330 331 328 334 334 335 334 329 326 324 323 323 326 325 327 328 328 329 329 329 326 322 322 323 323 322 321 321 321
342 342 342 344 343 344 342 342 338 338 338 336 332 328 330 331 325 330 335 334 334 336 337 333 334 333 327 323 325 324 325 327 327 328 328 323 322 322 324 322 322 321 320
341 342 343 342 343 343 342 341 339 339 337 336 333 328 327 330 331 330 333 335 335 335 335 334 333 333 332 331 327 320 319 322 325 324 326 324 323 323 323 325 324 322 321
341 341 341 341 343 342 341 341 339 338 338 338 336 333 328 328 331 333 334 334 334 334 333 332 331 330 330 330 330 326 320 320 320 323 325 326 325 325 324 323 325 325 324
340 340 340 340 338 342 341 341 341 339 338 338 336 335 332 331 329 329 331 332 331 331 330 330 330 325 327 326 326 327 324 324 326 326 326 327 327 326 326 325 325 325 326
341 341 340 340 340 340 341 342 341 339 339 338 338 337 335 334 331 329 329 327 328 329 328 329 329 329 327 328 328 329 326 325 326 328 329 327 327 327 327 327 326 326 325
340 341 341 340 339 339 339 340 340 339 339 339 338 337 337 335 334 331 331 331 327 328 327 327 328 329 330 329 328 328 329 328 329 329 328 329 329 327 327 327 327 326 326
339 339 338 339 338 337 339 340 339 338 339 338 337 337 337 336 335 332 333 334 332 329 327 328 329 328 326 329 329 327 327 328 329 328 330 330 329 327 325 326 326 325 325
332 338 340 336 335 335 337 337 340 338 338 338 337 338 338 338 336 335 334 335 334 332 331 332 330 329 329 329 329 329 330 329 330 330 330 330 329 327 325 325 325 324 324
329 331 333 337 334 335 337 336 336 335 337 337 335 336 337 336 335 334 334 334 335 334 332 332 331 331 330 330 330 331 331 332 331 331 330 328 327 326 325 325 325 325 324
329 331 330 333 336 332 331 331 335 334 334 335 335 335 335 335 334 336 335 334 334 334 334 334 333 332 332 331 331 331 332 331 330 329 328 327 327 326 324 325 325 324 324
330 331 331 330 331 329 328 328 327 328 328 328 327 327 328 332 332 332 331 333 334 334 334 334 333 333 333 333 332 332 331 331 330 328 327 326 326 324 324 324 323 322 323
323 327 327 326 325 323 323 324 323 324 325 325 325 326 327 324 325 329 328 328 330 334 334 334 334 333 333 332 332 331 330 330 330 327 325 324 325 323 323 322 321 320 319
319 318 320 320 321 325 327 321 322 322 324 324 325 328 322 321 322 329 329 327 328 330 332 332 332 332 333 332 331 331 331 328 329 328 326 324 323 324 322 320 319 318 317

GFSSE_850_thetae_096.txt.gz
Theta_e
349 339 338 336 337 338 339 338 335 333 332 327 323 321 319 332 343 343 342 342 342 340 334 325 318 317 313 311 313 322 331 325 328 330 333 331 331 326 321 317 318 321 322
347 338 337 336 337 338 338 336 334 334 330 325 323 317 318 324 342 342 342 341 337 326 319 317 315 311 310 311 312 316 321 331 333 333 335 331 330 329 330 332 330 319 321
342 337 335 336 337 338 337 335 335 334 329 325 324 317 316 317 326 338 336 328 319 316 316 313 311 311 313 314 315 323 336 335 334 335 332 324 331 329 333 334 334 331 320
338 334 334 336 337 337 336 336 335 333 329 326 324 316 316 317 317 317 317 316 315 314 312 312 313 315 318 320 329 333 332 333 332 331 331 323 328 333 335 333 333 332 328
340 334 334 336 337 337 337 336 336 334 328 326 329 321 319 318 313 311 311 311 311 311 312 315 320 322 326 328 333 331 332 332 332 327 325 315 315 318 328 333 331 332 332
343 341 335 337 337 337 337 337 336 334 332 328 333 330 328 323 314 310 310 311 312 313 315 320 324 326 328 330 330 328 329 331 331 323 314 312 310 310 311 314 320 325 326
344 344 339 339 339 338 337 338 337 335 333 333 338 335 331 327 319 311 312 313 315 316 318 322 323 324 327 328 328 328 332 331 328 317 315 314 312 311 310 309 308 308 310
343 344 341 341 339 338 338 339 338 337 336 333 332 339 333 329 323 314 313 314 316 318 319 320 321 321 322 323 323 323 328 329 328 327 318 315 315 314 313 311 310 308 308
344 342 341 341 340 340 340 339 337 337 338 335 326 337 337 330 327 321 315 315 316 318 319 320 320 320 320 320 320 321 327 326 330 329 321 320 319 318 317 315 313 311 309
346 342 340 340 340 341 341 338 339 338 336 332 321 326 337 334 332 326 322 317 316 317 318 319 320 320 320 320 321 321 328 331 331 329 323 322 321 321 321 320 317 314 312
344 342 339 341 340 341 340 338 340 338 334 328 325 321 320 334 334 331 329 324 319 317 316 317 318 319 319 319 319 321 327 331 330 329 327 322 322 321 321 321 321 320 316
343 343 342 342 341 341 341 338 339 338 335 331 327 321 319 318 331 331 326 325 323 322 320 319 317 316 318 320 320 322 328 329 328 327 325 322 322 322 321 321 320 321 321
343 344 342 342 342 342 340 338 338 338 334 334 327 325 330 329 326 341 330 326 324 322 322 322 322 321 321 325 325 325 329 329 329 328 325 323 321 321 321 321 321 320 320
341 342 342 344 342 342 339 339 337 338 337 337 334 329 331 330 329 331 331 327 325 325 324 324 331 330 325 321 322 322 324 327 325 327 326 325 322 322 322 322 322 321 320
339 340 341 345 343 342 340 339 337 338 338 336 333 328 328 330 324 328 332 332 329 331 330 330 334 333 329 328 325 320 319 320 324 323 323 324 324 324 323 323 324 324 324
341 341 341 341 343 341 342 339 337 337 337 337 335 327 327 330 331 330 332 334 334 335 334 334 332 328 330 328 329 328 321 319 320 322 323 325 325 325 325 325 324 325 326
339 340 340 341 342 343 340 339 338 337 337 337 336 332 326 328 331 332 333 334 333 333 331 329 330 329 325 326 326 326 327 323 324 325 325 326 326 326 326 326 326 326 326
340 340 341 339 340 341 340 339 339 338 338 337 336 335 331 329 327 327 329 331 328 330 327 327 325 323 322 324 325 326 327 325 324 326 328 328 327 327 327 327 326 327 326
340 340 339 339 338 338 340 339 338 338 337 337 337 337 336 334 333 330 328 329 327 327 326 326 325 325 326 327 327 326 327 327 327 328 328 328 328 328 326 325 325 326 326
340 338 338 339 340 339 339 339 339 338 338 337 338 336 336 336 333 332 332 332 331 328 326 325 326 326 326 327 327 327 326 327 327 327 328 329 330 329 327 324 324 325 324
339 340 337 338 338 339 339 338 337 339 338 337 337 336 335 336 336 333 331 334 334 332 330 329 329 328 328 327 328 328 328 329 329 330 330 330 329 329 328 325 325 325 324
336 336 336 334 337 336 335 335 338 338 338 337 337 337 336 336 336 336 334 334 336 335 333 332 332 330 329 329 329 330 330 330 331 331 330 330 329 328 327 326 324 325 324
336 337 336 335 335 334 334 335 335 335 337 337 336 334 334 335 335 333 334 333 333 334 334 333 333 332 331 331 331 330 331 331 330 330 330 330 327 326 326 325 324 324 324
335 334 333 335 336 333 332 333 332 333 333 333 334 334 333 332 333 333 332 331 331 331 331 332 332 332 332 332 332 332 332 331 331 329 328 327 326 325 325 324 323 322 322
332 332 330 331 336 335 332 330 329 328 328 328 328 327 328 327 326 325 327 328 327 325 325 326 329 330 331 333 332 332 332 331 330 330 328 328 326 325 324 323 322 321 319
325 330 330 329 330 331 328 327 326 327 327 325 325 325 325 325 326 324 324 326 327 324 323 323 324 327 328 331 333 332 331 330 328 329 328 327 326 325 323 323 321 319 317

GFSSE_850_thetae_099.txt.gz
Theta_e
343 341 337 337 338 338 338 335 332 330 325 321 318 328 343 342 341 341 342 342 340 334 324 317 315 312 312 318 331 324 328 332 334 330 329 327 327 328 324 319 320 333 334
342 339 337 336 337 338 336 333 332 328 323 320 317 323 343 343 343 342 342 340 330 321 316 313 310 310 312 317 322 329 331 333 333 326 328 329 331 333 333 330 320 328 333
339 337 336 336 337 337 335 334 332 326 323 320 315 317 339 342 341 341 339 330 317 315 312 310 312 313 315 331 334 332 332 332 331 323 330 331 336 335 334 332 326 321 324
338 335 335 336 337 336 335 334 331 325 324 316 316 315 318 333 337 333 322 315 314 312 311 313 315 318 329 333 332 332 330 330 328 323 319 326 335 333 333 334 332 332 333
337 335 335 336 336 335 335 335 331 325 326 316 315 315 315 315 316 315 313 312 311 312 314 318 321 327 332 332 332 331 330 327 321 315 313 313 313 321 325 326 324 325 331
335 334 336 336 336 336 336 337 332 326 329 325 321 318 313 311 310 310 311 311 313 315 321 324 326 329 332 329 329 330 328 322 316 313 312 311 310 309 309 310 310 312 316
334 335 336 336 337 336 338 336 333 330 330 331 327 323 316 311 311 311 312 314 315 323 323 325 326 328 327 326 328 330 327 322 316 315 314 314 313 312 311 310 309 309 309
337 335 337 339 340 337 337 335 334 331 333 338 333 327 320 313 312 313 315 316 317 320 321 322 323 324 325 323 325 325 325 325 322 319 318 317 316 315 314 312 311 309 308
343 337 338 339 338 337 338 337 336 335 331 336 337 331 323 317 314 314 316 317 318 319 320 320 320 320 319 320 324 325 326 324 324 321 321 320 320 320 318 315 313 312 310
342 339 341 339 339 338 338 337 337 336 333 327 337 336 328 322 317 315 316 317 318 319 319 319 319 319 320 320 322 326 328 327 325 325 321 321 321 321 321 320 319 316 313
339 338 340 340 339 340 339 337 338 336 331 324 328 335 332 328 324 320 316 316 317 318 318 319 319 319 319 319 322 327 329 328 327 324 322 321 321 321 320 320 320 320 319
343 340 339 339 340 340 339 337 337 334 323 320 319 320 329 331 328 325 321 319 317 317 317 317 317 318 318 319 321 326 327 327 327 324 322 321 320 321 320 320 320 320 320
342 340 340 339 340 340 339 339 338 334 328 327 323 317 318 323 330 326 321 321 320 320 320 320 319 319 320 321 322 325 327 328 327 326 324 324 321 321 321 321 321 321 320
342 339 340 339 341 341 339 337 338 335 331 329 323 327 324 322 324 328 326 322 321 321 322 322 323 325 322 320 320 321 323 326 325 325 323 323 323 323 323 322 323 324 324
343 340 340 341 341 341 339 337 336 336 335 335 330 330 329 329 326 324 324 326 325 324 323 325 327 327 328 324 324 320 319 320 322 321 321 323 324 324 325 325 324 325 325
341 341 341 342 342 339 338 338 336 337 337 336 334 327 329 328 324 323 326 330 330 329 331 331 329 329 329 325 326 324 322 318 318 320 322 324 325 325 325 326 326 325 326
340 340 340 343 343 341 339 338 337 337 336 337 335 330 324 328 329 330 330 333 332 332 332 332 332 328 325 324 324 323 323 323 322 324 325 325 326 326 326 326 326 326 326
338 338 340 341 343 343 341 339 337 336 337 336 336 335 326 325 330 331 331 333 334 333 334 332 329 327 326 324 322 322 323 324 324 324 325 326 327 327 327 326 325 325 325
338 338 340 340 339 341 340 339 338 337 337 336 336 335 332 327 325 326 329 330 330 329 327 327 325 325 324 324 324 325 325 325 326 326 327 328 328 328 328 326 324 324 325
338 337 337 339 340 341 342 339 338 337 337 337 336 336 336 334 331 330 329 328 328 328 327 326 326 326 325 326 328 326 326 326 326 326 327 328 329 330 329 328 325 324 324
337 340 340 339 339 339 340 340 338 337 337 337 336 336 336 335 335 334 331 329 330 330 327 327 327 327 328 327 327 327 327 327 327 329 330 329 330 329 328 328 326 325 324
335 337 337 336 338 339 338 338 338 338 338 336 336 336 336 335 335 335 333 332 332 333 333 332 330 330 330 329 329 329 329 329 329 330 331 330 330 329 328 328 325 324 324
335 335 333 331 335 335 338 337 337 337 336 337 337 337 337 335 334 335 335 333 334 335 334 333 333 332 332 331 330 330 330 330 330 331 331 331 330 328 327 326 325 323 323
325 335 335 334 331 333 334 334 334 334 335 335 338 336 335 333 333 334 334 332 332 333 332 331 330 332 332 331 330 330 330 331 331 329 330 329 328 327 325 325 324 323 322
325 329 334 335 334 335 334 334 334 334 333 334 334 332 331 330 330 330 328 332 330 329 328 327 326 326 326 327 326 326 327 329 331 329 329 328 326 326 325 324 323 322 321
330 330 334 337 336 335 333 332 333 330 330 328 328 326 326 325 326 326 325 325 328 328 326 324 324 324 323 324 325 326 327 328 331 331 328 327 324 324 322 323 322 321 319

GFSSE_850_thetae_105.txt.gz
Theta_e
344 339 338 338 338 335 331 326 324 320 318 321 320 328 333 334 334 339 339 338 335 323 319 335 334 333 328 327 329 326 325 328 332 335 334 322 322 333 333 333 333 333 331
342 339 338 338 337 334 329 325 321 318 338 339 326 327 332 334 338 341 339 332 322 315 314 331 331 327 329 331 331 325 325 330 333 334 334 332 324 322 326 330 332 332 335
339 337 338 338 336 333 330 325 320 322 341 342 342 340 339 340 341 340 333 324 314 310 311 320 322 327 330 330 331 324 322 328 334 335 334 334 333 330 330 327 327 333 335
338 337 338 338 335 332 329 323 320 321 340 342 342 342 342 341 340 337 328 314 310 311 314 318 325 330 332 328 320 318 317 317 321 328 328 329 329 328 331 334 332 332 331
337 337 338 340 334 331 328 322 320 317 338 341 341 341 341 340 338 332 314 310 311 313 318 329 332 330 327 322 317 315 313 312 312 312 312 312 314 313 312 315 325 328 328
337 337 339 337 333 332 326 321 317 315 323 339 340 340 339 338 331 314 311 312 314 317 327 330 327 325 324 320 317 315 314 313 313 313 312 312 312 311 310 310 310 309 309
340 339 339 337 333 331 325 321 314 315 314 319 335 338 335 322 313 311 312 315 318 323 327 327 322 323 322 319 317 316 316 316 316 316 316 316 315 314 313 312 311 309 309
341 341 339 337 333 332 324 323 316 315 314 313 314 315 313 311 311 313 317 320 321 324 326 323 322 321 322 320 321 320 320 319 320 320 320 319 319 318 317 315 313 312 310
340 340 338 338 336 332 324 326 323 321 318 311 310 310 310 311 313 316 319 320 322 323 323 322 321 321 321 321 322 322 322 320 320 320 320 320 319 319 320 319 318 316 313
340 340 337 338 337 333 333 328 332 327 322 314 311 311 312 314 315 318 319 319 320 320 321 321 320 320 322 321 322 323 322 322 320 319 319 319 319 319 319 319 319 319 318
340 337 338 338 337 334 333 331 336 334 328 319 313 313 314 316 317 318 318 319 319 319 320 319 319 320 321 322 322 324 322 321 321 320 319 320 320 320 320 320 320 319 319
339 337 339 338 336 335 333 332 335 337 334 323 316 314 315 316 317 318 318 319 319 319 319 319 319 319 321 323 325 325 325 324 323 321 322 321 321 321 321 321 322 322 321
338 338 339 338 337 336 335 336 331 333 335 329 321 317 315 316 317 318 318 318 319 319 319 319 319 319 319 322 324 324 324 325 323 323 322 322 322 323 322 323 323 324 324
337 339 339 337 338 337 337 336 333 327 330 331 326 322 319 317 316 317 317 317 317 317 317 317 317 318 320 321 322 323 324 324 323 322 322 322 323 324 324 324 324 324 324
335 339 338 337 338 337 337 335 329 324 322 323 326 327 324 321 320 319 318 318 319 319 319 319 319 321 321 321 321 321 321 322 321 321 321 322 324 324 325 325 325 324 325
334 337 338 338 337 337 336 332 329 322 323 321 319 320 323 325 324 322 322 322 323 322 322 322 325 327 328 325 323 323 321 319 319 319 321 322 324 325 325 325 325 325 325
330 338 340 339 338 338 337 336 333 325 325 320 319 319 321 321 323 324 325 324 326 326 325 325 328 327 327 326 325 326 325 324 321 320 322 324 325 326 327 326 326 326 324
340 337 340 339 339 338 338 337 336 330 328 325 323 323 323 325 324 322 321 325 329 329 329 330 330 329 328 326 326 324 324 324 324 323 323 324 326 327 327 327 326 324 324
341 339 338 338 339 339 338 336 335 332 331 329 331 331 329 324 323 324 325 327 329 331 331 330 330 330 329 328 328 326 323 323 324 325 325 325 326 327 328 328 328 326 324
340 338 337 338 338 339 338 336 335 335 334 333 333 334 333 332 327 324 326 328 329 330 331 331 331 330 328 327 326 325 324 324 326 326 326 327 328 328 329 328 328 327 326
336 337 337 337 339 340 338 337 337 336 336 336 336 335 335 334 332 329 325 326 328 330 331 331 329 328 327 326 326 326 326 326 326 326 327 327 328 329 329 328 327 326 326
334 336 337 338 337 337 338 338 337 337 336 336 335 335 335 335 333 334 333 333 330 329 329 329 328 327 327 327 328 328 328 328 328 328 328 328 329 329 329 328 328 327 324
335 337 337 337 336 337 336 336 336 336 336 336 336 336 335 335 334 334 333 334 333 332 330 330 331 331 329 329 329 330 330 330 330 329 329 328 329 329 328 328 328 327 324
332 334 335 336 337 336 335 335 335 335 335 328 335 335 335 335 335 335 335 334 335 332 331 330 331 331 328 328 328 328 328 328 329 327 327 327 327 328 328 327 327 326 323
329 333 333 334 336 336 335 336 335 335 335 333 334 336 336 335 335 336 336 334 333 333 332 330 329 331 328 327 327 329 327 328 327 326 325 324 325 326 326 326 326 324 322
326 327 329 331 333 334 335 336 335 335 334 334 336 337 335 334 334 333 333 332 330 330 328 330 330 325 326 327 326 325 324 323 324 325 323 321 322 325 324 326 325 324 322

GFSSE_850_thetae_108.txt.gz
Theta_e
343 339 340 338 336 335 333 329 328 324 321 321 324 335 338 337 335 340 337 336 331 324 337 335 333 333 328 325 324 328 333 335 334 322 322 332 332 333 333 332 334 333 332
342 339 340 339 337 334 329 325 322 318 317 321 331 336 336 334 339 339 337 329 320 331 337 337 333 330 329 325 325 332 334 333 333 331 327 322 323 326 328 330 333 334 333
342 339 340 339 336 331 325 323 319 335 331 330 334 335 334 337 340 338 331 320 315 327 335 334 329 329 330 324 321 327 333 333 331 330 333 331 332 330 332 333 334 333 332
341 339 341 338 334 329 325 320 332 340 340 337 337 336 337 340 340 333 324 313 310 316 321 330 329 327 324 318 317 317 320 322 326 322 321 326 326 329 331 330 328 325 321
339 338 341 337 333 328 324 319 334 341 342 341 341 341 341 340 337 331 314 310 311 315 324 332 329 322 317 315 314 313 313 312 312 312 312 312 312 311 313 315 312 310 309
337 339 340 335 332 328 322 319 330 340 341 342 341 342 340 339 334 315 310 311 314 323 332 327 322 318 317 315 314 314 314 314 314 315 314 314 313 312 311 311 310 310 309
337 339 339 335 331 328 321 319 321 338 341 340 341 339 337 336 317 311 311 314 320 325 323 321 320 318 317 316 316 316 317 317 318 318 318 317 316 315 314 313 312 311 310
337 340 340 335 330 327 320 316 315 329 339 339 339 337 336 318 311 312 314 318 323 323 320 319 320 319 319 319 319 319 319 319 319 319 319 319 319 319 318 317 315 314 312
338 339 339 336 331 325 320 314 314 315 323 332 334 329 316 311 312 315 318 321 322 321 320 320 320 320 321 322 321 321 320 320 320 319 319 319 319 319 319 319 318 317 315
339 339 338 337 332 325 322 316 315 313 313 314 314 311 311 312 316 318 320 321 322 321 321 320 321 321 321 322 322 322 322 320 319 319 319 319 319 319 319 319 319 319 319
339 339 338 336 335 327 325 325 320 316 311 310 310 311 312 315 318 319 320 320 322 322 322 321 321 322 322 322 323 323 321 321 320 321 320 320 321 320 321 321 321 321 320
340 338 337 336 335 332 328 333 327 321 313 311 312 313 314 317 318 318 319 320 320 321 321 320 320 321 322 323 323 323 323 322 322 322 321 321 322 322 322 322 323 323 323
340 337 337 337 336 334 331 335 335 329 318 312 313 315 316 317 318 318 319 319 320 320 319 319 319 320 321 322 323 323 323 323 322 322 322 322 322 323 323 323 323 323 323
339 337 338 337 336 333 331 335 336 334 324 316 313 315 316 317 318 318 319 319 319 319 319 319 319 319 320 321 322 323 322 323 322 321 321 322 323 324 324 324 324 324 324
330 332 339 337 336 335 333 332 334 336 330 322 317 315 316 317 317 318 318 319 319 318 317 317 317 319 321 322 322 321 322 321 321 321 321 322 323 324 324 325 324 324 324
329 327 337 337 336 336 335 335 333 330 333 331 324 320 319 317 316 317 317 317 317 318 319 319 319 321 324 323 322 321 322 321 320 319 320 321 323 324 325 325 326 326 324
330 328 336 338 336 336 336 336 332 327 327 329 329 327 323 322 321 321 320 320 322 322 322 323 324 327 328 327 325 325 325 325 325 320 320 322 324 326 327 327 326 325 325
329 327 327 338 336 336 336 335 331 322 322 321 321 320 323 324 323 323 324 325 326 326 326 325 327 328 328 327 326 325 323 324 324 324 322 323 324 326 327 327 327 325 324
326 332 336 334 337 336 337 335 333 326 327 322 320 319 322 323 324 324 321 322 327 329 329 330 330 329 329 328 326 326 325 323 323 323 325 325 324 325 327 328 328 327 325
337 336 330 335 336 338 337 336 336 334 329 326 325 326 325 325 324 324 325 326 327 328 330 329 329 330 329 327 326 325 324 324 324 325 326 326 326 327 328 328 327 327 325
335 335 336 336 337 338 338 337 337 335 333 333 333 333 333 331 329 326 325 326 327 327 328 329 331 329 328 327 327 326 325 326 326 325 325 326 326 327 328 328 328 327 326
335 337 338 339 338 339 338 337 335 335 334 336 334 335 335 334 333 332 331 329 328 328 329 330 330 329 328 328 328 328 327 328 328 328 327 327 327 327 328 329 328 327 327
333 334 336 337 336 337 336 337 336 335 335 336 335 335 333 333 335 333 334 333 333 333 331 330 330 329 328 329 329 329 329 329 329 328 326 328 328 327 326 327 327 327 328
329 333 331 333 335 336 336 336 333 332 334 334 333 333 331 332 333 334 334 334 333 333 333 331 331 331 328 327 329 327 327 327 328 328 327 327 326 326 327 323 325 327 326
332 331 331 332 336 336 335 334 328 327 332 331 331 329 331 333 334 334 335 335 334 333 332 331 329 327 327 328 327 323 325 327 328 328 327 326 325 324 322 323 323 324 326
331 330 328 332 331 335 335 335 334 333 333 332 331 331 332 329 334 334 333 330 327 325 331 331 329 329 329 328 327 327 327 326 325 324 324 325 322 322 323 322 320 322 325

GFSSE_850_thetae_111.txt.gz
Theta_e
340 339 340 336 333 332 331 330 328 326 326 332 336 337 339 335 338 339 337 335 331 334 334 335 325 334 326 329 335 336 333 321 327 332 332 333 333 333 334 335 335 333 327
339 339 340 336 335 334 332 329 328 326 325 328 333 336 337 336 340 337 336 327 336 335 336 330 329 326 331 333 335 334 332 328 324 322 323 323 325 327 333 334 334 334 325
340 339 341 337 336 335 330 327 324 319 327 329 331 335 336 338 339 337 329 326 336 336 333 332 331 324 322 331 332 331 329 326 325 329 331 333 334 334 334 333 330 322 313
339 340 342 337 336 332 326 322 320 319 327 329 333 335 338 338 339 332 321 323 331 334 331 329 328 323 317 321 320 320 321 318 315 315 314 322 329 328 327 320 314 309 309
339 340 340 338 335 329 323 320 335 329 329 334 335 336 338 339 335 326 313 324 328 331 328 324 318 316 314 313 314 313 313 313 313 313 313 312 312 312 312 310 310 310 309
339 339 340 337 332 326 321 328 340 340 337 337 337 339 340 338 332 314 310 314 329 328 325 319 316 315 314 314 314 314 314 314 314 315 315 314 313 312 312 312 311 311 310
339 339 340 336 331 326 320 336 341 341 340 340 341 340 339 335 322 311 312 318 327 324 320 318 317 316 316 316 316 316 317 318 318 318 318 318 317 316 315 315 314 313 311
339 340 339 335 329 325 319 333 339 341 341 341 340 339 337 330 312 311 314 323 324 321 319 318 317 317 318 318 319 319 319 319 319 319 319 319 319 318 318 318 317 316 314
340 340 339 334 329 324 319 325 337 340 340 339 339 336 333 314 311 313 318 323 323 321 319 319 319 320 320 320 320 320 320 319 319 319 319 319 319 319 319 319 319 318 317
340 340 339 333 329 323 320 318 332 339 339 338 335 334 317 311 313 316 321 322 321 320 320 320 320 322 322 322 322 321 320 319 319 320 320 320 320 320 320 320 320 320 319
340 340 339 333 328 322 315 315 320 334 337 331 332 319 311 312 316 318 321 321 321 321 321 321 321 321 322 323 322 321 320 320 320 320 321 321 321 321 321 322 322 322 321
340 340 338 334 328 321 315 315 314 317 323 319 314 311 312 315 318 319 321 321 322 322 321 320 321 321 323 323 323 322 321 321 321 321 321 321 322 322 322 322 322 322 323
339 339 338 335 329 323 320 319 315 311 311 311 311 312 315 318 319 320 321 322 321 321 321 320 320 321 321 322 323 323 323 322 321 321 322 322 322 323 323 323 323 323 323
339 339 337 335 332 326 332 324 319 312 311 311 311 313 318 319 320 320 321 321 320 320 320 319 319 319 320 321 322 322 322 322 322 321 322 323 323 324 324 324 324 324 323
339 338 337 336 333 329 334 333 326 318 312 312 314 315 318 319 319 319 319 320 319 319 319 319 319 319 319 321 322 321 321 321 321 321 321 322 323 324 324 325 325 325 323
336 337 337 336 335 333 330 335 332 324 316 313 315 316 317 318 318 319 319 319 319 319 318 318 318 319 321 322 322 321 321 320 320 319 320 321 323 324 325 326 327 326 324
329 335 338 336 336 334 331 333 336 334 326 318 314 315 316 317 318 318 318 318 317 317 317 319 319 321 325 327 326 324 325 325 324 322 319 321 323 324 326 327 327 326 324
333 330 337 336 335 335 334 333 331 332 332 329 323 319 317 316 317 317 317 318 319 321 321 322 323 326 327 327 326 326 324 323 324 324 323 322 323 325 326 327 327 326 324
334 336 336 329 331 336 335 335 334 331 328 330 330 329 324 323 323 322 323 325 325 326 326 326 326 328 328 328 327 326 326 325 323 322 323 324 324 324 325 327 328 328 326
334 332 331 324 326 335 336 336 335 329 323 323 323 323 325 326 324 325 325 326 326 329 329 329 329 330 330 329 327 326 326 325 324 324 324 325 326 326 326 327 327 326 325
334 334 331 329 338 337 335 336 334 330 322 326 323 320 320 323 325 326 325 324 327 328 329 331 331 331 330 328 327 326 326 326 326 327 326 326 326 326 326 327 328 327 327
332 332 329 333 338 338 337 336 334 334 327 327 323 325 327 327 326 325 326 327 328 328 329 330 331 331 330 328 327 327 328 328 328 327 327 327 327 327 327 327 328 328 327
334 331 332 337 339 338 336 336 336 336 335 332 331 332 333 332 332 331 330 328 327 328 329 330 330 330 329 328 328 329 329 327 327 328 328 327 326 328 328 327 325 326 326
329 332 336 337 338 336 337 335 336 336 335 333 333 333 334 333 332 333 331 329 329 329 329 330 330 329 328 326 326 327 328 327 327 327 327 327 327 327 326 326 324 324 325
331 330 334 334 329 331 336 335 335 334 332 333 334 333 332 331 330 332 332 332 332 332 326 326 330 326 326 326 327 327 326 325 325 326 327 326 325 325 324 323 320 322 320
331 331 331 333 328 326 327 334 334 332 329 331 332 330 328 327 330 331 331 333 332 330 327 325 327 330 329 328 328 327 327 326 326 325 325 323 323 323 323 321 323 321 320

GFSSE_850_thetae_114.txt.gz
Theta_e
344 345 335 331 332 336 339 340 339 340 339 338 337 341 339 340 339 338 337 330 334 337 331 334 329 330 336 337 326 324 332 333 333 333 333 333 334 334 334 335 333 324 317
344 343 339 335 333 333 335 335 335 335 337 338 335 341 338 338 339 338 333 335 333 335 326 330 326 335 336 336 330 323 323 325 324 324 325 326 332 334 334 333 323 313 311
344 345 340 335 332 332 331 330 328 326 328 335 333 338 336 338 341 338 331 336 334 332 327 332 332 335 334 332 329 326 325 327 329 333 338 336 335 333 329 319 311 310 309
345 348 342 336 333 332 330 328 327 326 325 330 332 336 338 340 340 333 332 329 336 335 333 323 321 329 328 327 324 320 318 320 321 328 332 331 331 316 313 310 310 310 310
346 346 344 336 335 334 329 326 322 320 324 328 332 336 339 340 336 324 329 333 332 330 330 323 317 318 318 315 316 316 315 313 313 322 326 329 327 311 311 311 311 311 311
346 346 343 337 336 333 326 321 320 327 331 332 336 337 339 339 330 317 332 334 332 327 323 317 315 314 314 314 314 314 314 315 317 323 324 317 316 313 313 313 313 312 311
346 347 344 337 335 330 323 323 327 332 333 336 336 339 338 334 321 316 333 331 328 324 317 315 314 314 315 316 316 317 318 318 321 322 327 322 317 317 317 316 314 313 312
346 346 343 338 333 326 321 337 338 335 335 336 338 340 338 331 312 313 331 329 325 319 317 316 315 316 317 318 319 319 319 319 320 320 320 319 318 318 318 317 317 316 315
345 344 342 338 330 324 331 340 341 339 338 339 341 340 336 322 311 315 330 327 322 318 318 317 317 318 319 319 319 319 319 319 320 320 326 320 319 319 319 319 319 319 318
343 343 341 340 329 325 335 340 341 341 341 340 340 339 332 312 312 324 329 325 321 319 319 319 320 320 320 320 320 319 319 319 321 323 324 320 320 320 320 320 320 320 320
344 342 340 339 336 334 333 339 341 341 340 339 339 335 318 311 316 329 332 324 321 321 320 321 322 321 322 321 320 319 320 324 326 327 323 321 321 321 322 322 322 322 321
343 342 340 339 336 334 335 337 341 341 339 338 336 330 321 325 331 335 332 327 322 322 321 321 321 322 323 323 322 321 326 326 326 326 321 321 322 322 322 322 322 322 322
341 342 340 339 337 334 332 336 339 341 340 336 334 328 329 331 331 332 336 335 324 323 322 322 322 323 323 327 324 328 328 328 327 324 322 322 322 322 323 323 323 323 322
339 340 339 337 337 332 330 330 334 339 338 333 331 329 328 331 332 332 336 334 326 329 323 321 323 322 322 323 326 326 328 328 327 325 322 322 323 323 324 324 324 323 321
329 340 338 335 335 332 330 329 329 330 330 329 328 328 326 325 330 331 331 331 330 326 321 320 321 320 322 323 322 323 322 324 322 322 327 322 323 324 324 325 325 323 322
332 339 338 335 333 335 331 330 327 327 328 328 327 329 323 328 330 330 329 328 325 321 320 320 320 320 320 324 323 321 321 320 320 320 323 323 322 324 325 326 327 326 324
336 337 337 335 333 334 332 330 328 321 323 326 324 327 329 329 326 322 321 321 321 320 319 319 319 321 326 325 328 324 324 325 323 322 319 322 323 324 325 326 328 326 323
334 330 337 336 334 334 327 332 323 316 314 319 322 323 324 323 320 320 320 319 319 319 318 317 319 323 330 329 329 327 326 324 324 324 324 322 322 324 325 326 327 327 324
328 327 336 336 336 335 330 332 334 329 320 315 317 318 318 318 319 319 319 319 317 318 320 322 323 328 329 329 328 326 326 326 325 323 322 323 323 323 324 326 327 328 327
328 331 337 336 337 336 333 332 334 336 333 327 319 316 316 317 317 317 317 319 321 325 326 326 326 329 330 330 328 326 325 324 323 323 322 323 324 325 325 325 327 327 327
329 333 337 338 337 337 334 334 333 332 331 333 331 329 324 322 322 323 325 328 329 329 329 330 331 331 330 329 327 328 325 325 326 326 326 326 326 326 326 327 327 328 327
332 333 331 336 338 336 336 335 335 335 332 327 328 328 327 327 328 327 327 327 327 328 330 330 331 331 330 328 328 329 330 330 328 327 327 327 327 327 326 327 327 328 328
331 333 335 336 335 337 337 334 335 335 331 324 324 323 323 321 323 326 327 328 327 328 329 329 330 331 330 328 328 329 330 330 329 327 327 328 326 327 327 327 327 326 325
332 335 336 337 339 337 337 336 334 335 332 322 325 322 322 326 327 327 327 328 328 328 329 329 330 330 329 328 328 326 327 328 330 328 327 326 326 327 327 327 326 326 324
332 332 335 335 335 339 334 336 335 336 333 330 328 326 330 331 331 330 329 329 329 329 329 329 328 325 325 327 327 327 327 327 326 326 326 327 326 323 324 323 323 321 320
331 326 330 333 336 335 336 335 335 335 335 334 331 331 333 332 331 331 331 331 330 330 329 327 326 324 325 327 327 328 328 327 325 324 325 325 324 323 322 322 321 320 322

GFSSE_850_thetae_117.txt.gz
Theta_e
345 346 338 335 338 337 339 339 340 339 339 338 340 340 338 339 338 337 333 338 337 333 335 324 329 332 319 327 335 336 335 334 333 333 334 334 335 335 333 321 314 311 310
346 343 332 334 334 338 339 339 339 339 339 337 339 340 339 340 338 337 332 336 337 332 331 333 338 338 332 324 331 331 329 328 326 327 331 333 334 330 324 314 311 310 310
347 343 330 331 334 338 339 339 339 339 339 337 337 341 339 339 338 334 333 333 333 327 325 337 338 337 332 325 322 322 323 329 335 335 334 334 328 317 311 310 310 310 312
347 345 337 332 332 335 337 338 337 337 336 336 336 340 337 339 337 334 335 332 327 330 333 336 335 336 328 323 322 326 329 330 333 334 332 331 316 312 311 311 315 315 313
347 345 347 334 333 332 333 331 329 329 331 333 333 338 337 340 338 334 330 336 336 328 322 331 329 326 323 318 316 315 314 316 324 330 330 326 314 312 314 313 312 312 314
346 344 345 336 332 331 330 329 328 327 328 331 333 337 339 341 335 331 335 335 334 330 319 321 321 317 315 315 315 314 315 324 329 328 321 318 315 315 315 314 314 313 313
345 344 344 337 334 334 331 328 326 326 327 331 335 337 339 340 329 329 334 330 330 326 317 315 314 314 315 315 316 316 319 327 330 330 326 318 318 317 317 316 315 314 315
345 344 344 341 335 334 329 323 322 329 331 333 336 338 340 333 328 332 334 331 325 318 315 314 314 315 317 318 319 319 320 327 330 329 320 318 318 318 318 318 317 316 315
344 344 345 341 336 334 326 322 331 333 332 336 337 339 338 326 321 332 332 328 322 317 315 315 316 317 319 319 319 319 320 326 330 329 325 319 319 319 319 319 319 318 317
340 343 344 341 337 333 326 332 335 334 336 338 339 340 335 317 320 333 329 329 320 317 316 316 318 319 319 319 319 319 320 327 329 328 320 320 320 320 320 320 320 320 319
336 342 343 341 339 338 333 339 337 336 337 338 339 340 329 314 327 334 332 326 320 318 319 320 320 320 320 320 319 320 326 329 330 328 320 320 321 321 321 321 321 321 321
328 337 343 340 337 338 337 340 340 339 339 340 339 338 323 324 333 336 332 325 321 320 321 322 322 322 321 320 320 324 329 329 330 329 321 321 321 322 322 322 322 321 321
327 330 338 340 336 338 338 339 341 341 340 339 338 333 328 329 334 334 333 327 324 323 322 323 322 325 332 331 327 330 329 329 329 328 321 321 322 322 323 323 322 320 320
328 326 333 339 336 335 337 338 341 341 339 337 336 330 328 331 333 335 331 327 325 325 324 323 326 331 330 330 330 330 330 329 329 330 322 322 322 323 323 324 323 321 320
331 328 326 338 336 333 336 336 338 339 337 336 335 328 329 332 334 334 334 335 331 332 330 330 330 330 329 329 329 328 328 330 329 329 328 322 322 323 324 324 325 323 322
332 330 330 336 335 333 332 337 336 337 335 334 332 329 331 333 334 333 333 335 333 333 331 329 328 328 328 328 328 327 325 325 327 328 329 324 322 323 324 325 327 326 324
325 335 335 336 335 332 331 331 333 336 336 331 330 330 332 333 333 333 333 334 333 332 329 327 327 326 328 329 329 328 326 326 324 324 326 327 324 322 324 325 329 328 324
325 335 332 334 333 333 331 329 329 330 329 329 329 331 333 333 333 333 333 332 331 329 327 326 325 326 330 332 333 331 329 328 328 328 325 324 326 326 324 325 326 327 326
323 333 333 334 333 334 332 331 329 328 329 328 329 331 332 332 332 331 330 329 328 326 326 325 325 329 332 331 329 329 327 325 324 327 327 326 325 325 327 329 326 327 327
325 329 332 328 334 335 333 331 329 327 327 328 329 329 330 330 329 329 328 327 326 325 326 325 330 331 333 332 328 326 325 325 327 326 327 327 326 325 325 327 328 327 328
326 325 333 333 336 334 333 336 331 329 327 326 325 326 326 327 326 325 326 328 326 326 329 327 327 327 329 328 328 328 329 330 329 327 326 326 327 325 326 327 329 329 328
326 324 329 328 336 335 333 334 335 332 331 327 323 324 320 324 322 322 328 329 329 331 332 330 330 330 330 328 329 331 331 331 330 328 327 326 327 327 327 326 327 327 327
326 325 326 331 337 336 335 337 336 335 334 332 331 330 328 328 326 323 332 331 330 329 331 329 329 329 330 332 330 331 330 331 331 330 327 327 328 326 326 326 327 327 327
326 326 328 327 336 336 336 334 334 334 333 332 332 332 332 330 330 329 330 326 326 325 328 328 328 329 330 333 330 328 328 326 329 329 328 327 326 326 327 327 327 327 326
325 326 327 330 332 336 336 335 335 335 333 330 328 328 326 325 323 323 325 327 327 328 328 329 329 330 330 330 327 328 327 327 327 327 327 325 327 325 323 324 324 324 322
325 325 330 330 332 334 333 334 335 336 335 331 328 331 327 324 322 327 328 327 328 328 328 329 329 327 326 329 326 328 327 329 328 325 324 325 325 324 323 322 322 321 320

GFSSE_850_thetae_120.txt.gz
Theta_e
347 342 336 339 338 337 338 339 340 338 338 337 338 337 337 337 337 332 338 333 332 330 322 321 319 327 336 338 337 335 334 333 334 333 334 335 330 321 314 312 311 311 310
346 342 335 339 338 335 338 338 339 338 337 338 339 337 338 338 335 335 338 333 337 323 335 339 333 323 333 335 334 332 329 326 328 331 332 329 322 314 311 310 311 313 315
346 343 335 338 337 335 338 339 339 339 338 337 340 338 339 338 336 334 335 335 334 329 338 338 337 322 328 329 326 324 330 332 332 330 321 316 312 311 311 311 312 314 316
347 344 336 337 337 334 338 338 339 339 338 336 339 339 339 338 336 335 333 333 328 335 338 337 335 326 321 321 323 331 332 333 333 331 323 313 313 313 315 317 322 317 317
346 346 334 336 336 337 338 338 339 339 338 336 337 339 337 338 335 333 331 327 326 334 336 334 332 320 318 323 326 327 331 331 331 329 318 314 315 316 315 314 315 315 317
346 347 334 334 336 338 338 338 338 337 335 334 337 339 336 338 335 330 332 330 328 331 332 325 319 317 316 315 314 317 323 326 323 320 317 316 317 316 316 316 315 315 316
347 346 344 332 334 335 335 334 332 329 330 332 334 337 338 339 332 329 336 335 325 320 324 318 316 315 315 315 316 323 329 330 327 320 318 318 318 317 317 317 317 316 315
345 345 344 339 333 333 331 330 328 327 328 330 333 337 339 339 329 335 336 333 326 317 316 315 315 315 316 317 319 324 328 329 324 319 318 318 318 318 318 318 318 317 316
343 342 342 342 335 332 331 330 328 327 327 329 335 338 339 338 328 334 332 328 322 316 315 315 316 317 318 319 319 323 328 328 325 319 318 318 319 319 319 319 319 318 317
338 342 343 343 339 336 333 328 325 331 331 330 336 339 339 332 330 333 332 324 317 315 315 316 317 319 319 319 319 322 326 327 326 321 319 319 320 320 320 320 320 320 319
341 342 343 342 342 337 333 325 327 334 333 335 337 339 338 326 332 333 330 323 317 315 316 317 319 319 319 319 320 326 328 330 327 319 319 320 321 321 321 320 320 320 320
340 338 342 341 341 337 335 328 332 334 333 337 339 339 336 321 333 332 330 325 318 317 318 319 320 320 320 319 323 327 328 329 327 321 320 320 321 322 322 321 319 319 320
337 335 342 340 340 338 337 334 334 335 336 338 338 339 324 322 333 332 330 330 319 319 320 321 322 323 323 322 329 329 329 328 326 321 320 321 321 322 323 322 320 319 320
335 335 333 338 338 339 337 337 337 337 337 338 338 337 321 330 332 331 330 323 320 321 322 322 324 329 331 331 330 329 329 329 329 325 321 321 321 322 323 323 322 321 320
331 330 334 330 331 336 336 335 339 338 338 338 337 329 327 331 332 331 329 324 323 322 322 323 327 330 330 329 329 329 330 329 329 326 326 321 322 322 323 324 325 324 321
321 326 333 330 330 328 339 335 339 339 339 338 336 328 328 333 331 332 330 325 325 330 326 328 330 328 329 329 328 327 324 329 328 328 326 325 321 322 323 324 326 326 324
321 321 327 331 331 327 330 334 340 339 337 337 335 329 328 333 331 333 329 325 330 332 331 329 328 328 327 328 328 327 325 324 324 323 325 325 325 323 323 324 326 328 325
321 320 321 328 332 329 333 335 336 337 336 336 332 329 330 332 332 334 331 331 332 332 331 327 326 326 327 326 330 330 329 328 328 327 326 325 325 325 325 325 325 326 327
319 319 319 327 332 328 332 334 334 335 336 333 333 329 331 332 333 330 331 333 333 330 328 326 323 323 328 329 331 331 329 327 326 327 328 327 326 325 325 327 328 326 326
320 318 319 326 333 329 331 330 332 334 335 332 330 329 326 332 332 333 333 333 331 327 325 322 321 325 328 329 328 327 327 328 328 327 326 327 326 326 325 325 326 326 326
317 317 319 325 333 331 330 329 329 330 330 329 329 331 330 332 332 332 331 329 327 323 321 319 321 325 329 331 330 328 329 329 327 327 327 326 327 326 326 326 326 325 328
316 317 322 325 331 329 331 329 328 328 329 328 328 331 332 332 331 328 328 327 323 322 320 322 324 326 328 329 329 331 331 331 331 329 327 326 326 327 327 327 327 327 327
316 317 323 325 331 334 331 330 328 327 327 328 329 329 331 330 327 327 326 323 322 323 323 325 328 329 329 332 331 330 330 330 331 330 329 328 327 327 326 326 326 327 327
319 321 325 326 327 334 332 330 328 327 327 326 327 326 327 327 326 326 325 325 321 325 326 328 330 330 331 334 333 329 328 327 326 329 328 327 326 325 326 325 325 327 327
324 326 323 328 330 330 328 332 332 331 330 326 325 326 325 327 326 324 326 322 323 327 327 329 328 328 329 331 331 328 327 327 326 328 327 327 324 325 325 323 322 322 323
327 325 325 323 323 328 333 333 331 333 332 331 330 329 330 328 329 329 327 326 327 327 327 327 328 329 330 328 328 328 326 327 328 328 326 325 324 324 323 323 322 321 321

GFSSE_850_thetae_123.txt.gz
Theta_e
347 339 339 339 340 337 336 338 338 337 336 335 336 337 336 337 332 333 321 321 322 333 330 318 331 335 336 336 335 335 334 333 333 334 330 318 314 312 311 311 311 312 311
346 341 339 340 339 337 336 338 338 337 336 337 336 337 337 335 334 335 329 322 321 320 317 326 335 337 336 334 332 329 328 330 330 330 321 314 311 311 311 312 313 316 317
345 342 335 340 338 337 337 339 338 337 335 337 336 336 338 335 336 334 335 325 334 338 338 322 331 333 332 331 326 331 332 333 326 316 312 312 312 312 313 314 316 320 328
344 342 335 338 338 336 337 338 338 337 336 338 337 337 338 335 336 333 335 328 337 338 338 327 325 327 325 324 331 332 332 332 324 317 314 314 315 316 318 316 315 319 319
345 344 336 337 338 336 337 338 338 338 336 336 339 337 339 336 336 331 331 326 336 337 336 328 320 320 321 328 330 329 330 329 325 317 315 316 317 316 316 315 318 322 322
341 344 338 334 336 337 337 338 339 338 337 335 339 337 338 336 335 334 327 324 335 335 334 323 318 320 324 326 326 329 327 326 323 316 317 317 318 318 317 317 322 322 322
344 344 340 332 334 336 337 337 338 338 337 334 337 338 336 337 334 332 324 325 333 331 323 317 316 315 314 316 322 324 322 321 318 318 317 317 318 318 318 318 317 316 319
337 343 343 332 331 335 338 337 337 338 336 334 336 338 337 336 332 332 331 324 327 326 318 316 316 315 315 320 326 327 324 322 319 318 318 318 318 318 318 318 317 317 318
340 343 344 338 332 332 336 337 335 334 331 332 334 336 338 338 326 336 335 327 319 320 316 315 315 316 317 322 326 327 325 320 318 318 318 318 318 319 318 318 318 318 317
339 342 342 342 333 332 331 332 333 329 328 331 334 337 339 338 326 336 334 329 320 315 315 315 317 318 319 320 324 325 324 322 319 318 319 319 319 319 319 318 318 319 318
337 338 340 342 337 333 331 330 334 334 331 331 335 337 339 338 326 336 330 326 317 315 315 316 318 319 319 320 323 327 326 325 320 319 319 320 320 321 319 318 317 319 319
337 337 338 342 341 334 332 331 330 330 330 332 335 338 339 334 329 333 329 322 316 314 316 318 319 319 319 322 325 328 327 324 321 319 320 320 321 322 321 319 317 319 319
331 335 338 339 339 339 334 332 327 328 331 331 335 338 338 330 331 333 328 320 316 315 317 319 319 319 320 325 326 328 327 325 322 320 320 320 321 322 323 321 319 319 320
323 331 335 338 338 339 338 333 325 330 334 333 335 337 339 328 331 331 326 319 316 317 319 321 321 324 324 329 328 329 329 327 326 322 320 321 321 322 323 323 322 321 320
322 323 327 335 339 338 339 335 327 332 334 332 337 337 339 326 331 330 327 319 318 319 321 323 326 328 329 328 330 329 329 328 327 325 325 321 322 322 323 324 324 324 321
319 322 322 331 335 337 338 337 332 333 334 335 338 337 335 322 331 330 326 320 319 321 322 323 325 327 329 329 329 329 330 329 329 326 326 326 323 322 323 324 325 326 324
317 318 321 323 329 333 333 330 335 335 336 336 337 338 326 323 331 330 325 323 321 321 322 326 327 327 327 328 327 326 323 325 326 324 325 325 324 324 322 323 324 327 326
314 316 319 322 326 331 330 329 328 336 337 336 337 333 327 322 331 330 325 323 326 328 328 326 328 326 326 327 328 327 326 326 327 327 327 326 324 324 323 324 325 325 326
313 317 317 317 322 326 329 330 328 336 336 337 336 330 329 324 331 331 328 325 330 330 331 326 325 323 324 326 328 331 329 329 328 327 328 327 326 325 324 324 324 326 326
316 317 316 316 318 322 328 330 329 331 336 337 335 329 329 330 330 331 331 329 329 331 331 325 323 323 324 328 330 331 329 327 325 326 327 327 326 325 325 324 324 325 326
315 316 316 317 317 319 325 331 330 336 336 337 335 329 329 331 330 332 332 330 330 332 328 324 322 322 327 330 330 329 328 327 328 327 327 327 326 326 326 326 325 325 326
316 317 318 318 318 318 325 330 332 331 334 335 334 329 330 331 330 329 329 330 332 331 327 321 320 323 330 330 330 329 330 330 330 330 329 327 326 327 327 327 327 327 327
313 317 317 317 318 318 330 330 333 333 333 332 332 332 330 330 330 332 331 332 332 328 321 320 321 324 326 329 329 329 330 330 330 329 329 328 327 326 326 326 326 326 326
315 316 317 317 321 321 329 329 332 333 333 330 331 330 328 329 330 332 332 332 329 323 320 321 324 325 327 328 331 329 329 328 326 327 328 328 326 325 325 325 323 324 326
317 317 316 319 322 323 325 330 329 330 330 330 329 330 328 329 331 332 331 328 323 322 323 324 325 327 328 329 331 331 328 327 325 326 327 326 326 322 324 325 323 321 322
317 317 322 325 326 324 323 330 329 328 328 328 328 329 331 330 331 329 327 324 323 325 326 325 326 328 327 329 331 330 326 326 326 327 327 327 323 322 321 322 320 319 320

GFSSE_850_thetae_126.txt.gz
Theta_e
345 341 338 338 338 338 337 336 336 336 335 335 337 336 335 334 325 317 316 331 337 335 321 333 334 335 336 335 335 335 333 333 331 321 315 312 311 311 311 311 312 313 315
343 340 338 336 339 339 338 337 335 335 334 335 337 336 336 333 329 317 317 327 334 318 334 336 337 336 336 333 332 330 328 329 326 316 312 311 312 312 314 315 315 325 328
344 339 339 338 338 336 336 337 336 335 335 336 336 336 336 333 331 321 320 320 318 323 335 336 337 333 331 329 329 326 327 320 314 312 313 313 317 320 324 327 329 328 325
344 339 338 339 339 335 334 336 337 336 335 336 336 337 335 335 330 331 323 336 339 328 331 333 333 331 328 327 328 330 328 317 314 314 316 318 332 330 325 326 324 322 331
344 341 337 339 338 335 335 336 336 335 334 337 336 337 335 338 330 336 330 337 338 337 324 326 327 325 324 324 327 327 324 320 316 316 317 317 319 322 322 323 323 328 328
344 342 337 339 338 335 336 337 336 335 333 338 337 338 337 337 332 333 329 336 336 336 323 321 321 322 326 324 323 324 323 321 316 317 317 317 318 323 326 323 323 325 326
342 343 339 338 338 336 336 338 337 336 334 335 338 338 337 336 335 329 326 335 336 333 323 319 321 325 325 324 322 320 319 318 317 317 317 318 319 324 321 317 317 321 319
342 344 341 337 337 336 337 337 338 337 335 333 338 338 337 336 335 328 323 333 333 327 317 318 318 319 319 321 323 323 321 318 317 317 317 317 317 317 317 317 317 319 318
342 343 342 338 337 335 336 336 337 338 336 333 336 338 336 336 334 328 322 328 329 321 317 315 315 316 323 324 324 321 319 318 317 317 317 318 318 318 317 317 317 317 316
339 339 341 338 337 335 336 336 337 337 337 333 335 338 337 336 331 332 326 321 325 318 315 315 315 318 324 324 323 321 320 318 318 318 318 319 318 318 317 317 318 318 317
334 337 340 340 337 337 337 337 337 336 334 333 335 336 338 337 328 335 333 320 317 316 315 316 317 319 322 323 322 321 320 319 318 319 319 320 320 319 318 318 319 319 319
334 335 337 339 339 336 337 337 337 334 332 332 335 335 338 338 329 336 334 325 315 314 315 317 318 319 321 324 323 323 322 320 319 319 320 321 321 321 319 318 319 319 320
319 326 336 336 337 338 335 334 334 335 334 332 333 336 338 338 330 336 333 327 316 314 316 318 319 319 322 325 325 324 323 322 320 320 320 321 321 322 322 320 320 319 320
316 320 324 336 336 338 337 333 331 334 333 331 330 336 338 338 331 334 329 322 315 314 317 319 318 319 323 326 327 326 325 324 322 320 320 321 321 322 323 323 323 321 320
313 317 321 326 335 335 339 336 332 332 332 331 331 331 336 337 331 329 329 321 315 315 318 319 319 320 324 327 328 328 327 327 326 324 323 321 321 322 323 324 325 324 321
312 313 318 322 324 335 336 338 336 330 328 331 331 330 335 336 330 328 328 320 315 316 319 320 320 322 325 328 329 329 329 329 327 326 325 324 322 321 322 323 324 326 325
309 313 313 317 321 324 334 336 337 332 327 333 333 334 335 336 329 325 325 319 316 318 320 323 325 327 328 328 329 329 329 329 327 325 323 323 323 323 322 322 324 325 326
308 311 315 315 317 320 326 334 338 334 328 331 335 335 335 337 329 323 324 320 318 320 321 322 325 327 329 328 328 326 325 324 324 326 325 325 325 324 323 324 324 324 325
306 309 312 313 314 317 322 326 332 330 334 331 334 335 337 338 328 322 324 320 319 321 322 322 325 326 327 327 327 327 327 327 328 328 326 327 326 325 324 324 325 325 326
307 308 309 311 314 316 317 322 329 330 330 336 334 335 337 333 323 329 327 322 320 322 322 324 325 327 325 326 328 330 330 329 328 326 326 326 326 325 325 325 324 324 325
308 308 309 311 316 317 315 316 326 328 329 330 333 335 337 329 323 331 330 324 321 324 324 325 327 325 325 327 329 331 330 327 327 327 326 326 326 326 326 326 326 325 326
309 308 309 314 317 315 315 316 320 327 329 329 329 331 333 328 326 332 330 324 324 327 327 330 326 324 325 328 329 329 328 328 329 329 329 328 327 326 326 327 327 327 326
309 309 313 316 314 316 316 317 317 323 325 330 329 330 330 329 328 331 330 327 326 329 329 329 325 322 321 327 330 327 329 330 330 330 329 328 326 326 326 326 326 325 325
310 309 314 314 314 318 317 318 318 320 325 329 329 332 331 329 331 329 330 330 325 329 329 328 324 320 321 325 330 328 329 328 329 328 328 328 327 326 324 325 324 323 323
309 310 312 312 315 317 318 320 320 322 323 329 330 330 330 329 331 329 328 331 329 329 329 329 323 320 323 326 327 327 329 328 327 326 326 327 326 325 323 324 324 322 321
310 309 313 316 316 316 319 321 323 323 325 331 331 331 331 332 331 329 330 329 329 331 332 328 321 321 325 326 328 326 329 328 327 324 325 326 326 323 321 322 320 319 317